<?xml version="1.0" encoding="UTF-8" standalone="no" ?>
<gpx xmlns="http://www.topografix.com/GPX/1/1" xmlns:xsi="http://www.w3.org/2001/XMLSchema-instance" xsi:schemaLocation="http://www.topografix.com/GPX/1/1 http://www.topografix.com/GPX/1/1/gpx.xsd" version="1.1" creator="VisuGPX - https://www.visugpx.com">
  <metadata>
    <name>Les Hauts de Bandol</name>
    <desc><![CDATA[Balade facile, longeant le Golf de la Frégate
et les Hauts de Bandol.]]></desc>
  </metadata>
  <trk>
    <name><![CDATA[Les Hauts de Bandol_1]]></name>
    <trkseg>
      <trkpt lat="43.16048" lon="5.70433">
        <ele>72.2</ele>
        <time>2021-12-01T08:18:10Z</time>
      </trkpt>
      <trkpt lat="43.16049" lon="5.7044">
        <ele>72.3</ele>
        <time>2021-12-01T08:18:12Z</time>
      </trkpt>
      <trkpt lat="43.16057" lon="5.70436">
        <ele>73.1</ele>
        <time>2021-12-01T08:18:16Z</time>
      </trkpt>
      <trkpt lat="43.16052" lon="5.70431">
        <ele>72.7</ele>
        <time>2021-12-01T08:19:40Z</time>
      </trkpt>
      <trkpt lat="43.16048" lon="5.70427">
        <ele>72.2</ele>
        <time>2021-12-01T08:20:54Z</time>
      </trkpt>
      <trkpt lat="43.16043" lon="5.70424">
        <ele>71.7</ele>
        <time>2021-12-01T08:21:04Z</time>
      </trkpt>
      <trkpt lat="43.16039" lon="5.70422">
        <ele>71.2</ele>
        <time>2021-12-01T08:21:10Z</time>
      </trkpt>
      <trkpt lat="43.16033" lon="5.70421">
        <ele>70.6</ele>
        <time>2021-12-01T08:21:18Z</time>
      </trkpt>
      <trkpt lat="43.16027" lon="5.70423">
        <ele>69.9</ele>
        <time>2021-12-01T08:21:24Z</time>
      </trkpt>
      <trkpt lat="43.16023" lon="5.70426">
        <ele>69.6</ele>
        <time>2021-12-01T08:21:34Z</time>
      </trkpt>
      <trkpt lat="43.16018" lon="5.70429">
        <ele>69.2</ele>
        <time>2021-12-01T08:21:54Z</time>
      </trkpt>
      <trkpt lat="43.16017" lon="5.70435">
        <ele>69</ele>
        <time>2021-12-01T08:22:04Z</time>
      </trkpt>
      <trkpt lat="43.16018" lon="5.70443">
        <ele>68.9</ele>
        <time>2021-12-01T08:22:14Z</time>
      </trkpt>
      <trkpt lat="43.16018" lon="5.70451">
        <ele>69</ele>
        <time>2021-12-01T08:22:24Z</time>
      </trkpt>
      <trkpt lat="43.16017" lon="5.70457">
        <ele>69</ele>
        <time>2021-12-01T08:22:28Z</time>
      </trkpt>
      <trkpt lat="43.16018" lon="5.70466">
        <ele>69.2</ele>
        <time>2021-12-01T08:22:34Z</time>
      </trkpt>
      <trkpt lat="43.16018" lon="5.70475">
        <ele>69.3</ele>
        <time>2021-12-01T08:22:40Z</time>
      </trkpt>
      <trkpt lat="43.16017" lon="5.70483">
        <ele>69.5</ele>
        <time>2021-12-01T08:22:46Z</time>
      </trkpt>
      <trkpt lat="43.16017" lon="5.70491">
        <ele>69.7</ele>
        <time>2021-12-01T08:22:52Z</time>
      </trkpt>
      <trkpt lat="43.16014" lon="5.70498">
        <ele>69.5</ele>
        <time>2021-12-01T08:22:58Z</time>
      </trkpt>
      <trkpt lat="43.16013" lon="5.70505">
        <ele>69.4</ele>
        <time>2021-12-01T08:23:04Z</time>
      </trkpt>
      <trkpt lat="43.16013" lon="5.70513">
        <ele>69.4</ele>
        <time>2021-12-01T08:23:10Z</time>
      </trkpt>
      <trkpt lat="43.16012" lon="5.70519">
        <ele>69.3</ele>
        <time>2021-12-01T08:23:14Z</time>
      </trkpt>
      <trkpt lat="43.16011" lon="5.70526">
        <ele>69.2</ele>
        <time>2021-12-01T08:23:22Z</time>
      </trkpt>
      <trkpt lat="43.16012" lon="5.70532">
        <ele>69.2</ele>
        <time>2021-12-01T08:23:28Z</time>
      </trkpt>
      <trkpt lat="43.16012" lon="5.70542">
        <ele>69.3</ele>
        <time>2021-12-01T08:23:34Z</time>
      </trkpt>
      <trkpt lat="43.16011" lon="5.70549">
        <ele>69.2</ele>
        <time>2021-12-01T08:23:38Z</time>
      </trkpt>
      <trkpt lat="43.16011" lon="5.70555">
        <ele>69.2</ele>
        <time>2021-12-01T08:23:42Z</time>
      </trkpt>
      <trkpt lat="43.16011" lon="5.70564">
        <ele>69.2</ele>
        <time>2021-12-01T08:23:48Z</time>
      </trkpt>
      <trkpt lat="43.16011" lon="5.70571">
        <ele>69.2</ele>
        <time>2021-12-01T08:23:52Z</time>
      </trkpt>
      <trkpt lat="43.16011" lon="5.70578">
        <ele>69.1</ele>
        <time>2021-12-01T08:23:56Z</time>
      </trkpt>
      <trkpt lat="43.1601" lon="5.70586">
        <ele>69.1</ele>
        <time>2021-12-01T08:24:00Z</time>
      </trkpt>
      <trkpt lat="43.1601" lon="5.70592">
        <ele>69.1</ele>
        <time>2021-12-01T08:24:04Z</time>
      </trkpt>
      <trkpt lat="43.16009" lon="5.70598">
        <ele>69</ele>
        <time>2021-12-01T08:24:08Z</time>
      </trkpt>
      <trkpt lat="43.16009" lon="5.70607">
        <ele>69</ele>
        <time>2021-12-01T08:24:14Z</time>
      </trkpt>
      <trkpt lat="43.1601" lon="5.70614">
        <ele>69.1</ele>
        <time>2021-12-01T08:24:18Z</time>
      </trkpt>
      <trkpt lat="43.16011" lon="5.70621">
        <ele>69.2</ele>
        <time>2021-12-01T08:24:22Z</time>
      </trkpt>
      <trkpt lat="43.16011" lon="5.70628">
        <ele>69.2</ele>
        <time>2021-12-01T08:24:26Z</time>
      </trkpt>
      <trkpt lat="43.16011" lon="5.70636">
        <ele>69.2</ele>
        <time>2021-12-01T08:24:32Z</time>
      </trkpt>
      <trkpt lat="43.16011" lon="5.70644">
        <ele>69.1</ele>
        <time>2021-12-01T08:24:38Z</time>
      </trkpt>
      <trkpt lat="43.1601" lon="5.70651">
        <ele>69</ele>
        <time>2021-12-01T08:24:44Z</time>
      </trkpt>
      <trkpt lat="43.16011" lon="5.70658">
        <ele>68.9</ele>
        <time>2021-12-01T08:24:50Z</time>
      </trkpt>
      <trkpt lat="43.16009" lon="5.70666">
        <ele>68.6</ele>
        <time>2021-12-01T08:24:56Z</time>
      </trkpt>
      <trkpt lat="43.16003" lon="5.70671">
        <ele>68.1</ele>
        <time>2021-12-01T08:25:02Z</time>
      </trkpt>
      <trkpt lat="43.15999" lon="5.70674">
        <ele>67.6</ele>
        <time>2021-12-01T08:25:06Z</time>
      </trkpt>
      <trkpt lat="43.15994" lon="5.70677">
        <ele>67.1</ele>
        <time>2021-12-01T08:25:10Z</time>
      </trkpt>
      <trkpt lat="43.1599" lon="5.70681">
        <ele>66.8</ele>
        <time>2021-12-01T08:25:14Z</time>
      </trkpt>
      <trkpt lat="43.15985" lon="5.70685">
        <ele>66.6</ele>
        <time>2021-12-01T08:25:20Z</time>
      </trkpt>
      <trkpt lat="43.1598" lon="5.70684">
        <ele>66.3</ele>
        <time>2021-12-01T08:25:26Z</time>
      </trkpt>
      <trkpt lat="43.15974" lon="5.70684">
        <ele>66</ele>
        <time>2021-12-01T08:25:34Z</time>
      </trkpt>
      <trkpt lat="43.15969" lon="5.70684">
        <ele>65.4</ele>
        <time>2021-12-01T08:25:38Z</time>
      </trkpt>
      <trkpt lat="43.15964" lon="5.70686">
        <ele>64.5</ele>
        <time>2021-12-01T08:25:44Z</time>
      </trkpt>
      <trkpt lat="43.15959" lon="5.70689">
        <ele>63.6</ele>
        <time>2021-12-01T08:25:50Z</time>
      </trkpt>
      <trkpt lat="43.15954" lon="5.7069">
        <ele>62.7</ele>
        <time>2021-12-01T08:25:56Z</time>
      </trkpt>
      <trkpt lat="43.15948" lon="5.70694">
        <ele>61.6</ele>
        <time>2021-12-01T08:26:04Z</time>
      </trkpt>
      <trkpt lat="43.15943" lon="5.70699">
        <ele>61.5</ele>
        <time>2021-12-01T08:26:10Z</time>
      </trkpt>
      <trkpt lat="43.15938" lon="5.70705">
        <ele>61.5</ele>
        <time>2021-12-01T08:26:16Z</time>
      </trkpt>
      <trkpt lat="43.15935" lon="5.70712">
        <ele>61.7</ele>
        <time>2021-12-01T08:26:20Z</time>
      </trkpt>
      <trkpt lat="43.15931" lon="5.70718">
        <ele>61.5</ele>
        <time>2021-12-01T08:26:26Z</time>
      </trkpt>
      <trkpt lat="43.15925" lon="5.70722">
        <ele>60.5</ele>
        <time>2021-12-01T08:26:32Z</time>
      </trkpt>
      <trkpt lat="43.1592" lon="5.70726">
        <ele>59.4</ele>
        <time>2021-12-01T08:26:38Z</time>
      </trkpt>
      <trkpt lat="43.15917" lon="5.70732">
        <ele>59.2</ele>
        <time>2021-12-01T08:26:46Z</time>
      </trkpt>
      <trkpt lat="43.15915" lon="5.70741">
        <ele>59.5</ele>
        <time>2021-12-01T08:26:52Z</time>
      </trkpt>
      <trkpt lat="43.15912" lon="5.70748">
        <ele>59.2</ele>
        <time>2021-12-01T08:26:56Z</time>
      </trkpt>
      <trkpt lat="43.15908" lon="5.70756">
        <ele>58.9</ele>
        <time>2021-12-01T08:27:00Z</time>
      </trkpt>
      <trkpt lat="43.15906" lon="5.70762">
        <ele>58.7</ele>
        <time>2021-12-01T08:27:04Z</time>
      </trkpt>
      <trkpt lat="43.15904" lon="5.70768">
        <ele>58.7</ele>
        <time>2021-12-01T08:27:08Z</time>
      </trkpt>
      <trkpt lat="43.15902" lon="5.70774">
        <ele>58.7</ele>
        <time>2021-12-01T08:27:12Z</time>
      </trkpt>
      <trkpt lat="43.15899" lon="5.70782">
        <ele>58.3</ele>
        <time>2021-12-01T08:27:18Z</time>
      </trkpt>
      <trkpt lat="43.15896" lon="5.70789">
        <ele>57</ele>
        <time>2021-12-01T08:27:24Z</time>
      </trkpt>
      <trkpt lat="43.1589" lon="5.70791">
        <ele>54.9</ele>
        <time>2021-12-01T08:27:32Z</time>
      </trkpt>
      <trkpt lat="43.15886" lon="5.70789">
        <ele>53.9</ele>
        <time>2021-12-01T08:27:38Z</time>
      </trkpt>
      <trkpt lat="43.15881" lon="5.70786">
        <ele>52.9</ele>
        <time>2021-12-01T08:27:44Z</time>
      </trkpt>
      <trkpt lat="43.15877" lon="5.70783">
        <ele>52.2</ele>
        <time>2021-12-01T08:27:54Z</time>
      </trkpt>
      <trkpt lat="43.15875" lon="5.70776">
        <ele>52</ele>
        <time>2021-12-01T08:28:00Z</time>
      </trkpt>
      <trkpt lat="43.15873" lon="5.70769">
        <ele>51.7</ele>
        <time>2021-12-01T08:28:08Z</time>
      </trkpt>
      <trkpt lat="43.15868" lon="5.7077">
        <ele>50.9</ele>
        <time>2021-12-01T08:28:14Z</time>
      </trkpt>
      <trkpt lat="43.15863" lon="5.70773">
        <ele>49.9</ele>
        <time>2021-12-01T08:28:20Z</time>
      </trkpt>
      <trkpt lat="43.15858" lon="5.70777">
        <ele>49.4</ele>
        <time>2021-12-01T08:28:28Z</time>
      </trkpt>
      <trkpt lat="43.15855" lon="5.70781">
        <ele>49.5</ele>
        <time>2021-12-01T08:28:34Z</time>
      </trkpt>
      <trkpt lat="43.15851" lon="5.70786">
        <ele>49.7</ele>
        <time>2021-12-01T08:28:40Z</time>
      </trkpt>
      <trkpt lat="43.15848" lon="5.7079">
        <ele>49.8</ele>
        <time>2021-12-01T08:28:44Z</time>
      </trkpt>
      <trkpt lat="43.15846" lon="5.70796">
        <ele>49.7</ele>
        <time>2021-12-01T08:28:50Z</time>
      </trkpt>
      <trkpt lat="43.15843" lon="5.70802">
        <ele>49.5</ele>
        <time>2021-12-01T08:28:56Z</time>
      </trkpt>
      <trkpt lat="43.15842" lon="5.70808">
        <ele>49.2</ele>
        <time>2021-12-01T08:29:02Z</time>
      </trkpt>
      <trkpt lat="43.15838" lon="5.70813">
        <ele>49</ele>
        <time>2021-12-01T08:29:08Z</time>
      </trkpt>
      <trkpt lat="43.15834" lon="5.7082">
        <ele>48.4</ele>
        <time>2021-12-01T08:29:14Z</time>
      </trkpt>
      <trkpt lat="43.1583" lon="5.70828">
        <ele>47.8</ele>
        <time>2021-12-01T08:29:20Z</time>
      </trkpt>
      <trkpt lat="43.15829" lon="5.70836">
        <ele>47.2</ele>
        <time>2021-12-01T08:29:24Z</time>
      </trkpt>
      <trkpt lat="43.15827" lon="5.70843">
        <ele>47</ele>
        <time>2021-12-01T08:29:30Z</time>
      </trkpt>
      <trkpt lat="43.15825" lon="5.70848">
        <ele>46.9</ele>
        <time>2021-12-01T08:29:36Z</time>
      </trkpt>
      <trkpt lat="43.15823" lon="5.70856">
        <ele>46.6</ele>
        <time>2021-12-01T08:29:44Z</time>
      </trkpt>
      <trkpt lat="43.1582" lon="5.70862">
        <ele>46.4</ele>
        <time>2021-12-01T08:29:52Z</time>
      </trkpt>
      <trkpt lat="43.15817" lon="5.70868">
        <ele>46.3</ele>
        <time>2021-12-01T08:29:58Z</time>
      </trkpt>
      <trkpt lat="43.15814" lon="5.70875">
        <ele>46</ele>
        <time>2021-12-01T08:30:04Z</time>
      </trkpt>
      <trkpt lat="43.15811" lon="5.70882">
        <ele>45.6</ele>
        <time>2021-12-01T08:30:10Z</time>
      </trkpt>
      <trkpt lat="43.15808" lon="5.70887">
        <ele>45.2</ele>
        <time>2021-12-01T08:30:14Z</time>
      </trkpt>
      <trkpt lat="43.15805" lon="5.70893">
        <ele>44.7</ele>
        <time>2021-12-01T08:30:20Z</time>
      </trkpt>
      <trkpt lat="43.15802" lon="5.709">
        <ele>44.3</ele>
        <time>2021-12-01T08:30:28Z</time>
      </trkpt>
      <trkpt lat="43.15799" lon="5.70906">
        <ele>44</ele>
        <time>2021-12-01T08:30:34Z</time>
      </trkpt>
      <trkpt lat="43.15795" lon="5.70911">
        <ele>43.8</ele>
        <time>2021-12-01T08:30:40Z</time>
      </trkpt>
      <trkpt lat="43.15792" lon="5.70917">
        <ele>43.5</ele>
        <time>2021-12-01T08:30:46Z</time>
      </trkpt>
      <trkpt lat="43.15788" lon="5.70921">
        <ele>43.5</ele>
        <time>2021-12-01T08:30:52Z</time>
      </trkpt>
      <trkpt lat="43.15785" lon="5.70925">
        <ele>43.4</ele>
        <time>2021-12-01T08:31:00Z</time>
      </trkpt>
      <trkpt lat="43.15782" lon="5.70932">
        <ele>43</ele>
        <time>2021-12-01T08:31:08Z</time>
      </trkpt>
      <trkpt lat="43.1578" lon="5.70938">
        <ele>42.6</ele>
        <time>2021-12-01T08:31:24Z</time>
      </trkpt>
      <trkpt lat="43.15779" lon="5.70944">
        <ele>42.1</ele>
        <time>2021-12-01T08:32:22Z</time>
      </trkpt>
      <trkpt lat="43.15775" lon="5.70948">
        <ele>42.2</ele>
        <time>2021-12-01T08:32:32Z</time>
      </trkpt>
      <trkpt lat="43.15771" lon="5.70954">
        <ele>42.2</ele>
        <time>2021-12-01T08:32:38Z</time>
      </trkpt>
      <trkpt lat="43.15768" lon="5.70959">
        <ele>42.2</ele>
        <time>2021-12-01T08:32:44Z</time>
      </trkpt>
      <trkpt lat="43.15765" lon="5.70964">
        <ele>42</ele>
        <time>2021-12-01T08:32:50Z</time>
      </trkpt>
      <trkpt lat="43.15761" lon="5.70968">
        <ele>41.7</ele>
        <time>2021-12-01T08:32:54Z</time>
      </trkpt>
      <trkpt lat="43.15757" lon="5.70974">
        <ele>41.2</ele>
        <time>2021-12-01T08:33:00Z</time>
      </trkpt>
      <trkpt lat="43.15753" lon="5.70979">
        <ele>40.9</ele>
        <time>2021-12-01T08:33:04Z</time>
      </trkpt>
      <trkpt lat="43.15749" lon="5.70985">
        <ele>40.6</ele>
        <time>2021-12-01T08:33:10Z</time>
      </trkpt>
      <trkpt lat="43.15746" lon="5.70989">
        <ele>40.6</ele>
        <time>2021-12-01T08:33:16Z</time>
      </trkpt>
      <trkpt lat="43.15741" lon="5.70992">
        <ele>40.7</ele>
        <time>2021-12-01T08:33:34Z</time>
      </trkpt>
      <trkpt lat="43.15738" lon="5.70996">
        <ele>40.6</ele>
        <time>2021-12-01T08:33:42Z</time>
      </trkpt>
      <trkpt lat="43.15734" lon="5.71">
        <ele>40.6</ele>
        <time>2021-12-01T08:33:50Z</time>
      </trkpt>
      <trkpt lat="43.15731" lon="5.71008">
        <ele>40.7</ele>
        <time>2021-12-01T08:33:58Z</time>
      </trkpt>
      <trkpt lat="43.1573" lon="5.71017">
        <ele>40.5</ele>
        <time>2021-12-01T08:34:04Z</time>
      </trkpt>
      <trkpt lat="43.1573" lon="5.71024">
        <ele>40.4</ele>
        <time>2021-12-01T08:34:08Z</time>
      </trkpt>
      <trkpt lat="43.15731" lon="5.71031">
        <ele>40.6</ele>
        <time>2021-12-01T08:34:14Z</time>
      </trkpt>
      <trkpt lat="43.15731" lon="5.71039">
        <ele>40.7</ele>
        <time>2021-12-01T08:34:20Z</time>
      </trkpt>
      <trkpt lat="43.1573" lon="5.71047">
        <ele>40.6</ele>
        <time>2021-12-01T08:34:26Z</time>
      </trkpt>
      <trkpt lat="43.15729" lon="5.71053">
        <ele>40.5</ele>
        <time>2021-12-01T08:34:30Z</time>
      </trkpt>
      <trkpt lat="43.15729" lon="5.7106">
        <ele>40.5</ele>
        <time>2021-12-01T08:34:34Z</time>
      </trkpt>
      <trkpt lat="43.15727" lon="5.71066">
        <ele>40.5</ele>
        <time>2021-12-01T08:34:38Z</time>
      </trkpt>
      <trkpt lat="43.15726" lon="5.71073">
        <ele>40.4</ele>
        <time>2021-12-01T08:34:42Z</time>
      </trkpt>
      <trkpt lat="43.15724" lon="5.71079">
        <ele>40.3</ele>
        <time>2021-12-01T08:34:46Z</time>
      </trkpt>
      <trkpt lat="43.15723" lon="5.71086">
        <ele>40.3</ele>
        <time>2021-12-01T08:34:52Z</time>
      </trkpt>
      <trkpt lat="43.15722" lon="5.71093">
        <ele>40.4</ele>
        <time>2021-12-01T08:34:58Z</time>
      </trkpt>
      <trkpt lat="43.15721" lon="5.711">
        <ele>40.5</ele>
        <time>2021-12-01T08:35:04Z</time>
      </trkpt>
      <trkpt lat="43.1572" lon="5.71108">
        <ele>40.6</ele>
        <time>2021-12-01T08:35:12Z</time>
      </trkpt>
      <trkpt lat="43.15718" lon="5.71115">
        <ele>40.6</ele>
        <time>2021-12-01T08:35:18Z</time>
      </trkpt>
      <trkpt lat="43.15716" lon="5.71122">
        <ele>40.8</ele>
        <time>2021-12-01T08:35:24Z</time>
      </trkpt>
      <trkpt lat="43.15715" lon="5.71129">
        <ele>40.8</ele>
        <time>2021-12-01T08:35:30Z</time>
      </trkpt>
      <trkpt lat="43.15713" lon="5.71138">
        <ele>40.9</ele>
        <time>2021-12-01T08:35:36Z</time>
      </trkpt>
      <trkpt lat="43.15711" lon="5.71147">
        <ele>40.9</ele>
        <time>2021-12-01T08:35:42Z</time>
      </trkpt>
      <trkpt lat="43.1571" lon="5.71155">
        <ele>40.9</ele>
        <time>2021-12-01T08:35:46Z</time>
      </trkpt>
      <trkpt lat="43.15709" lon="5.71162">
        <ele>41</ele>
        <time>2021-12-01T08:35:50Z</time>
      </trkpt>
      <trkpt lat="43.15708" lon="5.7117">
        <ele>41.1</ele>
        <time>2021-12-01T08:35:56Z</time>
      </trkpt>
      <trkpt lat="43.15707" lon="5.71176">
        <ele>41.2</ele>
        <time>2021-12-01T08:36:00Z</time>
      </trkpt>
      <trkpt lat="43.15705" lon="5.71184">
        <ele>41.4</ele>
        <time>2021-12-01T08:36:06Z</time>
      </trkpt>
      <trkpt lat="43.15706" lon="5.71191">
        <ele>41.7</ele>
        <time>2021-12-01T08:36:12Z</time>
      </trkpt>
      <trkpt lat="43.15705" lon="5.71197">
        <ele>41.8</ele>
        <time>2021-12-01T08:36:18Z</time>
      </trkpt>
      <trkpt lat="43.15705" lon="5.71205">
        <ele>42</ele>
        <time>2021-12-01T08:36:24Z</time>
      </trkpt>
      <trkpt lat="43.15704" lon="5.71211">
        <ele>42.1</ele>
        <time>2021-12-01T08:36:30Z</time>
      </trkpt>
      <trkpt lat="43.15702" lon="5.71217">
        <ele>42.1</ele>
        <time>2021-12-01T08:36:36Z</time>
      </trkpt>
      <trkpt lat="43.15702" lon="5.71227">
        <ele>42.4</ele>
        <time>2021-12-01T08:36:42Z</time>
      </trkpt>
      <trkpt lat="43.15702" lon="5.71234">
        <ele>42.6</ele>
        <time>2021-12-01T08:36:46Z</time>
      </trkpt>
      <trkpt lat="43.15703" lon="5.71241">
        <ele>42.8</ele>
        <time>2021-12-01T08:36:50Z</time>
      </trkpt>
      <trkpt lat="43.15703" lon="5.71248">
        <ele>43</ele>
        <time>2021-12-01T08:36:54Z</time>
      </trkpt>
      <trkpt lat="43.15703" lon="5.71256">
        <ele>43</ele>
        <time>2021-12-01T08:36:58Z</time>
      </trkpt>
      <trkpt lat="43.15704" lon="5.71262">
        <ele>43</ele>
        <time>2021-12-01T08:37:02Z</time>
      </trkpt>
      <trkpt lat="43.15703" lon="5.71271">
        <ele>43</ele>
        <time>2021-12-01T08:37:06Z</time>
      </trkpt>
      <trkpt lat="43.15703" lon="5.71279">
        <ele>43</ele>
        <time>2021-12-01T08:37:10Z</time>
      </trkpt>
      <trkpt lat="43.15703" lon="5.71288">
        <ele>43.1</ele>
        <time>2021-12-01T08:37:14Z</time>
      </trkpt>
      <trkpt lat="43.15704" lon="5.71296">
        <ele>43.2</ele>
        <time>2021-12-01T08:37:18Z</time>
      </trkpt>
      <trkpt lat="43.15704" lon="5.71303">
        <ele>43.3</ele>
        <time>2021-12-01T08:37:22Z</time>
      </trkpt>
      <trkpt lat="43.15704" lon="5.7131">
        <ele>43.1</ele>
        <time>2021-12-01T08:37:26Z</time>
      </trkpt>
      <trkpt lat="43.15703" lon="5.71316">
        <ele>42.7</ele>
        <time>2021-12-01T08:37:30Z</time>
      </trkpt>
      <trkpt lat="43.15701" lon="5.71324">
        <ele>42.3</ele>
        <time>2021-12-01T08:37:36Z</time>
      </trkpt>
      <trkpt lat="43.15698" lon="5.71332">
        <ele>42</ele>
        <time>2021-12-01T08:37:42Z</time>
      </trkpt>
      <trkpt lat="43.15696" lon="5.71339">
        <ele>41.7</ele>
        <time>2021-12-01T08:37:46Z</time>
      </trkpt>
      <trkpt lat="43.15694" lon="5.71346">
        <ele>41.6</ele>
        <time>2021-12-01T08:37:50Z</time>
      </trkpt>
      <trkpt lat="43.15693" lon="5.71352">
        <ele>41.6</ele>
        <time>2021-12-01T08:37:54Z</time>
      </trkpt>
      <trkpt lat="43.15692" lon="5.71361">
        <ele>41.4</ele>
        <time>2021-12-01T08:38:00Z</time>
      </trkpt>
      <trkpt lat="43.15692" lon="5.71367">
        <ele>40.9</ele>
        <time>2021-12-01T08:38:06Z</time>
      </trkpt>
      <trkpt lat="43.15692" lon="5.71374">
        <ele>40.4</ele>
        <time>2021-12-01T08:38:14Z</time>
      </trkpt>
      <trkpt lat="43.15692" lon="5.71382">
        <ele>39.7</ele>
        <time>2021-12-01T08:38:22Z</time>
      </trkpt>
      <trkpt lat="43.15691" lon="5.7139">
        <ele>39.2</ele>
        <time>2021-12-01T08:38:28Z</time>
      </trkpt>
      <trkpt lat="43.15689" lon="5.71397">
        <ele>38.6</ele>
        <time>2021-12-01T08:38:32Z</time>
      </trkpt>
      <trkpt lat="43.15688" lon="5.71404">
        <ele>37.9</ele>
        <time>2021-12-01T08:38:38Z</time>
      </trkpt>
      <trkpt lat="43.15686" lon="5.71411">
        <ele>37.3</ele>
        <time>2021-12-01T08:38:46Z</time>
      </trkpt>
      <trkpt lat="43.15683" lon="5.71419">
        <ele>36.5</ele>
        <time>2021-12-01T08:38:52Z</time>
      </trkpt>
      <trkpt lat="43.1568" lon="5.71424">
        <ele>35.8</ele>
        <time>2021-12-01T08:38:56Z</time>
      </trkpt>
      <trkpt lat="43.15676" lon="5.71431">
        <ele>34.9</ele>
        <time>2021-12-01T08:39:02Z</time>
      </trkpt>
      <trkpt lat="43.15674" lon="5.71438">
        <ele>33.9</ele>
        <time>2021-12-01T08:39:06Z</time>
      </trkpt>
      <trkpt lat="43.15671" lon="5.71444">
        <ele>32.9</ele>
        <time>2021-12-01T08:39:10Z</time>
      </trkpt>
      <trkpt lat="43.15669" lon="5.7145">
        <ele>32.6</ele>
        <time>2021-12-01T08:39:14Z</time>
      </trkpt>
      <trkpt lat="43.15667" lon="5.71456">
        <ele>32.1</ele>
        <time>2021-12-01T08:39:18Z</time>
      </trkpt>
      <trkpt lat="43.15665" lon="5.71464">
        <ele>31.6</ele>
        <time>2021-12-01T08:39:22Z</time>
      </trkpt>
      <trkpt lat="43.15662" lon="5.71469">
        <ele>31.1</ele>
        <time>2021-12-01T08:39:28Z</time>
      </trkpt>
      <trkpt lat="43.15657" lon="5.71469">
        <ele>30.9</ele>
        <time>2021-12-01T08:39:34Z</time>
      </trkpt>
      <trkpt lat="43.15653" lon="5.71473">
        <ele>30.6</ele>
        <time>2021-12-01T08:39:40Z</time>
      </trkpt>
      <trkpt lat="43.15649" lon="5.71479">
        <ele>30.7</ele>
        <time>2021-12-01T08:39:46Z</time>
      </trkpt>
      <trkpt lat="43.15645" lon="5.71484">
        <ele>30.7</ele>
        <time>2021-12-01T08:39:50Z</time>
      </trkpt>
      <trkpt lat="43.15642" lon="5.7149">
        <ele>30.8</ele>
        <time>2021-12-01T08:39:54Z</time>
      </trkpt>
      <trkpt lat="43.15643" lon="5.71499">
        <ele>31.2</ele>
        <time>2021-12-01T08:40:00Z</time>
      </trkpt>
      <trkpt lat="43.15643" lon="5.71505">
        <ele>33.8</ele>
        <time>2021-12-01T08:40:04Z</time>
      </trkpt>
      <trkpt lat="43.15643" lon="5.71514">
        <ele>38.2</ele>
        <time>2021-12-01T08:40:10Z</time>
      </trkpt>
      <trkpt lat="43.15643" lon="5.71521">
        <ele>41.9</ele>
        <time>2021-12-01T08:40:14Z</time>
      </trkpt>
      <trkpt lat="43.15643" lon="5.71527">
        <ele>45.2</ele>
        <time>2021-12-01T08:40:19Z</time>
      </trkpt>
      <trkpt lat="43.15643" lon="5.71534">
        <ele>46.6</ele>
        <time>2021-12-01T08:40:24Z</time>
      </trkpt>
      <trkpt lat="43.15643" lon="5.7154">
        <ele>47.9</ele>
        <time>2021-12-01T08:40:29Z</time>
      </trkpt>
      <trkpt lat="43.15643" lon="5.71547">
        <ele>49.1</ele>
        <time>2021-12-01T08:40:34Z</time>
      </trkpt>
      <trkpt lat="43.15634" lon="5.7155">
        <ele>50.2</ele>
        <time>2021-12-01T08:40:45Z</time>
      </trkpt>
      <trkpt lat="43.15646" lon="5.71597">
        <ele>37.8</ele>
        <time>2021-12-01T08:40:48Z</time>
      </trkpt>
      <trkpt lat="43.15652" lon="5.71605">
        <ele>37.9</ele>
        <time>2021-12-01T08:40:58Z</time>
      </trkpt>
      <trkpt lat="43.15657" lon="5.71605">
        <ele>37.7</ele>
        <time>2021-12-01T08:41:04Z</time>
      </trkpt>
      <trkpt lat="43.15662" lon="5.71609">
        <ele>37.4</ele>
        <time>2021-12-01T08:41:10Z</time>
      </trkpt>
      <trkpt lat="43.15664" lon="5.71614">
        <ele>37.4</ele>
        <time>2021-12-01T08:41:16Z</time>
      </trkpt>
      <trkpt lat="43.15669" lon="5.71619">
        <ele>37.8</ele>
        <time>2021-12-01T08:41:22Z</time>
      </trkpt>
      <trkpt lat="43.15672" lon="5.71623">
        <ele>38.2</ele>
        <time>2021-12-01T08:41:26Z</time>
      </trkpt>
      <trkpt lat="43.15676" lon="5.71627">
        <ele>38.5</ele>
        <time>2021-12-01T08:41:30Z</time>
      </trkpt>
      <trkpt lat="43.1568" lon="5.71631">
        <ele>38.6</ele>
        <time>2021-12-01T08:41:34Z</time>
      </trkpt>
      <trkpt lat="43.15683" lon="5.71636">
        <ele>38.5</ele>
        <time>2021-12-01T08:41:38Z</time>
      </trkpt>
      <trkpt lat="43.15687" lon="5.71641">
        <ele>38.4</ele>
        <time>2021-12-01T08:41:42Z</time>
      </trkpt>
      <trkpt lat="43.15691" lon="5.71646">
        <ele>38.5</ele>
        <time>2021-12-01T08:41:48Z</time>
      </trkpt>
      <trkpt lat="43.15696" lon="5.71651">
        <ele>38.7</ele>
        <time>2021-12-01T08:41:54Z</time>
      </trkpt>
      <trkpt lat="43.15699" lon="5.71659">
        <ele>39.1</ele>
        <time>2021-12-01T08:42:00Z</time>
      </trkpt>
      <trkpt lat="43.15703" lon="5.71663">
        <ele>39.4</ele>
        <time>2021-12-01T08:42:06Z</time>
      </trkpt>
      <trkpt lat="43.15707" lon="5.71666">
        <ele>39.5</ele>
        <time>2021-12-01T08:42:10Z</time>
      </trkpt>
      <trkpt lat="43.15712" lon="5.7167">
        <ele>40</ele>
        <time>2021-12-01T08:42:16Z</time>
      </trkpt>
      <trkpt lat="43.15715" lon="5.71675">
        <ele>40.5</ele>
        <time>2021-12-01T08:42:20Z</time>
      </trkpt>
      <trkpt lat="43.15719" lon="5.71681">
        <ele>40.7</ele>
        <time>2021-12-01T08:42:24Z</time>
      </trkpt>
      <trkpt lat="43.15723" lon="5.71688">
        <ele>40.9</ele>
        <time>2021-12-01T08:42:30Z</time>
      </trkpt>
      <trkpt lat="43.15728" lon="5.71695">
        <ele>41.2</ele>
        <time>2021-12-01T08:42:36Z</time>
      </trkpt>
      <trkpt lat="43.15731" lon="5.71702">
        <ele>41.9</ele>
        <time>2021-12-01T08:42:42Z</time>
      </trkpt>
      <trkpt lat="43.15732" lon="5.71708">
        <ele>42.3</ele>
        <time>2021-12-01T08:42:48Z</time>
      </trkpt>
      <trkpt lat="43.15735" lon="5.71713">
        <ele>42.5</ele>
        <time>2021-12-01T08:42:52Z</time>
      </trkpt>
      <trkpt lat="43.15738" lon="5.7172">
        <ele>42.7</ele>
        <time>2021-12-01T08:42:58Z</time>
      </trkpt>
      <trkpt lat="43.1574" lon="5.71727">
        <ele>43.2</ele>
        <time>2021-12-01T08:43:04Z</time>
      </trkpt>
      <trkpt lat="43.15739" lon="5.71735">
        <ele>43.9</ele>
        <time>2021-12-01T08:43:10Z</time>
      </trkpt>
      <trkpt lat="43.1574" lon="5.71742">
        <ele>44.6</ele>
        <time>2021-12-01T08:43:18Z</time>
      </trkpt>
      <trkpt lat="43.15739" lon="5.71749">
        <ele>45.3</ele>
        <time>2021-12-01T08:43:26Z</time>
      </trkpt>
      <trkpt lat="43.15736" lon="5.71756">
        <ele>46.2</ele>
        <time>2021-12-01T08:43:34Z</time>
      </trkpt>
      <trkpt lat="43.15733" lon="5.71763">
        <ele>47.1</ele>
        <time>2021-12-01T08:43:40Z</time>
      </trkpt>
      <trkpt lat="43.15733" lon="5.71769">
        <ele>47.8</ele>
        <time>2021-12-01T08:43:44Z</time>
      </trkpt>
      <trkpt lat="43.15731" lon="5.71776">
        <ele>48.5</ele>
        <time>2021-12-01T08:43:50Z</time>
      </trkpt>
      <trkpt lat="43.15729" lon="5.71783">
        <ele>48.7</ele>
        <time>2021-12-01T08:43:56Z</time>
      </trkpt>
      <trkpt lat="43.1573" lon="5.7179">
        <ele>49.1</ele>
        <time>2021-12-01T08:44:02Z</time>
      </trkpt>
      <trkpt lat="43.15729" lon="5.71799">
        <ele>49.4</ele>
        <time>2021-12-01T08:44:08Z</time>
      </trkpt>
      <trkpt lat="43.15725" lon="5.71806">
        <ele>49.3</ele>
        <time>2021-12-01T08:44:12Z</time>
      </trkpt>
      <trkpt lat="43.15724" lon="5.71813">
        <ele>49.5</ele>
        <time>2021-12-01T08:44:16Z</time>
      </trkpt>
      <trkpt lat="43.15724" lon="5.71821">
        <ele>49.8</ele>
        <time>2021-12-01T08:44:24Z</time>
      </trkpt>
      <trkpt lat="43.15723" lon="5.71829">
        <ele>50</ele>
        <time>2021-12-01T08:44:30Z</time>
      </trkpt>
      <trkpt lat="43.15722" lon="5.71838">
        <ele>50</ele>
        <time>2021-12-01T08:44:36Z</time>
      </trkpt>
      <trkpt lat="43.15721" lon="5.71845">
        <ele>50.4</ele>
        <time>2021-12-01T08:44:42Z</time>
      </trkpt>
      <trkpt lat="43.15719" lon="5.71851">
        <ele>51.2</ele>
        <time>2021-12-01T08:44:48Z</time>
      </trkpt>
      <trkpt lat="43.15716" lon="5.71857">
        <ele>52</ele>
        <time>2021-12-01T08:44:54Z</time>
      </trkpt>
      <trkpt lat="43.15715" lon="5.71863">
        <ele>52.6</ele>
        <time>2021-12-01T08:45:00Z</time>
      </trkpt>
      <trkpt lat="43.15713" lon="5.71871">
        <ele>53.2</ele>
        <time>2021-12-01T08:45:06Z</time>
      </trkpt>
      <trkpt lat="43.15712" lon="5.71878">
        <ele>53.6</ele>
        <time>2021-12-01T08:45:12Z</time>
      </trkpt>
      <trkpt lat="43.15711" lon="5.71885">
        <ele>54.1</ele>
        <time>2021-12-01T08:45:20Z</time>
      </trkpt>
      <trkpt lat="43.15711" lon="5.71894">
        <ele>54.4</ele>
        <time>2021-12-01T08:45:28Z</time>
      </trkpt>
      <trkpt lat="43.15711" lon="5.71903">
        <ele>54.4</ele>
        <time>2021-12-01T08:45:34Z</time>
      </trkpt>
      <trkpt lat="43.15709" lon="5.71908">
        <ele>55.1</ele>
        <time>2021-12-01T08:45:40Z</time>
      </trkpt>
      <trkpt lat="43.15708" lon="5.71916">
        <ele>55.6</ele>
        <time>2021-12-01T08:45:48Z</time>
      </trkpt>
      <trkpt lat="43.15706" lon="5.71923">
        <ele>56.5</ele>
        <time>2021-12-01T08:45:56Z</time>
      </trkpt>
      <trkpt lat="43.15705" lon="5.71931">
        <ele>57.2</ele>
        <time>2021-12-01T08:46:02Z</time>
      </trkpt>
      <trkpt lat="43.15704" lon="5.71938">
        <ele>57.9</ele>
        <time>2021-12-01T08:46:08Z</time>
      </trkpt>
      <trkpt lat="43.15702" lon="5.71946">
        <ele>58.9</ele>
        <time>2021-12-01T08:46:16Z</time>
      </trkpt>
      <trkpt lat="43.157" lon="5.71952">
        <ele>59.7</ele>
        <time>2021-12-01T08:46:22Z</time>
      </trkpt>
      <trkpt lat="43.157" lon="5.7196">
        <ele>59.9</ele>
        <time>2021-12-01T08:46:28Z</time>
      </trkpt>
      <trkpt lat="43.15701" lon="5.71967">
        <ele>60</ele>
        <time>2021-12-01T08:46:32Z</time>
      </trkpt>
      <trkpt lat="43.157" lon="5.71974">
        <ele>60.5</ele>
        <time>2021-12-01T08:46:36Z</time>
      </trkpt>
      <trkpt lat="43.15701" lon="5.71981">
        <ele>60.8</ele>
        <time>2021-12-01T08:46:40Z</time>
      </trkpt>
      <trkpt lat="43.15702" lon="5.71988">
        <ele>61.3</ele>
        <time>2021-12-01T08:46:46Z</time>
      </trkpt>
      <trkpt lat="43.15702" lon="5.71994">
        <ele>61.9</ele>
        <time>2021-12-01T08:46:54Z</time>
      </trkpt>
      <trkpt lat="43.157" lon="5.72">
        <ele>63.2</ele>
        <time>2021-12-01T08:47:02Z</time>
      </trkpt>
      <trkpt lat="43.15695" lon="5.72005">
        <ele>64.8</ele>
        <time>2021-12-01T08:47:08Z</time>
      </trkpt>
      <trkpt lat="43.15691" lon="5.72011">
        <ele>66.6</ele>
        <time>2021-12-01T08:47:16Z</time>
      </trkpt>
      <trkpt lat="43.15689" lon="5.72017">
        <ele>67.6</ele>
        <time>2021-12-01T08:47:22Z</time>
      </trkpt>
      <trkpt lat="43.15685" lon="5.72024">
        <ele>69.4</ele>
        <time>2021-12-01T08:47:28Z</time>
      </trkpt>
      <trkpt lat="43.15684" lon="5.72032">
        <ele>69.8</ele>
        <time>2021-12-01T08:47:34Z</time>
      </trkpt>
      <trkpt lat="43.15682" lon="5.7204">
        <ele>71</ele>
        <time>2021-12-01T08:47:40Z</time>
      </trkpt>
      <trkpt lat="43.15681" lon="5.72046">
        <ele>71.5</ele>
        <time>2021-12-01T08:47:46Z</time>
      </trkpt>
      <trkpt lat="43.1568" lon="5.72055">
        <ele>71.8</ele>
        <time>2021-12-01T08:47:52Z</time>
      </trkpt>
      <trkpt lat="43.15679" lon="5.72062">
        <ele>71.9</ele>
        <time>2021-12-01T08:47:58Z</time>
      </trkpt>
      <trkpt lat="43.15678" lon="5.72072">
        <ele>71.9</ele>
        <time>2021-12-01T08:48:04Z</time>
      </trkpt>
      <trkpt lat="43.15677" lon="5.72078">
        <ele>72.3</ele>
        <time>2021-12-01T08:48:08Z</time>
      </trkpt>
      <trkpt lat="43.15675" lon="5.72087">
        <ele>72.2</ele>
        <time>2021-12-01T08:48:14Z</time>
      </trkpt>
      <trkpt lat="43.15675" lon="5.72093">
        <ele>71.9</ele>
        <time>2021-12-01T08:48:18Z</time>
      </trkpt>
      <trkpt lat="43.15673" lon="5.72101">
        <ele>71.9</ele>
        <time>2021-12-01T08:48:24Z</time>
      </trkpt>
      <trkpt lat="43.1567" lon="5.72109">
        <ele>72.2</ele>
        <time>2021-12-01T08:48:30Z</time>
      </trkpt>
      <trkpt lat="43.15667" lon="5.72114">
        <ele>72.5</ele>
        <time>2021-12-01T08:48:34Z</time>
      </trkpt>
      <trkpt lat="43.15664" lon="5.72121">
        <ele>72.7</ele>
        <time>2021-12-01T08:48:40Z</time>
      </trkpt>
      <trkpt lat="43.15662" lon="5.72127">
        <ele>72.9</ele>
        <time>2021-12-01T08:48:44Z</time>
      </trkpt>
      <trkpt lat="43.15659" lon="5.72134">
        <ele>73.1</ele>
        <time>2021-12-01T08:48:50Z</time>
      </trkpt>
      <trkpt lat="43.15655" lon="5.7214">
        <ele>73.6</ele>
        <time>2021-12-01T08:48:56Z</time>
      </trkpt>
      <trkpt lat="43.1565" lon="5.72144">
        <ele>74.6</ele>
        <time>2021-12-01T08:49:02Z</time>
      </trkpt>
      <trkpt lat="43.15645" lon="5.72148">
        <ele>75.5</ele>
        <time>2021-12-01T08:49:06Z</time>
      </trkpt>
      <trkpt lat="43.15643" lon="5.72154">
        <ele>75.2</ele>
        <time>2021-12-01T08:49:10Z</time>
      </trkpt>
      <trkpt lat="43.15637" lon="5.72155">
        <ele>76.4</ele>
        <time>2021-12-01T08:49:20Z</time>
      </trkpt>
      <trkpt lat="43.15631" lon="5.72158">
        <ele>76.8</ele>
        <time>2021-12-01T08:49:26Z</time>
      </trkpt>
      <trkpt lat="43.15627" lon="5.7216">
        <ele>77</ele>
        <time>2021-12-01T08:49:30Z</time>
      </trkpt>
      <trkpt lat="43.1562" lon="5.72163">
        <ele>77.3</ele>
        <time>2021-12-01T08:49:36Z</time>
      </trkpt>
      <trkpt lat="43.15615" lon="5.72165">
        <ele>77.6</ele>
        <time>2021-12-01T08:49:42Z</time>
      </trkpt>
      <trkpt lat="43.1561" lon="5.72168">
        <ele>77.9</ele>
        <time>2021-12-01T08:49:48Z</time>
      </trkpt>
      <trkpt lat="43.15604" lon="5.72173">
        <ele>77.8</ele>
        <time>2021-12-01T08:49:54Z</time>
      </trkpt>
      <trkpt lat="43.156" lon="5.72179">
        <ele>77.4</ele>
        <time>2021-12-01T08:49:58Z</time>
      </trkpt>
      <trkpt lat="43.15593" lon="5.72181">
        <ele>78.2</ele>
        <time>2021-12-01T08:50:02Z</time>
      </trkpt>
      <trkpt lat="43.15587" lon="5.72183">
        <ele>78.9</ele>
        <time>2021-12-01T08:50:06Z</time>
      </trkpt>
      <trkpt lat="43.15582" lon="5.72184">
        <ele>79.5</ele>
        <time>2021-12-01T08:50:10Z</time>
      </trkpt>
      <trkpt lat="43.15576" lon="5.72187">
        <ele>79.5</ele>
        <time>2021-12-01T08:50:18Z</time>
      </trkpt>
      <trkpt lat="43.1557" lon="5.72189">
        <ele>79.5</ele>
        <time>2021-12-01T08:50:24Z</time>
      </trkpt>
      <trkpt lat="43.15565" lon="5.72192">
        <ele>79.6</ele>
        <time>2021-12-01T08:50:30Z</time>
      </trkpt>
      <trkpt lat="43.15559" lon="5.72193">
        <ele>79.9</ele>
        <time>2021-12-01T08:50:36Z</time>
      </trkpt>
      <trkpt lat="43.15554" lon="5.72194">
        <ele>80.1</ele>
        <time>2021-12-01T08:50:42Z</time>
      </trkpt>
      <trkpt lat="43.15547" lon="5.72195">
        <ele>80.2</ele>
        <time>2021-12-01T08:50:48Z</time>
      </trkpt>
      <trkpt lat="43.15541" lon="5.72195">
        <ele>80.5</ele>
        <time>2021-12-01T08:50:54Z</time>
      </trkpt>
      <trkpt lat="43.15536" lon="5.72191">
        <ele>81</ele>
        <time>2021-12-01T08:51:00Z</time>
      </trkpt>
      <trkpt lat="43.15533" lon="5.72186">
        <ele>81.7</ele>
        <time>2021-12-01T08:51:06Z</time>
      </trkpt>
      <trkpt lat="43.1553" lon="5.72181">
        <ele>82.3</ele>
        <time>2021-12-01T08:51:12Z</time>
      </trkpt>
      <trkpt lat="43.15526" lon="5.72178">
        <ele>82.9</ele>
        <time>2021-12-01T08:51:18Z</time>
      </trkpt>
      <trkpt lat="43.15522" lon="5.72173">
        <ele>83.8</ele>
        <time>2021-12-01T08:51:24Z</time>
      </trkpt>
      <trkpt lat="43.15517" lon="5.7217">
        <ele>84.5</ele>
        <time>2021-12-01T08:51:30Z</time>
      </trkpt>
      <trkpt lat="43.15515" lon="5.72164">
        <ele>85.2</ele>
        <time>2021-12-01T08:51:36Z</time>
      </trkpt>
      <trkpt lat="43.15511" lon="5.7216">
        <ele>85.9</ele>
        <time>2021-12-01T08:51:42Z</time>
      </trkpt>
      <trkpt lat="43.15505" lon="5.72159">
        <ele>86.7</ele>
        <time>2021-12-01T08:51:48Z</time>
      </trkpt>
      <trkpt lat="43.15501" lon="5.72158">
        <ele>87.2</ele>
        <time>2021-12-01T08:51:54Z</time>
      </trkpt>
      <trkpt lat="43.15496" lon="5.72154">
        <ele>88</ele>
        <time>2021-12-01T08:52:00Z</time>
      </trkpt>
      <trkpt lat="43.1549" lon="5.72154">
        <ele>88.4</ele>
        <time>2021-12-01T08:52:06Z</time>
      </trkpt>
      <trkpt lat="43.15484" lon="5.72154">
        <ele>88.7</ele>
        <time>2021-12-01T08:52:12Z</time>
      </trkpt>
      <trkpt lat="43.15479" lon="5.72154">
        <ele>89.1</ele>
        <time>2021-12-01T08:52:18Z</time>
      </trkpt>
      <trkpt lat="43.15473" lon="5.72154">
        <ele>89.4</ele>
        <time>2021-12-01T08:52:24Z</time>
      </trkpt>
      <trkpt lat="43.15467" lon="5.72154">
        <ele>89.6</ele>
        <time>2021-12-01T08:52:30Z</time>
      </trkpt>
      <trkpt lat="43.15462" lon="5.72155">
        <ele>89.9</ele>
        <time>2021-12-01T08:52:36Z</time>
      </trkpt>
      <trkpt lat="43.15457" lon="5.72157">
        <ele>90.1</ele>
        <time>2021-12-01T08:52:42Z</time>
      </trkpt>
      <trkpt lat="43.15452" lon="5.7216">
        <ele>90.4</ele>
        <time>2021-12-01T08:52:48Z</time>
      </trkpt>
      <trkpt lat="43.15446" lon="5.72162">
        <ele>90.7</ele>
        <time>2021-12-01T08:52:54Z</time>
      </trkpt>
      <trkpt lat="43.15441" lon="5.72159">
        <ele>90.7</ele>
        <time>2021-12-01T08:53:02Z</time>
      </trkpt>
      <trkpt lat="43.15436" lon="5.72157">
        <ele>90.4</ele>
        <time>2021-12-01T08:53:08Z</time>
      </trkpt>
      <trkpt lat="43.15433" lon="5.72153">
        <ele>90.1</ele>
        <time>2021-12-01T08:53:14Z</time>
      </trkpt>
      <trkpt lat="43.15427" lon="5.72151">
        <ele>89.8</ele>
        <time>2021-12-01T08:53:22Z</time>
      </trkpt>
      <trkpt lat="43.15421" lon="5.72151">
        <ele>89.5</ele>
        <time>2021-12-01T08:53:28Z</time>
      </trkpt>
      <trkpt lat="43.15416" lon="5.72152">
        <ele>89.3</ele>
        <time>2021-12-01T08:53:32Z</time>
      </trkpt>
      <trkpt lat="43.15411" lon="5.72152">
        <ele>89.1</ele>
        <time>2021-12-01T08:53:38Z</time>
      </trkpt>
      <trkpt lat="43.15407" lon="5.72155">
        <ele>89</ele>
        <time>2021-12-01T08:54:42Z</time>
      </trkpt>
      <trkpt lat="43.15407" lon="5.72161">
        <ele>89.8</ele>
        <time>2021-12-01T08:56:28Z</time>
      </trkpt>
      <trkpt lat="43.15407" lon="5.72168">
        <ele>90.5</ele>
        <time>2021-12-01T08:56:36Z</time>
      </trkpt>
      <trkpt lat="43.15403" lon="5.72172">
        <ele>90.7</ele>
        <time>2021-12-01T08:56:42Z</time>
      </trkpt>
      <trkpt lat="43.154" lon="5.72179">
        <ele>91.6</ele>
        <time>2021-12-01T08:56:50Z</time>
      </trkpt>
      <trkpt lat="43.15395" lon="5.72185">
        <ele>92.4</ele>
        <time>2021-12-01T08:56:58Z</time>
      </trkpt>
      <trkpt lat="43.15391" lon="5.72188">
        <ele>92.9</ele>
        <time>2021-12-01T08:57:02Z</time>
      </trkpt>
      <trkpt lat="43.15386" lon="5.72191">
        <ele>93.3</ele>
        <time>2021-12-01T08:57:06Z</time>
      </trkpt>
      <trkpt lat="43.1538" lon="5.72193">
        <ele>93.2</ele>
        <time>2021-12-01T08:57:12Z</time>
      </trkpt>
      <trkpt lat="43.15375" lon="5.72194">
        <ele>93</ele>
        <time>2021-12-01T08:57:16Z</time>
      </trkpt>
      <trkpt lat="43.15369" lon="5.72196">
        <ele>93</ele>
        <time>2021-12-01T08:57:22Z</time>
      </trkpt>
      <trkpt lat="43.15364" lon="5.72198">
        <ele>93</ele>
        <time>2021-12-01T08:57:26Z</time>
      </trkpt>
      <trkpt lat="43.15359" lon="5.72198">
        <ele>92.9</ele>
        <time>2021-12-01T08:57:30Z</time>
      </trkpt>
      <trkpt lat="43.15354" lon="5.72199">
        <ele>92.8</ele>
        <time>2021-12-01T08:57:36Z</time>
      </trkpt>
      <trkpt lat="43.15349" lon="5.722">
        <ele>92.9</ele>
        <time>2021-12-01T08:57:42Z</time>
      </trkpt>
      <trkpt lat="43.15345" lon="5.72202">
        <ele>93.1</ele>
        <time>2021-12-01T08:57:46Z</time>
      </trkpt>
      <trkpt lat="43.15339" lon="5.72204">
        <ele>93.2</ele>
        <time>2021-12-01T08:57:50Z</time>
      </trkpt>
      <trkpt lat="43.15334" lon="5.72204">
        <ele>93.1</ele>
        <time>2021-12-01T08:57:56Z</time>
      </trkpt>
      <trkpt lat="43.15328" lon="5.72206">
        <ele>93</ele>
        <time>2021-12-01T08:58:02Z</time>
      </trkpt>
      <trkpt lat="43.15322" lon="5.72208">
        <ele>92.9</ele>
        <time>2021-12-01T08:58:08Z</time>
      </trkpt>
      <trkpt lat="43.15319" lon="5.72213">
        <ele>93.6</ele>
        <time>2021-12-01T08:58:14Z</time>
      </trkpt>
      <trkpt lat="43.15319" lon="5.7222">
        <ele>94.9</ele>
        <time>2021-12-01T08:58:22Z</time>
      </trkpt>
      <trkpt lat="43.1532" lon="5.72226">
        <ele>95.9</ele>
        <time>2021-12-01T08:58:32Z</time>
      </trkpt>
      <trkpt lat="43.15317" lon="5.72232">
        <ele>96.3</ele>
        <time>2021-12-01T08:58:40Z</time>
      </trkpt>
      <trkpt lat="43.15311" lon="5.72236">
        <ele>96.4</ele>
        <time>2021-12-01T08:58:46Z</time>
      </trkpt>
      <trkpt lat="43.15305" lon="5.72239">
        <ele>96.4</ele>
        <time>2021-12-01T08:58:52Z</time>
      </trkpt>
      <trkpt lat="43.15301" lon="5.7224">
        <ele>96.7</ele>
        <time>2021-12-01T08:58:56Z</time>
      </trkpt>
      <trkpt lat="43.15295" lon="5.72238">
        <ele>96.5</ele>
        <time>2021-12-01T08:59:02Z</time>
      </trkpt>
      <trkpt lat="43.15288" lon="5.72238">
        <ele>96.7</ele>
        <time>2021-12-01T08:59:08Z</time>
      </trkpt>
      <trkpt lat="43.15283" lon="5.72237">
        <ele>96.5</ele>
        <time>2021-12-01T08:59:12Z</time>
      </trkpt>
      <trkpt lat="43.15277" lon="5.72235">
        <ele>96.3</ele>
        <time>2021-12-01T08:59:18Z</time>
      </trkpt>
      <trkpt lat="43.15272" lon="5.72235">
        <ele>96.1</ele>
        <time>2021-12-01T08:59:24Z</time>
      </trkpt>
      <trkpt lat="43.15267" lon="5.72235">
        <ele>96</ele>
        <time>2021-12-01T08:59:30Z</time>
      </trkpt>
      <trkpt lat="43.15262" lon="5.72234">
        <ele>95.8</ele>
        <time>2021-12-01T08:59:34Z</time>
      </trkpt>
      <trkpt lat="43.15257" lon="5.72235">
        <ele>95.8</ele>
        <time>2021-12-01T08:59:40Z</time>
      </trkpt>
      <trkpt lat="43.15252" lon="5.72234">
        <ele>95.5</ele>
        <time>2021-12-01T08:59:46Z</time>
      </trkpt>
      <trkpt lat="43.15247" lon="5.72233">
        <ele>95.5</ele>
        <time>2021-12-01T08:59:50Z</time>
      </trkpt>
      <trkpt lat="43.15241" lon="5.72231">
        <ele>95.1</ele>
        <time>2021-12-01T08:59:56Z</time>
      </trkpt>
      <trkpt lat="43.15237" lon="5.72229">
        <ele>94.9</ele>
        <time>2021-12-01T09:00:02Z</time>
      </trkpt>
      <trkpt lat="43.15231" lon="5.72229">
        <ele>95.2</ele>
        <time>2021-12-01T09:00:06Z</time>
      </trkpt>
      <trkpt lat="43.15225" lon="5.72229">
        <ele>95.3</ele>
        <time>2021-12-01T09:00:12Z</time>
      </trkpt>
      <trkpt lat="43.15219" lon="5.72228">
        <ele>95.5</ele>
        <time>2021-12-01T09:00:18Z</time>
      </trkpt>
      <trkpt lat="43.15213" lon="5.72226">
        <ele>95.3</ele>
        <time>2021-12-01T09:00:24Z</time>
      </trkpt>
      <trkpt lat="43.15207" lon="5.72224">
        <ele>95</ele>
        <time>2021-12-01T09:00:30Z</time>
      </trkpt>
      <trkpt lat="43.15202" lon="5.72221">
        <ele>94.5</ele>
        <time>2021-12-01T09:00:36Z</time>
      </trkpt>
      <trkpt lat="43.15197" lon="5.72218">
        <ele>94.1</ele>
        <time>2021-12-01T09:00:42Z</time>
      </trkpt>
      <trkpt lat="43.15192" lon="5.72214">
        <ele>93.4</ele>
        <time>2021-12-01T09:00:48Z</time>
      </trkpt>
      <trkpt lat="43.15187" lon="5.72212">
        <ele>92.8</ele>
        <time>2021-12-01T09:00:54Z</time>
      </trkpt>
      <trkpt lat="43.15182" lon="5.72209">
        <ele>92.3</ele>
        <time>2021-12-01T09:01:00Z</time>
      </trkpt>
      <trkpt lat="43.15177" lon="5.72206">
        <ele>91.5</ele>
        <time>2021-12-01T09:01:06Z</time>
      </trkpt>
      <trkpt lat="43.15172" lon="5.72204">
        <ele>90.8</ele>
        <time>2021-12-01T09:01:12Z</time>
      </trkpt>
      <trkpt lat="43.15166" lon="5.72203">
        <ele>90.4</ele>
        <time>2021-12-01T09:01:16Z</time>
      </trkpt>
      <trkpt lat="43.1516" lon="5.72199">
        <ele>89.4</ele>
        <time>2021-12-01T09:01:22Z</time>
      </trkpt>
      <trkpt lat="43.15156" lon="5.72196">
        <ele>88.6</ele>
        <time>2021-12-01T09:01:26Z</time>
      </trkpt>
      <trkpt lat="43.15151" lon="5.72193">
        <ele>87.6</ele>
        <time>2021-12-01T09:01:32Z</time>
      </trkpt>
      <trkpt lat="43.15147" lon="5.72189">
        <ele>86.7</ele>
        <time>2021-12-01T09:01:40Z</time>
      </trkpt>
      <trkpt lat="43.15142" lon="5.72184">
        <ele>85.8</ele>
        <time>2021-12-01T09:01:46Z</time>
      </trkpt>
      <trkpt lat="43.15138" lon="5.72181">
        <ele>85</ele>
        <time>2021-12-01T09:01:50Z</time>
      </trkpt>
      <trkpt lat="43.15134" lon="5.72178">
        <ele>84.3</ele>
        <time>2021-12-01T09:01:56Z</time>
      </trkpt>
      <trkpt lat="43.15129" lon="5.72174">
        <ele>83.4</ele>
        <time>2021-12-01T09:02:02Z</time>
      </trkpt>
      <trkpt lat="43.15125" lon="5.7217">
        <ele>82.5</ele>
        <time>2021-12-01T09:02:06Z</time>
      </trkpt>
      <trkpt lat="43.1512" lon="5.72168">
        <ele>81.8</ele>
        <time>2021-12-01T09:02:10Z</time>
      </trkpt>
      <trkpt lat="43.15116" lon="5.72166">
        <ele>81.2</ele>
        <time>2021-12-01T09:02:14Z</time>
      </trkpt>
      <trkpt lat="43.1511" lon="5.72162">
        <ele>80.4</ele>
        <time>2021-12-01T09:02:20Z</time>
      </trkpt>
      <trkpt lat="43.15104" lon="5.7216">
        <ele>79.3</ele>
        <time>2021-12-01T09:02:24Z</time>
      </trkpt>
      <trkpt lat="43.151" lon="5.72158">
        <ele>78.4</ele>
        <time>2021-12-01T09:02:30Z</time>
      </trkpt>
      <trkpt lat="43.15095" lon="5.72154">
        <ele>77.4</ele>
        <time>2021-12-01T09:02:36Z</time>
      </trkpt>
      <trkpt lat="43.15096" lon="5.72148">
        <ele>76.8</ele>
        <time>2021-12-01T09:02:46Z</time>
      </trkpt>
      <trkpt lat="43.15103" lon="5.72146">
        <ele>77.5</ele>
        <time>2021-12-01T09:02:52Z</time>
      </trkpt>
      <trkpt lat="43.15107" lon="5.72144">
        <ele>78</ele>
        <time>2021-12-01T09:02:56Z</time>
      </trkpt>
      <trkpt lat="43.15112" lon="5.72139">
        <ele>78</ele>
        <time>2021-12-01T09:03:02Z</time>
      </trkpt>
      <trkpt lat="43.15116" lon="5.72136">
        <ele>77.4</ele>
        <time>2021-12-01T09:03:08Z</time>
      </trkpt>
      <trkpt lat="43.1512" lon="5.7213">
        <ele>76.5</ele>
        <time>2021-12-01T09:03:14Z</time>
      </trkpt>
      <trkpt lat="43.15123" lon="5.72125">
        <ele>75.4</ele>
        <time>2021-12-01T09:03:20Z</time>
      </trkpt>
      <trkpt lat="43.15124" lon="5.72118">
        <ele>74.2</ele>
        <time>2021-12-01T09:03:26Z</time>
      </trkpt>
      <trkpt lat="43.15125" lon="5.7211">
        <ele>72.8</ele>
        <time>2021-12-01T09:03:32Z</time>
      </trkpt>
      <trkpt lat="43.15126" lon="5.72102">
        <ele>71.7</ele>
        <time>2021-12-01T09:03:40Z</time>
      </trkpt>
      <trkpt lat="43.15126" lon="5.72095">
        <ele>70.7</ele>
        <time>2021-12-01T09:03:44Z</time>
      </trkpt>
      <trkpt lat="43.15126" lon="5.72087">
        <ele>69.5</ele>
        <time>2021-12-01T09:03:48Z</time>
      </trkpt>
      <trkpt lat="43.15126" lon="5.7208">
        <ele>68.7</ele>
        <time>2021-12-01T09:03:54Z</time>
      </trkpt>
      <trkpt lat="43.15126" lon="5.72074">
        <ele>68</ele>
        <time>2021-12-01T09:04:00Z</time>
      </trkpt>
      <trkpt lat="43.15125" lon="5.72066">
        <ele>67.1</ele>
        <time>2021-12-01T09:04:06Z</time>
      </trkpt>
      <trkpt lat="43.15123" lon="5.72058">
        <ele>66.2</ele>
        <time>2021-12-01T09:04:12Z</time>
      </trkpt>
      <trkpt lat="43.15123" lon="5.72051">
        <ele>65.2</ele>
        <time>2021-12-01T09:04:18Z</time>
      </trkpt>
      <trkpt lat="43.15121" lon="5.72045">
        <ele>64.3</ele>
        <time>2021-12-01T09:04:26Z</time>
      </trkpt>
      <trkpt lat="43.15118" lon="5.72039">
        <ele>63.4</ele>
        <time>2021-12-01T09:04:34Z</time>
      </trkpt>
      <trkpt lat="43.15114" lon="5.72033">
        <ele>62.6</ele>
        <time>2021-12-01T09:04:38Z</time>
      </trkpt>
      <trkpt lat="43.1511" lon="5.72028">
        <ele>62</ele>
        <time>2021-12-01T09:04:42Z</time>
      </trkpt>
      <trkpt lat="43.15106" lon="5.72022">
        <ele>62.6</ele>
        <time>2021-12-01T09:04:48Z</time>
      </trkpt>
      <trkpt lat="43.151" lon="5.72018">
        <ele>62.2</ele>
        <time>2021-12-01T09:04:52Z</time>
      </trkpt>
      <trkpt lat="43.15094" lon="5.72017">
        <ele>61.4</ele>
        <time>2021-12-01T09:04:56Z</time>
      </trkpt>
      <trkpt lat="43.15088" lon="5.72016">
        <ele>60.5</ele>
        <time>2021-12-01T09:05:04Z</time>
      </trkpt>
      <trkpt lat="43.15084" lon="5.72014">
        <ele>59.5</ele>
        <time>2021-12-01T09:05:08Z</time>
      </trkpt>
      <trkpt lat="43.1508" lon="5.7201">
        <ele>58.9</ele>
        <time>2021-12-01T09:05:12Z</time>
      </trkpt>
      <trkpt lat="43.15074" lon="5.72009">
        <ele>58.5</ele>
        <time>2021-12-01T09:05:16Z</time>
      </trkpt>
      <trkpt lat="43.15069" lon="5.72008">
        <ele>58.3</ele>
        <time>2021-12-01T09:05:20Z</time>
      </trkpt>
      <trkpt lat="43.15064" lon="5.72008">
        <ele>58.1</ele>
        <time>2021-12-01T09:05:24Z</time>
      </trkpt>
      <trkpt lat="43.15058" lon="5.72009">
        <ele>57.8</ele>
        <time>2021-12-01T09:05:30Z</time>
      </trkpt>
      <trkpt lat="43.15051" lon="5.7201">
        <ele>57.6</ele>
        <time>2021-12-01T09:05:36Z</time>
      </trkpt>
      <trkpt lat="43.15046" lon="5.72013">
        <ele>57.3</ele>
        <time>2021-12-01T09:05:44Z</time>
      </trkpt>
      <trkpt lat="43.15042" lon="5.72016">
        <ele>56.8</ele>
        <time>2021-12-01T09:05:54Z</time>
      </trkpt>
      <trkpt lat="43.15037" lon="5.72018">
        <ele>56.3</ele>
        <time>2021-12-01T09:06:00Z</time>
      </trkpt>
      <trkpt lat="43.15032" lon="5.72018">
        <ele>56</ele>
        <time>2021-12-01T09:06:06Z</time>
      </trkpt>
      <trkpt lat="43.15027" lon="5.72019">
        <ele>55.6</ele>
        <time>2021-12-01T09:06:12Z</time>
      </trkpt>
      <trkpt lat="43.15022" lon="5.72019">
        <ele>55.5</ele>
        <time>2021-12-01T09:06:18Z</time>
      </trkpt>
      <trkpt lat="43.15017" lon="5.7202">
        <ele>55.1</ele>
        <time>2021-12-01T09:06:22Z</time>
      </trkpt>
      <trkpt lat="43.15011" lon="5.7202">
        <ele>54.9</ele>
        <time>2021-12-01T09:06:28Z</time>
      </trkpt>
      <trkpt lat="43.15007" lon="5.72023">
        <ele>54.3</ele>
        <time>2021-12-01T09:06:32Z</time>
      </trkpt>
      <trkpt lat="43.15002" lon="5.72025">
        <ele>53.6</ele>
        <time>2021-12-01T09:06:36Z</time>
      </trkpt>
      <trkpt lat="43.14997" lon="5.72029">
        <ele>53.4</ele>
        <time>2021-12-01T09:06:44Z</time>
      </trkpt>
      <trkpt lat="43.14992" lon="5.72033">
        <ele>54</ele>
        <time>2021-12-01T09:06:52Z</time>
      </trkpt>
      <trkpt lat="43.14988" lon="5.72036">
        <ele>54.3</ele>
        <time>2021-12-01T09:06:56Z</time>
      </trkpt>
      <trkpt lat="43.14982" lon="5.72039">
        <ele>54.3</ele>
        <time>2021-12-01T09:07:02Z</time>
      </trkpt>
      <trkpt lat="43.14978" lon="5.72042">
        <ele>54.1</ele>
        <time>2021-12-01T09:07:06Z</time>
      </trkpt>
      <trkpt lat="43.14973" lon="5.72045">
        <ele>53.6</ele>
        <time>2021-12-01T09:07:10Z</time>
      </trkpt>
      <trkpt lat="43.1497" lon="5.72049">
        <ele>53.1</ele>
        <time>2021-12-01T09:07:14Z</time>
      </trkpt>
      <trkpt lat="43.14965" lon="5.72052">
        <ele>52.8</ele>
        <time>2021-12-01T09:07:20Z</time>
      </trkpt>
      <trkpt lat="43.14961" lon="5.72056">
        <ele>52.4</ele>
        <time>2021-12-01T09:07:30Z</time>
      </trkpt>
      <trkpt lat="43.14957" lon="5.7206">
        <ele>52.9</ele>
        <time>2021-12-01T09:07:36Z</time>
      </trkpt>
      <trkpt lat="43.14951" lon="5.72063">
        <ele>53</ele>
        <time>2021-12-01T09:07:44Z</time>
      </trkpt>
      <trkpt lat="43.14946" lon="5.72066">
        <ele>52.7</ele>
        <time>2021-12-01T09:07:48Z</time>
      </trkpt>
      <trkpt lat="43.14941" lon="5.72067">
        <ele>52.5</ele>
        <time>2021-12-01T09:07:54Z</time>
      </trkpt>
      <trkpt lat="43.14937" lon="5.72065">
        <ele>52.5</ele>
        <time>2021-12-01T09:08:00Z</time>
      </trkpt>
      <trkpt lat="43.1493" lon="5.72065">
        <ele>52.3</ele>
        <time>2021-12-01T09:08:06Z</time>
      </trkpt>
      <trkpt lat="43.14924" lon="5.72065">
        <ele>52.2</ele>
        <time>2021-12-01T09:08:12Z</time>
      </trkpt>
      <trkpt lat="43.14918" lon="5.72066">
        <ele>51.9</ele>
        <time>2021-12-01T09:08:16Z</time>
      </trkpt>
      <trkpt lat="43.14912" lon="5.7207">
        <ele>51.1</ele>
        <time>2021-12-01T09:08:20Z</time>
      </trkpt>
      <trkpt lat="43.14908" lon="5.72073">
        <ele>50.7</ele>
        <time>2021-12-01T09:08:24Z</time>
      </trkpt>
      <trkpt lat="43.14903" lon="5.72076">
        <ele>50.3</ele>
        <time>2021-12-01T09:08:32Z</time>
      </trkpt>
      <trkpt lat="43.14899" lon="5.72079">
        <ele>50.1</ele>
        <time>2021-12-01T09:09:50Z</time>
      </trkpt>
      <trkpt lat="43.14893" lon="5.7208">
        <ele>49.9</ele>
        <time>2021-12-01T09:09:56Z</time>
      </trkpt>
      <trkpt lat="43.14888" lon="5.7208">
        <ele>50</ele>
        <time>2021-12-01T09:10:00Z</time>
      </trkpt>
      <trkpt lat="43.14882" lon="5.7208">
        <ele>50.6</ele>
        <time>2021-12-01T09:10:04Z</time>
      </trkpt>
      <trkpt lat="43.14878" lon="5.72077">
        <ele>51</ele>
        <time>2021-12-01T09:10:10Z</time>
      </trkpt>
      <trkpt lat="43.14872" lon="5.72078">
        <ele>51.6</ele>
        <time>2021-12-01T09:10:16Z</time>
      </trkpt>
      <trkpt lat="43.14867" lon="5.72076">
        <ele>52.1</ele>
        <time>2021-12-01T09:10:26Z</time>
      </trkpt>
      <trkpt lat="43.14863" lon="5.72072">
        <ele>52.4</ele>
        <time>2021-12-01T09:10:34Z</time>
      </trkpt>
      <trkpt lat="43.14859" lon="5.72068">
        <ele>52.8</ele>
        <time>2021-12-01T09:10:40Z</time>
      </trkpt>
      <trkpt lat="43.14852" lon="5.72066">
        <ele>54.2</ele>
        <time>2021-12-01T09:10:44Z</time>
      </trkpt>
      <trkpt lat="43.14847" lon="5.72062">
        <ele>55.1</ele>
        <time>2021-12-01T09:10:50Z</time>
      </trkpt>
      <trkpt lat="43.14841" lon="5.72062">
        <ele>56.2</ele>
        <time>2021-12-01T09:10:56Z</time>
      </trkpt>
      <trkpt lat="43.14837" lon="5.72058">
        <ele>56.5</ele>
        <time>2021-12-01T09:11:06Z</time>
      </trkpt>
      <trkpt lat="43.14832" lon="5.72061">
        <ele>57.8</ele>
        <time>2021-12-01T09:11:10Z</time>
      </trkpt>
      <trkpt lat="43.14827" lon="5.72062">
        <ele>58.6</ele>
        <time>2021-12-01T09:11:12Z</time>
      </trkpt>
      <trkpt lat="43.14823" lon="5.72065">
        <ele>59.7</ele>
        <time>2021-12-01T09:11:17Z</time>
      </trkpt>
      <trkpt lat="43.14818" lon="5.72065">
        <ele>60.4</ele>
        <time>2021-12-01T09:11:30Z</time>
      </trkpt>
      <trkpt lat="43.14812" lon="5.72067">
        <ele>61.7</ele>
        <time>2021-12-01T09:11:50Z</time>
      </trkpt>
      <trkpt lat="43.14807" lon="5.72068">
        <ele>62.7</ele>
        <time>2021-12-01T09:11:53Z</time>
      </trkpt>
      <trkpt lat="43.14803" lon="5.72069">
        <ele>63.4</ele>
        <time>2021-12-01T09:11:58Z</time>
      </trkpt>
      <trkpt lat="43.14798" lon="5.7207">
        <ele>64</ele>
        <time>2021-12-01T09:12:04Z</time>
      </trkpt>
      <trkpt lat="43.14793" lon="5.72071">
        <ele>64.6</ele>
        <time>2021-12-01T09:12:08Z</time>
      </trkpt>
      <trkpt lat="43.14789" lon="5.72076">
        <ele>66.3</ele>
        <time>2021-12-01T09:12:22Z</time>
      </trkpt>
      <trkpt lat="43.14784" lon="5.72077">
        <ele>66.9</ele>
        <time>2021-12-01T09:12:32Z</time>
      </trkpt>
      <trkpt lat="43.14779" lon="5.7208">
        <ele>68.7</ele>
        <time>2021-12-01T09:12:40Z</time>
      </trkpt>
      <trkpt lat="43.14776" lon="5.72085">
        <ele>70.4</ele>
        <time>2021-12-01T09:12:48Z</time>
      </trkpt>
      <trkpt lat="43.14772" lon="5.7209">
        <ele>71.7</ele>
        <time>2021-12-01T09:12:58Z</time>
      </trkpt>
      <trkpt lat="43.14769" lon="5.72094">
        <ele>72.7</ele>
        <time>2021-12-01T09:13:04Z</time>
      </trkpt>
      <trkpt lat="43.14764" lon="5.72098">
        <ele>73.6</ele>
        <time>2021-12-01T09:13:10Z</time>
      </trkpt>
      <trkpt lat="43.14759" lon="5.72099">
        <ele>73.9</ele>
        <time>2021-12-01T09:13:16Z</time>
      </trkpt>
      <trkpt lat="43.14754" lon="5.72101">
        <ele>74.5</ele>
        <time>2021-12-01T09:13:24Z</time>
      </trkpt>
      <trkpt lat="43.14749" lon="5.72103">
        <ele>74.8</ele>
        <time>2021-12-01T09:13:30Z</time>
      </trkpt>
      <trkpt lat="43.14745" lon="5.72105">
        <ele>75.1</ele>
        <time>2021-12-01T09:13:58Z</time>
      </trkpt>
      <trkpt lat="43.1474" lon="5.72107">
        <ele>75.2</ele>
        <time>2021-12-01T09:14:34Z</time>
      </trkpt>
      <trkpt lat="43.14735" lon="5.72109">
        <ele>76.1</ele>
        <time>2021-12-01T09:14:40Z</time>
      </trkpt>
      <trkpt lat="43.1473" lon="5.7211">
        <ele>76.5</ele>
        <time>2021-12-01T09:14:48Z</time>
      </trkpt>
      <trkpt lat="43.14726" lon="5.72111">
        <ele>77</ele>
        <time>2021-12-01T09:16:36Z</time>
      </trkpt>
      <trkpt lat="43.14721" lon="5.72113">
        <ele>76.8</ele>
        <time>2021-12-01T09:16:58Z</time>
      </trkpt>
      <trkpt lat="43.14717" lon="5.72117">
        <ele>76.3</ele>
        <time>2021-12-01T09:17:24Z</time>
      </trkpt>
      <trkpt lat="43.14712" lon="5.72119">
        <ele>75.7</ele>
        <time>2021-12-01T09:17:30Z</time>
      </trkpt>
      <trkpt lat="43.14708" lon="5.72122">
        <ele>75.3</ele>
        <time>2021-12-01T09:17:38Z</time>
      </trkpt>
      <trkpt lat="43.14703" lon="5.72125">
        <ele>74.8</ele>
        <time>2021-12-01T09:17:44Z</time>
      </trkpt>
      <trkpt lat="43.14698" lon="5.72127">
        <ele>74.5</ele>
        <time>2021-12-01T09:17:50Z</time>
      </trkpt>
      <trkpt lat="43.14694" lon="5.72129">
        <ele>74.2</ele>
        <time>2021-12-01T09:17:56Z</time>
      </trkpt>
      <trkpt lat="43.14689" lon="5.72132">
        <ele>73.8</ele>
        <time>2021-12-01T09:18:02Z</time>
      </trkpt>
      <trkpt lat="43.14683" lon="5.72134">
        <ele>73.9</ele>
        <time>2021-12-01T09:18:10Z</time>
      </trkpt>
      <trkpt lat="43.14679" lon="5.72138">
        <ele>75.1</ele>
        <time>2021-12-01T09:18:18Z</time>
      </trkpt>
      <trkpt lat="43.14674" lon="5.72142">
        <ele>75.4</ele>
        <time>2021-12-01T09:18:28Z</time>
      </trkpt>
      <trkpt lat="43.14669" lon="5.72146">
        <ele>75.3</ele>
        <time>2021-12-01T09:18:36Z</time>
      </trkpt>
      <trkpt lat="43.14665" lon="5.72148">
        <ele>74.6</ele>
        <time>2021-12-01T09:18:42Z</time>
      </trkpt>
      <trkpt lat="43.1466" lon="5.72151">
        <ele>73.3</ele>
        <time>2021-12-01T09:18:48Z</time>
      </trkpt>
      <trkpt lat="43.14656" lon="5.72154">
        <ele>72.6</ele>
        <time>2021-12-01T09:18:52Z</time>
      </trkpt>
      <trkpt lat="43.1465" lon="5.72158">
        <ele>72.2</ele>
        <time>2021-12-01T09:18:58Z</time>
      </trkpt>
      <trkpt lat="43.14645" lon="5.72161">
        <ele>72.2</ele>
        <time>2021-12-01T09:19:04Z</time>
      </trkpt>
      <trkpt lat="43.1464" lon="5.72165">
        <ele>73.2</ele>
        <time>2021-12-01T09:19:10Z</time>
      </trkpt>
      <trkpt lat="43.14636" lon="5.72168">
        <ele>72.9</ele>
        <time>2021-12-01T09:19:16Z</time>
      </trkpt>
      <trkpt lat="43.14632" lon="5.72171">
        <ele>71.5</ele>
        <time>2021-12-01T09:19:22Z</time>
      </trkpt>
      <trkpt lat="43.14627" lon="5.72175">
        <ele>70.5</ele>
        <time>2021-12-01T09:19:28Z</time>
      </trkpt>
      <trkpt lat="43.14622" lon="5.7218">
        <ele>69.9</ele>
        <time>2021-12-01T09:19:34Z</time>
      </trkpt>
      <trkpt lat="43.14617" lon="5.72184">
        <ele>69.9</ele>
        <time>2021-12-01T09:19:40Z</time>
      </trkpt>
      <trkpt lat="43.14612" lon="5.7219">
        <ele>70.7</ele>
        <time>2021-12-01T09:19:46Z</time>
      </trkpt>
      <trkpt lat="43.14608" lon="5.72194">
        <ele>71</ele>
        <time>2021-12-01T09:19:52Z</time>
      </trkpt>
      <trkpt lat="43.14604" lon="5.72199">
        <ele>69.7</ele>
        <time>2021-12-01T09:20:00Z</time>
      </trkpt>
      <trkpt lat="43.146" lon="5.72203">
        <ele>68.7</ele>
        <time>2021-12-01T09:20:04Z</time>
      </trkpt>
      <trkpt lat="43.14596" lon="5.72206">
        <ele>68.2</ele>
        <time>2021-12-01T09:20:08Z</time>
      </trkpt>
      <trkpt lat="43.14592" lon="5.72211">
        <ele>68.2</ele>
        <time>2021-12-01T09:20:12Z</time>
      </trkpt>
      <trkpt lat="43.14587" lon="5.72215">
        <ele>68.3</ele>
        <time>2021-12-01T09:20:20Z</time>
      </trkpt>
      <trkpt lat="43.14582" lon="5.72218">
        <ele>68.4</ele>
        <time>2021-12-01T09:20:26Z</time>
      </trkpt>
      <trkpt lat="43.14577" lon="5.72221">
        <ele>67.6</ele>
        <time>2021-12-01T09:20:30Z</time>
      </trkpt>
      <trkpt lat="43.14574" lon="5.72226">
        <ele>66.7</ele>
        <time>2021-12-01T09:20:34Z</time>
      </trkpt>
      <trkpt lat="43.14569" lon="5.7223">
        <ele>65.9</ele>
        <time>2021-12-01T09:20:40Z</time>
      </trkpt>
      <trkpt lat="43.14565" lon="5.72236">
        <ele>65.7</ele>
        <time>2021-12-01T09:20:46Z</time>
      </trkpt>
      <trkpt lat="43.14561" lon="5.7224">
        <ele>65.9</ele>
        <time>2021-12-01T09:20:50Z</time>
      </trkpt>
      <trkpt lat="43.14557" lon="5.72244">
        <ele>66.6</ele>
        <time>2021-12-01T09:21:00Z</time>
      </trkpt>
      <trkpt lat="43.14553" lon="5.72249">
        <ele>66.8</ele>
        <time>2021-12-01T09:21:18Z</time>
      </trkpt>
      <trkpt lat="43.1455" lon="5.72254">
        <ele>65.5</ele>
        <time>2021-12-01T09:21:24Z</time>
      </trkpt>
      <trkpt lat="43.14544" lon="5.72259">
        <ele>63.8</ele>
        <time>2021-12-01T09:21:32Z</time>
      </trkpt>
      <trkpt lat="43.14541" lon="5.72263">
        <ele>63.1</ele>
        <time>2021-12-01T09:21:36Z</time>
      </trkpt>
      <trkpt lat="43.14537" lon="5.72268">
        <ele>63</ele>
        <time>2021-12-01T09:21:42Z</time>
      </trkpt>
      <trkpt lat="43.14533" lon="5.72273">
        <ele>63.3</ele>
        <time>2021-12-01T09:21:48Z</time>
      </trkpt>
      <trkpt lat="43.1453" lon="5.72277">
        <ele>64</ele>
        <time>2021-12-01T09:21:52Z</time>
      </trkpt>
      <trkpt lat="43.14526" lon="5.72282">
        <ele>63.5</ele>
        <time>2021-12-01T09:21:58Z</time>
      </trkpt>
      <trkpt lat="43.1452" lon="5.72286">
        <ele>62.5</ele>
        <time>2021-12-01T09:22:04Z</time>
      </trkpt>
      <trkpt lat="43.14515" lon="5.72291">
        <ele>61.4</ele>
        <time>2021-12-01T09:22:12Z</time>
      </trkpt>
      <trkpt lat="43.14511" lon="5.72296">
        <ele>60.8</ele>
        <time>2021-12-01T09:22:18Z</time>
      </trkpt>
      <trkpt lat="43.14507" lon="5.72299">
        <ele>60.1</ele>
        <time>2021-12-01T09:22:24Z</time>
      </trkpt>
      <trkpt lat="43.14504" lon="5.72305">
        <ele>59.6</ele>
        <time>2021-12-01T09:22:30Z</time>
      </trkpt>
      <trkpt lat="43.14499" lon="5.72311">
        <ele>59.8</ele>
        <time>2021-12-01T09:22:38Z</time>
      </trkpt>
      <trkpt lat="43.14496" lon="5.72317">
        <ele>60.5</ele>
        <time>2021-12-01T09:22:44Z</time>
      </trkpt>
      <trkpt lat="43.14492" lon="5.72322">
        <ele>60.7</ele>
        <time>2021-12-01T09:22:50Z</time>
      </trkpt>
      <trkpt lat="43.14488" lon="5.72329">
        <ele>60.1</ele>
        <time>2021-12-01T09:22:56Z</time>
      </trkpt>
      <trkpt lat="43.14485" lon="5.72335">
        <ele>59.4</ele>
        <time>2021-12-01T09:23:00Z</time>
      </trkpt>
      <trkpt lat="43.14481" lon="5.7234">
        <ele>59.1</ele>
        <time>2021-12-01T09:23:04Z</time>
      </trkpt>
      <trkpt lat="43.14477" lon="5.72348">
        <ele>59</ele>
        <time>2021-12-01T09:23:08Z</time>
      </trkpt>
      <trkpt lat="43.14472" lon="5.72355">
        <ele>59.2</ele>
        <time>2021-12-01T09:23:12Z</time>
      </trkpt>
      <trkpt lat="43.14469" lon="5.7236">
        <ele>59.7</ele>
        <time>2021-12-01T09:23:16Z</time>
      </trkpt>
      <trkpt lat="43.14465" lon="5.72365">
        <ele>59.7</ele>
        <time>2021-12-01T09:23:22Z</time>
      </trkpt>
      <trkpt lat="43.14462" lon="5.72372">
        <ele>59.2</ele>
        <time>2021-12-01T09:23:28Z</time>
      </trkpt>
      <trkpt lat="43.14459" lon="5.7238">
        <ele>58.3</ele>
        <time>2021-12-01T09:23:34Z</time>
      </trkpt>
      <trkpt lat="43.14456" lon="5.72386">
        <ele>57.2</ele>
        <time>2021-12-01T09:23:38Z</time>
      </trkpt>
      <trkpt lat="43.14452" lon="5.72391">
        <ele>56.1</ele>
        <time>2021-12-01T09:23:44Z</time>
      </trkpt>
      <trkpt lat="43.14448" lon="5.72397">
        <ele>55.5</ele>
        <time>2021-12-01T09:23:50Z</time>
      </trkpt>
      <trkpt lat="43.14444" lon="5.72403">
        <ele>55</ele>
        <time>2021-12-01T09:23:56Z</time>
      </trkpt>
      <trkpt lat="43.14445" lon="5.72409">
        <ele>55.7</ele>
        <time>2021-12-01T09:24:02Z</time>
      </trkpt>
      <trkpt lat="43.14447" lon="5.72417">
        <ele>56.6</ele>
        <time>2021-12-01T09:24:08Z</time>
      </trkpt>
      <trkpt lat="43.14449" lon="5.72425">
        <ele>56.8</ele>
        <time>2021-12-01T09:24:14Z</time>
      </trkpt>
      <trkpt lat="43.14449" lon="5.72432">
        <ele>56.7</ele>
        <time>2021-12-01T09:24:20Z</time>
      </trkpt>
      <trkpt lat="43.14451" lon="5.72439">
        <ele>57.1</ele>
        <time>2021-12-01T09:24:28Z</time>
      </trkpt>
      <trkpt lat="43.14456" lon="5.72445">
        <ele>58.4</ele>
        <time>2021-12-01T09:24:34Z</time>
      </trkpt>
      <trkpt lat="43.14455" lon="5.72454">
        <ele>58.7</ele>
        <time>2021-12-01T09:24:44Z</time>
      </trkpt>
      <trkpt lat="43.14455" lon="5.72461">
        <ele>58.9</ele>
        <time>2021-12-01T09:24:50Z</time>
      </trkpt>
      <trkpt lat="43.14456" lon="5.7247">
        <ele>59.7</ele>
        <time>2021-12-01T09:24:56Z</time>
      </trkpt>
      <trkpt lat="43.14457" lon="5.72478">
        <ele>60.8</ele>
        <time>2021-12-01T09:25:02Z</time>
      </trkpt>
      <trkpt lat="43.14458" lon="5.72487">
        <ele>61.6</ele>
        <time>2021-12-01T09:25:08Z</time>
      </trkpt>
      <trkpt lat="43.14457" lon="5.72494">
        <ele>62.2</ele>
        <time>2021-12-01T09:25:12Z</time>
      </trkpt>
      <trkpt lat="43.14457" lon="5.725">
        <ele>62.7</ele>
        <time>2021-12-01T09:25:16Z</time>
      </trkpt>
      <trkpt lat="43.14457" lon="5.72507">
        <ele>63.1</ele>
        <time>2021-12-01T09:25:20Z</time>
      </trkpt>
      <trkpt lat="43.14454" lon="5.72513">
        <ele>63.1</ele>
        <time>2021-12-01T09:25:26Z</time>
      </trkpt>
      <trkpt lat="43.14453" lon="5.72521">
        <ele>63.4</ele>
        <time>2021-12-01T09:25:42Z</time>
      </trkpt>
      <trkpt lat="43.14451" lon="5.72529">
        <ele>63.9</ele>
        <time>2021-12-01T09:25:48Z</time>
      </trkpt>
      <trkpt lat="43.14452" lon="5.72536">
        <ele>65.3</ele>
        <time>2021-12-01T09:25:56Z</time>
      </trkpt>
      <trkpt lat="43.14452" lon="5.72543">
        <ele>66.6</ele>
        <time>2021-12-01T09:26:06Z</time>
      </trkpt>
      <trkpt lat="43.1445" lon="5.72549">
        <ele>67.1</ele>
        <time>2021-12-01T09:26:14Z</time>
      </trkpt>
      <trkpt lat="43.1445" lon="5.72556">
        <ele>68.2</ele>
        <time>2021-12-01T09:26:22Z</time>
      </trkpt>
      <trkpt lat="43.14449" lon="5.72562">
        <ele>69.1</ele>
        <time>2021-12-01T09:26:28Z</time>
      </trkpt>
      <trkpt lat="43.1445" lon="5.72569">
        <ele>70.4</ele>
        <time>2021-12-01T09:26:36Z</time>
      </trkpt>
      <trkpt lat="43.1445" lon="5.72575">
        <ele>71.7</ele>
        <time>2021-12-01T09:26:44Z</time>
      </trkpt>
      <trkpt lat="43.14451" lon="5.72582">
        <ele>73</ele>
        <time>2021-12-01T09:26:52Z</time>
      </trkpt>
      <trkpt lat="43.14452" lon="5.72589">
        <ele>74.1</ele>
        <time>2021-12-01T09:27:02Z</time>
      </trkpt>
      <trkpt lat="43.1445" lon="5.72596">
        <ele>74.8</ele>
        <time>2021-12-01T09:27:08Z</time>
      </trkpt>
      <trkpt lat="43.14448" lon="5.72602">
        <ele>75.3</ele>
        <time>2021-12-01T09:27:16Z</time>
      </trkpt>
      <trkpt lat="43.14445" lon="5.72608">
        <ele>75.7</ele>
        <time>2021-12-01T09:27:22Z</time>
      </trkpt>
      <trkpt lat="43.14441" lon="5.72616">
        <ele>75.7</ele>
        <time>2021-12-01T09:27:28Z</time>
      </trkpt>
      <trkpt lat="43.14439" lon="5.72621">
        <ele>75.7</ele>
        <time>2021-12-01T09:27:32Z</time>
      </trkpt>
      <trkpt lat="43.14436" lon="5.72628">
        <ele>75.7</ele>
        <time>2021-12-01T09:27:38Z</time>
      </trkpt>
      <trkpt lat="43.14433" lon="5.72636">
        <ele>75.8</ele>
        <time>2021-12-01T09:27:44Z</time>
      </trkpt>
      <trkpt lat="43.14431" lon="5.72642">
        <ele>75.7</ele>
        <time>2021-12-01T09:27:50Z</time>
      </trkpt>
      <trkpt lat="43.14429" lon="5.72647">
        <ele>75.7</ele>
        <time>2021-12-01T09:29:26Z</time>
      </trkpt>
      <trkpt lat="43.14424" lon="5.72652">
        <ele>75.1</ele>
        <time>2021-12-01T09:30:52Z</time>
      </trkpt>
      <trkpt lat="43.14419" lon="5.72656">
        <ele>74.3</ele>
        <time>2021-12-01T09:31:00Z</time>
      </trkpt>
      <trkpt lat="43.14414" lon="5.72662">
        <ele>74</ele>
        <time>2021-12-01T09:31:08Z</time>
      </trkpt>
      <trkpt lat="43.14411" lon="5.72669">
        <ele>73.6</ele>
        <time>2021-12-01T09:31:14Z</time>
      </trkpt>
      <trkpt lat="43.14411" lon="5.72676">
        <ele>73.7</ele>
        <time>2021-12-01T09:31:20Z</time>
      </trkpt>
      <trkpt lat="43.14412" lon="5.72684">
        <ele>74</ele>
        <time>2021-12-01T09:31:26Z</time>
      </trkpt>
      <trkpt lat="43.14413" lon="5.72693">
        <ele>74.2</ele>
        <time>2021-12-01T09:31:32Z</time>
      </trkpt>
      <trkpt lat="43.14416" lon="5.72699">
        <ele>74.8</ele>
        <time>2021-12-01T09:31:38Z</time>
      </trkpt>
      <trkpt lat="43.14418" lon="5.72706">
        <ele>75.2</ele>
        <time>2021-12-01T09:31:46Z</time>
      </trkpt>
      <trkpt lat="43.14421" lon="5.72714">
        <ele>75.5</ele>
        <time>2021-12-01T09:31:52Z</time>
      </trkpt>
      <trkpt lat="43.14422" lon="5.72719">
        <ele>75.6</ele>
        <time>2021-12-01T09:31:56Z</time>
      </trkpt>
      <trkpt lat="43.14426" lon="5.72725">
        <ele>75.9</ele>
        <time>2021-12-01T09:32:00Z</time>
      </trkpt>
      <trkpt lat="43.14429" lon="5.72729">
        <ele>76.2</ele>
        <time>2021-12-01T09:32:04Z</time>
      </trkpt>
      <trkpt lat="43.14433" lon="5.72735">
        <ele>76.6</ele>
        <time>2021-12-01T09:32:10Z</time>
      </trkpt>
      <trkpt lat="43.14437" lon="5.72739">
        <ele>77</ele>
        <time>2021-12-01T09:32:14Z</time>
      </trkpt>
      <trkpt lat="43.14442" lon="5.72744">
        <ele>77.6</ele>
        <time>2021-12-01T09:32:20Z</time>
      </trkpt>
      <trkpt lat="43.14446" lon="5.72747">
        <ele>78.3</ele>
        <time>2021-12-01T09:32:24Z</time>
      </trkpt>
      <trkpt lat="43.1445" lon="5.72752">
        <ele>78.7</ele>
        <time>2021-12-01T09:32:30Z</time>
      </trkpt>
      <trkpt lat="43.14452" lon="5.7276">
        <ele>78.3</ele>
        <time>2021-12-01T09:32:38Z</time>
      </trkpt>
      <trkpt lat="43.14452" lon="5.72767">
        <ele>77.9</ele>
        <time>2021-12-01T09:32:44Z</time>
      </trkpt>
      <trkpt lat="43.14452" lon="5.72775">
        <ele>77.3</ele>
        <time>2021-12-01T09:32:54Z</time>
      </trkpt>
      <trkpt lat="43.14454" lon="5.72784">
        <ele>77</ele>
        <time>2021-12-01T09:33:00Z</time>
      </trkpt>
      <trkpt lat="43.14456" lon="5.7279">
        <ele>77</ele>
        <time>2021-12-01T09:33:04Z</time>
      </trkpt>
      <trkpt lat="43.14457" lon="5.72796">
        <ele>76.9</ele>
        <time>2021-12-01T09:33:10Z</time>
      </trkpt>
      <trkpt lat="43.14459" lon="5.72803">
        <ele>76.7</ele>
        <time>2021-12-01T09:33:16Z</time>
      </trkpt>
      <trkpt lat="43.1446" lon="5.72812">
        <ele>76</ele>
        <time>2021-12-01T09:33:22Z</time>
      </trkpt>
      <trkpt lat="43.14464" lon="5.72818">
        <ele>75.8</ele>
        <time>2021-12-01T09:33:26Z</time>
      </trkpt>
      <trkpt lat="43.14469" lon="5.72825">
        <ele>75.5</ele>
        <time>2021-12-01T09:33:30Z</time>
      </trkpt>
      <trkpt lat="43.14473" lon="5.7283">
        <ele>75.3</ele>
        <time>2021-12-01T09:33:34Z</time>
      </trkpt>
      <trkpt lat="43.14475" lon="5.72836">
        <ele>74.8</ele>
        <time>2021-12-01T09:33:40Z</time>
      </trkpt>
      <trkpt lat="43.14479" lon="5.7284">
        <ele>74.2</ele>
        <time>2021-12-01T09:33:48Z</time>
      </trkpt>
      <trkpt lat="43.14484" lon="5.72842">
        <ele>74.2</ele>
        <time>2021-12-01T09:33:52Z</time>
      </trkpt>
      <trkpt lat="43.1449" lon="5.72843">
        <ele>74.4</ele>
        <time>2021-12-01T09:33:56Z</time>
      </trkpt>
      <trkpt lat="43.14495" lon="5.72844">
        <ele>74.4</ele>
        <time>2021-12-01T09:34:00Z</time>
      </trkpt>
      <trkpt lat="43.145" lon="5.72846">
        <ele>74.4</ele>
        <time>2021-12-01T09:34:04Z</time>
      </trkpt>
      <trkpt lat="43.14505" lon="5.72847">
        <ele>74.1</ele>
        <time>2021-12-01T09:34:08Z</time>
      </trkpt>
      <trkpt lat="43.14511" lon="5.72848">
        <ele>73.8</ele>
        <time>2021-12-01T09:34:14Z</time>
      </trkpt>
      <trkpt lat="43.14516" lon="5.72848">
        <ele>73.8</ele>
        <time>2021-12-01T09:34:18Z</time>
      </trkpt>
      <trkpt lat="43.14522" lon="5.72847">
        <ele>74</ele>
        <time>2021-12-01T09:34:26Z</time>
      </trkpt>
      <trkpt lat="43.14527" lon="5.72846">
        <ele>74.2</ele>
        <time>2021-12-01T09:34:32Z</time>
      </trkpt>
      <trkpt lat="43.14533" lon="5.72843">
        <ele>74.3</ele>
        <time>2021-12-01T09:34:38Z</time>
      </trkpt>
      <trkpt lat="43.14539" lon="5.72841">
        <ele>74.2</ele>
        <time>2021-12-01T09:34:44Z</time>
      </trkpt>
      <trkpt lat="43.14544" lon="5.72839">
        <ele>73.9</ele>
        <time>2021-12-01T09:34:50Z</time>
      </trkpt>
      <trkpt lat="43.1455" lon="5.72839">
        <ele>73.4</ele>
        <time>2021-12-01T09:34:56Z</time>
      </trkpt>
      <trkpt lat="43.14556" lon="5.72839">
        <ele>72.8</ele>
        <time>2021-12-01T09:35:02Z</time>
      </trkpt>
      <trkpt lat="43.14563" lon="5.7284">
        <ele>71.8</ele>
        <time>2021-12-01T09:35:08Z</time>
      </trkpt>
      <trkpt lat="43.14568" lon="5.72838">
        <ele>71.6</ele>
        <time>2021-12-01T09:35:14Z</time>
      </trkpt>
      <trkpt lat="43.14574" lon="5.72837">
        <ele>71.2</ele>
        <time>2021-12-01T09:35:22Z</time>
      </trkpt>
      <trkpt lat="43.14579" lon="5.72837">
        <ele>70.5</ele>
        <time>2021-12-01T09:35:28Z</time>
      </trkpt>
      <trkpt lat="43.14585" lon="5.72837">
        <ele>69.7</ele>
        <time>2021-12-01T09:35:34Z</time>
      </trkpt>
      <trkpt lat="43.14592" lon="5.72837">
        <ele>68.9</ele>
        <time>2021-12-01T09:35:40Z</time>
      </trkpt>
      <trkpt lat="43.14598" lon="5.72836">
        <ele>68.2</ele>
        <time>2021-12-01T09:35:46Z</time>
      </trkpt>
      <trkpt lat="43.14604" lon="5.72835">
        <ele>67.6</ele>
        <time>2021-12-01T09:35:52Z</time>
      </trkpt>
      <trkpt lat="43.14609" lon="5.72836">
        <ele>66.7</ele>
        <time>2021-12-01T09:35:58Z</time>
      </trkpt>
      <trkpt lat="43.14615" lon="5.72837">
        <ele>65.6</ele>
        <time>2021-12-01T09:36:04Z</time>
      </trkpt>
      <trkpt lat="43.14619" lon="5.72837">
        <ele>64.9</ele>
        <time>2021-12-01T09:36:10Z</time>
      </trkpt>
      <trkpt lat="43.14624" lon="5.7284">
        <ele>63.7</ele>
        <time>2021-12-01T09:36:18Z</time>
      </trkpt>
      <trkpt lat="43.14629" lon="5.72842">
        <ele>62.4</ele>
        <time>2021-12-01T09:36:28Z</time>
      </trkpt>
      <trkpt lat="43.14634" lon="5.72846">
        <ele>60.9</ele>
        <time>2021-12-01T09:36:42Z</time>
      </trkpt>
      <trkpt lat="43.14638" lon="5.72852">
        <ele>58.6</ele>
        <time>2021-12-01T09:36:52Z</time>
      </trkpt>
      <trkpt lat="43.14642" lon="5.72856">
        <ele>57.4</ele>
        <time>2021-12-01T09:36:56Z</time>
      </trkpt>
      <trkpt lat="43.14645" lon="5.72866">
        <ele>56.7</ele>
        <time>2021-12-01T09:37:02Z</time>
      </trkpt>
      <trkpt lat="43.1465" lon="5.72871">
        <ele>57.4</ele>
        <time>2021-12-01T09:37:06Z</time>
      </trkpt>
      <trkpt lat="43.14656" lon="5.72875">
        <ele>57.8</ele>
        <time>2021-12-01T09:37:10Z</time>
      </trkpt>
      <trkpt lat="43.1466" lon="5.72877">
        <ele>58</ele>
        <time>2021-12-01T09:37:14Z</time>
      </trkpt>
      <trkpt lat="43.14666" lon="5.72879">
        <ele>58.3</ele>
        <time>2021-12-01T09:37:18Z</time>
      </trkpt>
      <trkpt lat="43.1467" lon="5.72879">
        <ele>58.7</ele>
        <time>2021-12-01T09:37:24Z</time>
      </trkpt>
      <trkpt lat="43.14667" lon="5.72884">
        <ele>58.7</ele>
        <time>2021-12-01T09:38:00Z</time>
      </trkpt>
      <trkpt lat="43.14673" lon="5.72887">
        <ele>59.4</ele>
        <time>2021-12-01T09:38:24Z</time>
      </trkpt>
      <trkpt lat="43.14677" lon="5.72891">
        <ele>60.2</ele>
        <time>2021-12-01T09:38:30Z</time>
      </trkpt>
      <trkpt lat="43.14683" lon="5.72893">
        <ele>60.9</ele>
        <time>2021-12-01T09:38:36Z</time>
      </trkpt>
      <trkpt lat="43.14689" lon="5.72893">
        <ele>61.3</ele>
        <time>2021-12-01T09:38:42Z</time>
      </trkpt>
      <trkpt lat="43.14694" lon="5.72897">
        <ele>61.8</ele>
        <time>2021-12-01T09:38:52Z</time>
      </trkpt>
      <trkpt lat="43.14699" lon="5.729">
        <ele>62.8</ele>
        <time>2021-12-01T09:38:58Z</time>
      </trkpt>
      <trkpt lat="43.14704" lon="5.72904">
        <ele>63.4</ele>
        <time>2021-12-01T09:39:04Z</time>
      </trkpt>
      <trkpt lat="43.14709" lon="5.72906">
        <ele>63.6</ele>
        <time>2021-12-01T09:39:08Z</time>
      </trkpt>
      <trkpt lat="43.14714" lon="5.72911">
        <ele>63.3</ele>
        <time>2021-12-01T09:39:14Z</time>
      </trkpt>
      <trkpt lat="43.14719" lon="5.72914">
        <ele>62.7</ele>
        <time>2021-12-01T09:39:20Z</time>
      </trkpt>
      <trkpt lat="43.14725" lon="5.72918">
        <ele>62.7</ele>
        <time>2021-12-01T09:39:26Z</time>
      </trkpt>
      <trkpt lat="43.14731" lon="5.72919">
        <ele>64.2</ele>
        <time>2021-12-01T09:39:36Z</time>
      </trkpt>
      <trkpt lat="43.14735" lon="5.7292">
        <ele>65.1</ele>
        <time>2021-12-01T09:39:40Z</time>
      </trkpt>
      <trkpt lat="43.1474" lon="5.72924">
        <ele>66</ele>
        <time>2021-12-01T09:39:44Z</time>
      </trkpt>
      <trkpt lat="43.14744" lon="5.72928">
        <ele>66.3</ele>
        <time>2021-12-01T09:39:50Z</time>
      </trkpt>
      <trkpt lat="43.14747" lon="5.72935">
        <ele>66.1</ele>
        <time>2021-12-01T09:39:56Z</time>
      </trkpt>
      <trkpt lat="43.1475" lon="5.72941">
        <ele>65.4</ele>
        <time>2021-12-01T09:40:00Z</time>
      </trkpt>
      <trkpt lat="43.14754" lon="5.72945">
        <ele>65.4</ele>
        <time>2021-12-01T09:40:06Z</time>
      </trkpt>
      <trkpt lat="43.14759" lon="5.72944">
        <ele>66</ele>
        <time>2021-12-01T09:40:12Z</time>
      </trkpt>
      <trkpt lat="43.14763" lon="5.72942">
        <ele>66.9</ele>
        <time>2021-12-01T09:40:20Z</time>
      </trkpt>
      <trkpt lat="43.1476" lon="5.72946">
        <ele>66.4</ele>
        <time>2021-12-01T09:40:56Z</time>
      </trkpt>
      <trkpt lat="43.14763" lon="5.72951">
        <ele>67.5</ele>
        <time>2021-12-01T09:41:38Z</time>
      </trkpt>
      <trkpt lat="43.14767" lon="5.72951">
        <ele>67.8</ele>
        <time>2021-12-01T09:41:48Z</time>
      </trkpt>
      <trkpt lat="43.14772" lon="5.72955">
        <ele>68.3</ele>
        <time>2021-12-01T09:41:56Z</time>
      </trkpt>
      <trkpt lat="43.14776" lon="5.7296">
        <ele>68.6</ele>
        <time>2021-12-01T09:42:06Z</time>
      </trkpt>
      <trkpt lat="43.14778" lon="5.72967">
        <ele>68.9</ele>
        <time>2021-12-01T09:42:14Z</time>
      </trkpt>
      <trkpt lat="43.14782" lon="5.72971">
        <ele>69.8</ele>
        <time>2021-12-01T09:42:20Z</time>
      </trkpt>
      <trkpt lat="43.14786" lon="5.72975">
        <ele>70.8</ele>
        <time>2021-12-01T09:42:26Z</time>
      </trkpt>
      <trkpt lat="43.14791" lon="5.7298">
        <ele>71.9</ele>
        <time>2021-12-01T09:42:32Z</time>
      </trkpt>
      <trkpt lat="43.14796" lon="5.72984">
        <ele>72.2</ele>
        <time>2021-12-01T09:42:38Z</time>
      </trkpt>
      <trkpt lat="43.148" lon="5.72989">
        <ele>71.9</ele>
        <time>2021-12-01T09:42:44Z</time>
      </trkpt>
      <trkpt lat="43.14804" lon="5.72992">
        <ele>71.3</ele>
        <time>2021-12-01T09:42:50Z</time>
      </trkpt>
      <trkpt lat="43.14807" lon="5.72998">
        <ele>70.9</ele>
        <time>2021-12-01T09:42:56Z</time>
      </trkpt>
      <trkpt lat="43.14809" lon="5.73004">
        <ele>71.7</ele>
        <time>2021-12-01T09:43:02Z</time>
      </trkpt>
      <trkpt lat="43.14811" lon="5.73011">
        <ele>73.2</ele>
        <time>2021-12-01T09:43:08Z</time>
      </trkpt>
      <trkpt lat="43.14814" lon="5.73017">
        <ele>74</ele>
        <time>2021-12-01T09:43:14Z</time>
      </trkpt>
      <trkpt lat="43.14818" lon="5.73022">
        <ele>74.2</ele>
        <time>2021-12-01T09:43:20Z</time>
      </trkpt>
      <trkpt lat="43.14822" lon="5.73025">
        <ele>73.7</ele>
        <time>2021-12-01T09:43:26Z</time>
      </trkpt>
      <trkpt lat="43.14826" lon="5.7303">
        <ele>73.4</ele>
        <time>2021-12-01T09:43:32Z</time>
      </trkpt>
      <trkpt lat="43.14829" lon="5.73034">
        <ele>73.6</ele>
        <time>2021-12-01T09:43:38Z</time>
      </trkpt>
      <trkpt lat="43.14833" lon="5.7304">
        <ele>73.9</ele>
        <time>2021-12-01T09:43:46Z</time>
      </trkpt>
      <trkpt lat="43.14833" lon="5.73048">
        <ele>75</ele>
        <time>2021-12-01T09:43:54Z</time>
      </trkpt>
      <trkpt lat="43.14833" lon="5.73055">
        <ele>76.1</ele>
        <time>2021-12-01T09:44:00Z</time>
      </trkpt>
      <trkpt lat="43.14834" lon="5.73061">
        <ele>76.6</ele>
        <time>2021-12-01T09:44:04Z</time>
      </trkpt>
      <trkpt lat="43.14835" lon="5.73067">
        <ele>77.4</ele>
        <time>2021-12-01T09:44:08Z</time>
      </trkpt>
      <trkpt lat="43.14836" lon="5.73076">
        <ele>78.2</ele>
        <time>2021-12-01T09:44:16Z</time>
      </trkpt>
      <trkpt lat="43.14837" lon="5.73084">
        <ele>78.9</ele>
        <time>2021-12-01T09:44:22Z</time>
      </trkpt>
      <trkpt lat="43.14838" lon="5.7309">
        <ele>79.4</ele>
        <time>2021-12-01T09:44:26Z</time>
      </trkpt>
      <trkpt lat="43.1484" lon="5.73097">
        <ele>79.7</ele>
        <time>2021-12-01T09:44:32Z</time>
      </trkpt>
      <trkpt lat="43.14841" lon="5.73103">
        <ele>80</ele>
        <time>2021-12-01T09:44:38Z</time>
      </trkpt>
      <trkpt lat="43.14844" lon="5.7311">
        <ele>80.1</ele>
        <time>2021-12-01T09:44:44Z</time>
      </trkpt>
      <trkpt lat="43.14845" lon="5.73117">
        <ele>80.6</ele>
        <time>2021-12-01T09:44:48Z</time>
      </trkpt>
      <trkpt lat="43.14848" lon="5.73125">
        <ele>80.8</ele>
        <time>2021-12-01T09:44:54Z</time>
      </trkpt>
      <trkpt lat="43.14851" lon="5.73132">
        <ele>80.7</ele>
        <time>2021-12-01T09:45:00Z</time>
      </trkpt>
      <trkpt lat="43.14855" lon="5.73136">
        <ele>79.7</ele>
        <time>2021-12-01T09:45:04Z</time>
      </trkpt>
      <trkpt lat="43.1486" lon="5.7314">
        <ele>78.4</ele>
        <time>2021-12-01T09:45:10Z</time>
      </trkpt>
      <trkpt lat="43.14863" lon="5.73146">
        <ele>79.5</ele>
        <time>2021-12-01T09:45:18Z</time>
      </trkpt>
      <trkpt lat="43.14865" lon="5.73152">
        <ele>80.6</ele>
        <time>2021-12-01T09:45:24Z</time>
      </trkpt>
      <trkpt lat="43.14867" lon="5.73158">
        <ele>81.4</ele>
        <time>2021-12-01T09:45:30Z</time>
      </trkpt>
      <trkpt lat="43.14868" lon="5.73164">
        <ele>82</ele>
        <time>2021-12-01T09:45:36Z</time>
      </trkpt>
      <trkpt lat="43.1487" lon="5.73173">
        <ele>82.6</ele>
        <time>2021-12-01T09:45:42Z</time>
      </trkpt>
      <trkpt lat="43.14874" lon="5.73178">
        <ele>82.7</ele>
        <time>2021-12-01T09:45:48Z</time>
      </trkpt>
      <trkpt lat="43.14877" lon="5.73184">
        <ele>82.9</ele>
        <time>2021-12-01T09:45:52Z</time>
      </trkpt>
      <trkpt lat="43.1488" lon="5.73189">
        <ele>82.7</ele>
        <time>2021-12-01T09:45:56Z</time>
      </trkpt>
      <trkpt lat="43.14885" lon="5.73193">
        <ele>82.5</ele>
        <time>2021-12-01T09:46:02Z</time>
      </trkpt>
      <trkpt lat="43.1489" lon="5.73199">
        <ele>82.8</ele>
        <time>2021-12-01T09:46:10Z</time>
      </trkpt>
      <trkpt lat="43.14894" lon="5.73203">
        <ele>83.7</ele>
        <time>2021-12-01T09:46:16Z</time>
      </trkpt>
      <trkpt lat="43.14898" lon="5.73209">
        <ele>84.5</ele>
        <time>2021-12-01T09:46:22Z</time>
      </trkpt>
      <trkpt lat="43.14902" lon="5.73214">
        <ele>85.4</ele>
        <time>2021-12-01T09:46:28Z</time>
      </trkpt>
      <trkpt lat="43.14907" lon="5.7322">
        <ele>86</ele>
        <time>2021-12-01T09:46:34Z</time>
      </trkpt>
      <trkpt lat="43.14911" lon="5.73222">
        <ele>86.1</ele>
        <time>2021-12-01T09:46:38Z</time>
      </trkpt>
      <trkpt lat="43.14916" lon="5.73224">
        <ele>86.5</ele>
        <time>2021-12-01T09:46:42Z</time>
      </trkpt>
      <trkpt lat="43.14921" lon="5.73226">
        <ele>87.2</ele>
        <time>2021-12-01T09:46:48Z</time>
      </trkpt>
      <trkpt lat="43.14926" lon="5.73229">
        <ele>87.9</ele>
        <time>2021-12-01T09:47:00Z</time>
      </trkpt>
      <trkpt lat="43.14932" lon="5.73229">
        <ele>87.9</ele>
        <time>2021-12-01T09:47:06Z</time>
      </trkpt>
      <trkpt lat="43.14937" lon="5.73229">
        <ele>88.1</ele>
        <time>2021-12-01T09:47:10Z</time>
      </trkpt>
      <trkpt lat="43.14943" lon="5.73229">
        <ele>88.1</ele>
        <time>2021-12-01T09:47:16Z</time>
      </trkpt>
      <trkpt lat="43.14948" lon="5.73229">
        <ele>88.3</ele>
        <time>2021-12-01T09:47:22Z</time>
      </trkpt>
      <trkpt lat="43.14954" lon="5.73228">
        <ele>88.4</ele>
        <time>2021-12-01T09:47:30Z</time>
      </trkpt>
      <trkpt lat="43.1496" lon="5.73231">
        <ele>89</ele>
        <time>2021-12-01T09:47:36Z</time>
      </trkpt>
      <trkpt lat="43.14964" lon="5.73236">
        <ele>89.5</ele>
        <time>2021-12-01T09:47:42Z</time>
      </trkpt>
      <trkpt lat="43.14966" lon="5.73243">
        <ele>90</ele>
        <time>2021-12-01T09:47:48Z</time>
      </trkpt>
      <trkpt lat="43.14968" lon="5.73251">
        <ele>90.4</ele>
        <time>2021-12-01T09:47:54Z</time>
      </trkpt>
      <trkpt lat="43.14969" lon="5.73257">
        <ele>90.8</ele>
        <time>2021-12-01T09:47:58Z</time>
      </trkpt>
      <trkpt lat="43.14971" lon="5.73264">
        <ele>91.2</ele>
        <time>2021-12-01T09:48:02Z</time>
      </trkpt>
      <trkpt lat="43.14972" lon="5.7327">
        <ele>91.4</ele>
        <time>2021-12-01T09:48:06Z</time>
      </trkpt>
      <trkpt lat="43.14974" lon="5.73276">
        <ele>92</ele>
        <time>2021-12-01T09:48:12Z</time>
      </trkpt>
      <trkpt lat="43.14974" lon="5.73283">
        <ele>92.8</ele>
        <time>2021-12-01T09:48:18Z</time>
      </trkpt>
      <trkpt lat="43.14976" lon="5.73291">
        <ele>93.9</ele>
        <time>2021-12-01T09:48:26Z</time>
      </trkpt>
      <trkpt lat="43.14976" lon="5.733">
        <ele>95</ele>
        <time>2021-12-01T09:48:32Z</time>
      </trkpt>
      <trkpt lat="43.14978" lon="5.73307">
        <ele>95.7</ele>
        <time>2021-12-01T09:48:38Z</time>
      </trkpt>
      <trkpt lat="43.14981" lon="5.73313">
        <ele>96</ele>
        <time>2021-12-01T09:48:44Z</time>
      </trkpt>
      <trkpt lat="43.14985" lon="5.73318">
        <ele>96</ele>
        <time>2021-12-01T09:48:50Z</time>
      </trkpt>
      <trkpt lat="43.14988" lon="5.73324">
        <ele>96.1</ele>
        <time>2021-12-01T09:48:58Z</time>
      </trkpt>
      <trkpt lat="43.14989" lon="5.7333">
        <ele>96.4</ele>
        <time>2021-12-01T09:49:04Z</time>
      </trkpt>
      <trkpt lat="43.14989" lon="5.73337">
        <ele>96.8</ele>
        <time>2021-12-01T09:49:10Z</time>
      </trkpt>
      <trkpt lat="43.1499" lon="5.73343">
        <ele>97</ele>
        <time>2021-12-01T09:49:16Z</time>
      </trkpt>
      <trkpt lat="43.14992" lon="5.73349">
        <ele>97.1</ele>
        <time>2021-12-01T09:49:22Z</time>
      </trkpt>
      <trkpt lat="43.14994" lon="5.73357">
        <ele>97</ele>
        <time>2021-12-01T09:49:28Z</time>
      </trkpt>
      <trkpt lat="43.14997" lon="5.73363">
        <ele>96.9</ele>
        <time>2021-12-01T09:49:32Z</time>
      </trkpt>
      <trkpt lat="43.15" lon="5.73369">
        <ele>97.5</ele>
        <time>2021-12-01T09:49:38Z</time>
      </trkpt>
      <trkpt lat="43.15003" lon="5.73375">
        <ele>98.7</ele>
        <time>2021-12-01T09:49:46Z</time>
      </trkpt>
      <trkpt lat="43.15008" lon="5.73378">
        <ele>99.5</ele>
        <time>2021-12-01T09:49:52Z</time>
      </trkpt>
      <trkpt lat="43.15014" lon="5.73382">
        <ele>100</ele>
        <time>2021-12-01T09:49:58Z</time>
      </trkpt>
      <trkpt lat="43.15018" lon="5.73384">
        <ele>100.2</ele>
        <time>2021-12-01T09:50:06Z</time>
      </trkpt>
      <trkpt lat="43.15024" lon="5.7339">
        <ele>100.3</ele>
        <time>2021-12-01T09:50:14Z</time>
      </trkpt>
      <trkpt lat="43.15029" lon="5.73391">
        <ele>100.5</ele>
        <time>2021-12-01T09:50:18Z</time>
      </trkpt>
      <trkpt lat="43.15034" lon="5.73393">
        <ele>101.5</ele>
        <time>2021-12-01T09:50:24Z</time>
      </trkpt>
      <trkpt lat="43.15038" lon="5.73396">
        <ele>102.5</ele>
        <time>2021-12-01T09:50:30Z</time>
      </trkpt>
      <trkpt lat="43.15042" lon="5.73399">
        <ele>103.2</ele>
        <time>2021-12-01T09:50:36Z</time>
      </trkpt>
      <trkpt lat="43.15048" lon="5.73402">
        <ele>103.7</ele>
        <time>2021-12-01T09:50:42Z</time>
      </trkpt>
      <trkpt lat="43.15052" lon="5.73404">
        <ele>103.9</ele>
        <time>2021-12-01T09:50:48Z</time>
      </trkpt>
      <trkpt lat="43.15056" lon="5.73408">
        <ele>104</ele>
        <time>2021-12-01T09:50:56Z</time>
      </trkpt>
      <trkpt lat="43.15061" lon="5.73413">
        <ele>104.2</ele>
        <time>2021-12-01T09:51:04Z</time>
      </trkpt>
      <trkpt lat="43.15066" lon="5.73417">
        <ele>104.4</ele>
        <time>2021-12-01T09:51:10Z</time>
      </trkpt>
      <trkpt lat="43.15069" lon="5.73421">
        <ele>105.1</ele>
        <time>2021-12-01T09:51:16Z</time>
      </trkpt>
      <trkpt lat="43.15073" lon="5.73425">
        <ele>105.7</ele>
        <time>2021-12-01T09:51:22Z</time>
      </trkpt>
      <trkpt lat="43.15076" lon="5.73432">
        <ele>106.4</ele>
        <time>2021-12-01T09:51:30Z</time>
      </trkpt>
      <trkpt lat="43.1508" lon="5.73438">
        <ele>106.8</ele>
        <time>2021-12-01T09:51:36Z</time>
      </trkpt>
      <trkpt lat="43.15085" lon="5.73441">
        <ele>106.8</ele>
        <time>2021-12-01T09:51:40Z</time>
      </trkpt>
      <trkpt lat="43.15092" lon="5.73444">
        <ele>107</ele>
        <time>2021-12-01T09:51:44Z</time>
      </trkpt>
      <trkpt lat="43.15097" lon="5.73448">
        <ele>107.6</ele>
        <time>2021-12-01T09:51:50Z</time>
      </trkpt>
      <trkpt lat="43.15102" lon="5.73451">
        <ele>107.9</ele>
        <time>2021-12-01T09:51:56Z</time>
      </trkpt>
      <trkpt lat="43.15106" lon="5.73457">
        <ele>108.3</ele>
        <time>2021-12-01T09:52:04Z</time>
      </trkpt>
      <trkpt lat="43.15109" lon="5.73462">
        <ele>108.5</ele>
        <time>2021-12-01T09:52:10Z</time>
      </trkpt>
      <trkpt lat="43.15114" lon="5.73468">
        <ele>108.8</ele>
        <time>2021-12-01T09:52:16Z</time>
      </trkpt>
      <trkpt lat="43.15117" lon="5.73473">
        <ele>109.4</ele>
        <time>2021-12-01T09:52:26Z</time>
      </trkpt>
      <trkpt lat="43.15123" lon="5.73474">
        <ele>109.8</ele>
        <time>2021-12-01T09:54:26Z</time>
      </trkpt>
      <trkpt lat="43.15129" lon="5.73476">
        <ele>110.3</ele>
        <time>2021-12-01T09:54:34Z</time>
      </trkpt>
      <trkpt lat="43.15133" lon="5.73481">
        <ele>111.1</ele>
        <time>2021-12-01T09:54:38Z</time>
      </trkpt>
      <trkpt lat="43.15136" lon="5.73485">
        <ele>111.5</ele>
        <time>2021-12-01T09:54:42Z</time>
      </trkpt>
      <trkpt lat="43.15139" lon="5.73491">
        <ele>112</ele>
        <time>2021-12-01T09:54:48Z</time>
      </trkpt>
      <trkpt lat="43.15144" lon="5.73493">
        <ele>112.8</ele>
        <time>2021-12-01T09:54:52Z</time>
      </trkpt>
      <trkpt lat="43.15149" lon="5.73495">
        <ele>113.5</ele>
        <time>2021-12-01T09:54:56Z</time>
      </trkpt>
      <trkpt lat="43.15155" lon="5.73497">
        <ele>114.4</ele>
        <time>2021-12-01T09:55:00Z</time>
      </trkpt>
      <trkpt lat="43.1516" lon="5.73496">
        <ele>115</ele>
        <time>2021-12-01T09:55:06Z</time>
      </trkpt>
      <trkpt lat="43.15167" lon="5.73496">
        <ele>115.7</ele>
        <time>2021-12-01T09:55:12Z</time>
      </trkpt>
      <trkpt lat="43.15172" lon="5.73494">
        <ele>116.5</ele>
        <time>2021-12-01T09:55:20Z</time>
      </trkpt>
      <trkpt lat="43.15176" lon="5.73491">
        <ele>117</ele>
        <time>2021-12-01T09:55:28Z</time>
      </trkpt>
      <trkpt lat="43.1518" lon="5.73486">
        <ele>117.2</ele>
        <time>2021-12-01T09:55:36Z</time>
      </trkpt>
      <trkpt lat="43.15185" lon="5.73486">
        <ele>117.8</ele>
        <time>2021-12-01T09:55:44Z</time>
      </trkpt>
      <trkpt lat="43.1519" lon="5.73482">
        <ele>118.1</ele>
        <time>2021-12-01T09:55:50Z</time>
      </trkpt>
      <trkpt lat="43.15193" lon="5.73478">
        <ele>117.9</ele>
        <time>2021-12-01T09:55:58Z</time>
      </trkpt>
      <trkpt lat="43.152" lon="5.73474">
        <ele>118.4</ele>
        <time>2021-12-01T09:56:04Z</time>
      </trkpt>
      <trkpt lat="43.15204" lon="5.73472">
        <ele>119.1</ele>
        <time>2021-12-01T09:56:08Z</time>
      </trkpt>
      <trkpt lat="43.15209" lon="5.7347">
        <ele>120</ele>
        <time>2021-12-01T09:56:12Z</time>
      </trkpt>
      <trkpt lat="43.15215" lon="5.73467">
        <ele>120.8</ele>
        <time>2021-12-01T09:56:16Z</time>
      </trkpt>
      <trkpt lat="43.1522" lon="5.73465">
        <ele>121.6</ele>
        <time>2021-12-01T09:56:20Z</time>
      </trkpt>
      <trkpt lat="43.15225" lon="5.73463">
        <ele>122.1</ele>
        <time>2021-12-01T09:56:24Z</time>
      </trkpt>
      <trkpt lat="43.15229" lon="5.73456">
        <ele>121.8</ele>
        <time>2021-12-01T09:56:44Z</time>
      </trkpt>
      <trkpt lat="43.15236" lon="5.73452">
        <ele>122.5</ele>
        <time>2021-12-01T09:56:50Z</time>
      </trkpt>
      <trkpt lat="43.15241" lon="5.73447">
        <ele>122.7</ele>
        <time>2021-12-01T09:56:54Z</time>
      </trkpt>
      <trkpt lat="43.15247" lon="5.73444">
        <ele>123.4</ele>
        <time>2021-12-01T09:56:58Z</time>
      </trkpt>
      <trkpt lat="43.15252" lon="5.73443">
        <ele>124</ele>
        <time>2021-12-01T09:57:02Z</time>
      </trkpt>
      <trkpt lat="43.15256" lon="5.73442">
        <ele>124.6</ele>
        <time>2021-12-01T09:57:06Z</time>
      </trkpt>
      <trkpt lat="43.15261" lon="5.7344">
        <ele>125</ele>
        <time>2021-12-01T09:57:10Z</time>
      </trkpt>
      <trkpt lat="43.15266" lon="5.73438">
        <ele>125.5</ele>
        <time>2021-12-01T09:57:14Z</time>
      </trkpt>
      <trkpt lat="43.15271" lon="5.73433">
        <ele>125.5</ele>
        <time>2021-12-01T09:57:22Z</time>
      </trkpt>
      <trkpt lat="43.15276" lon="5.73434">
        <ele>126.3</ele>
        <time>2021-12-01T09:57:26Z</time>
      </trkpt>
      <trkpt lat="43.15283" lon="5.73434">
        <ele>127.2</ele>
        <time>2021-12-01T09:57:32Z</time>
      </trkpt>
      <trkpt lat="43.15288" lon="5.73435">
        <ele>128</ele>
        <time>2021-12-01T09:57:38Z</time>
      </trkpt>
      <trkpt lat="43.15293" lon="5.73434">
        <ele>128.5</ele>
        <time>2021-12-01T09:57:46Z</time>
      </trkpt>
      <trkpt lat="43.15298" lon="5.73431">
        <ele>128.7</ele>
        <time>2021-12-01T09:58:06Z</time>
      </trkpt>
      <trkpt lat="43.15303" lon="5.73428">
        <ele>128.8</ele>
        <time>2021-12-01T09:58:10Z</time>
      </trkpt>
      <trkpt lat="43.15308" lon="5.73426">
        <ele>129</ele>
        <time>2021-12-01T09:58:14Z</time>
      </trkpt>
      <trkpt lat="43.15314" lon="5.73423">
        <ele>129.3</ele>
        <time>2021-12-01T09:58:18Z</time>
      </trkpt>
      <trkpt lat="43.1532" lon="5.73422">
        <ele>130</ele>
        <time>2021-12-01T09:58:22Z</time>
      </trkpt>
      <trkpt lat="43.15325" lon="5.73422">
        <ele>130.6</ele>
        <time>2021-12-01T09:58:26Z</time>
      </trkpt>
      <trkpt lat="43.1533" lon="5.73421">
        <ele>131.2</ele>
        <time>2021-12-01T09:58:30Z</time>
      </trkpt>
      <trkpt lat="43.15336" lon="5.7342">
        <ele>131.7</ele>
        <time>2021-12-01T09:58:34Z</time>
      </trkpt>
      <trkpt lat="43.15341" lon="5.7342">
        <ele>132.1</ele>
        <time>2021-12-01T09:58:38Z</time>
      </trkpt>
      <trkpt lat="43.15345" lon="5.73423">
        <ele>132.9</ele>
        <time>2021-12-01T09:58:44Z</time>
      </trkpt>
      <trkpt lat="43.15346" lon="5.73432">
        <ele>134.4</ele>
        <time>2021-12-01T09:58:52Z</time>
      </trkpt>
      <trkpt lat="43.15341" lon="5.73441">
        <ele>135.3</ele>
        <time>2021-12-01T09:58:58Z</time>
      </trkpt>
      <trkpt lat="43.15339" lon="5.73448">
        <ele>136.3</ele>
        <time>2021-12-01T09:59:06Z</time>
      </trkpt>
      <trkpt lat="43.15339" lon="5.73456">
        <ele>137.6</ele>
        <time>2021-12-01T09:59:14Z</time>
      </trkpt>
      <trkpt lat="43.15339" lon="5.73463">
        <ele>139</ele>
        <time>2021-12-01T09:59:22Z</time>
      </trkpt>
      <trkpt lat="43.15338" lon="5.7347">
        <ele>140.1</ele>
        <time>2021-12-01T09:59:30Z</time>
      </trkpt>
      <trkpt lat="43.15333" lon="5.73472">
        <ele>140</ele>
        <time>2021-12-01T09:59:38Z</time>
      </trkpt>
      <trkpt lat="43.15329" lon="5.73476">
        <ele>140.3</ele>
        <time>2021-12-01T09:59:52Z</time>
      </trkpt>
      <trkpt lat="43.15326" lon="5.73481">
        <ele>140.9</ele>
        <time>2021-12-01T10:00:02Z</time>
      </trkpt>
      <trkpt lat="43.15321" lon="5.73485">
        <ele>141.1</ele>
        <time>2021-12-01T10:00:08Z</time>
      </trkpt>
      <trkpt lat="43.15317" lon="5.73489">
        <ele>141.5</ele>
        <time>2021-12-01T10:00:12Z</time>
      </trkpt>
      <trkpt lat="43.15313" lon="5.73493">
        <ele>141.8</ele>
        <time>2021-12-01T10:00:18Z</time>
      </trkpt>
      <trkpt lat="43.15307" lon="5.73497">
        <ele>141.7</ele>
        <time>2021-12-01T10:00:24Z</time>
      </trkpt>
      <trkpt lat="43.15304" lon="5.735">
        <ele>141.7</ele>
        <time>2021-12-01T10:00:28Z</time>
      </trkpt>
      <trkpt lat="43.15298" lon="5.73504">
        <ele>141.8</ele>
        <time>2021-12-01T10:00:34Z</time>
      </trkpt>
      <trkpt lat="43.15293" lon="5.73508">
        <ele>141.9</ele>
        <time>2021-12-01T10:00:40Z</time>
      </trkpt>
      <trkpt lat="43.15289" lon="5.73515">
        <ele>142.4</ele>
        <time>2021-12-01T10:00:46Z</time>
      </trkpt>
      <trkpt lat="43.15283" lon="5.7352">
        <ele>142.5</ele>
        <time>2021-12-01T10:00:52Z</time>
      </trkpt>
      <trkpt lat="43.15278" lon="5.73524">
        <ele>142.4</ele>
        <time>2021-12-01T10:00:58Z</time>
      </trkpt>
      <trkpt lat="43.15273" lon="5.73529">
        <ele>142.3</ele>
        <time>2021-12-01T10:01:04Z</time>
      </trkpt>
      <trkpt lat="43.15268" lon="5.73533">
        <ele>142.1</ele>
        <time>2021-12-01T10:01:10Z</time>
      </trkpt>
      <trkpt lat="43.15263" lon="5.73537">
        <ele>141.9</ele>
        <time>2021-12-01T10:01:16Z</time>
      </trkpt>
      <trkpt lat="43.1526" lon="5.73542">
        <ele>142</ele>
        <time>2021-12-01T10:01:20Z</time>
      </trkpt>
      <trkpt lat="43.15255" lon="5.73549">
        <ele>142.2</ele>
        <time>2021-12-01T10:01:26Z</time>
      </trkpt>
      <trkpt lat="43.15252" lon="5.73554">
        <ele>142.2</ele>
        <time>2021-12-01T10:01:30Z</time>
      </trkpt>
      <trkpt lat="43.15249" lon="5.73559">
        <ele>142.2</ele>
        <time>2021-12-01T10:01:36Z</time>
      </trkpt>
      <trkpt lat="43.15246" lon="5.73565">
        <ele>142.5</ele>
        <time>2021-12-01T10:01:42Z</time>
      </trkpt>
      <trkpt lat="43.15241" lon="5.73571">
        <ele>142.7</ele>
        <time>2021-12-01T10:01:48Z</time>
      </trkpt>
      <trkpt lat="43.15237" lon="5.73578">
        <ele>142.9</ele>
        <time>2021-12-01T10:01:54Z</time>
      </trkpt>
      <trkpt lat="43.15233" lon="5.73584">
        <ele>143</ele>
        <time>2021-12-01T10:02:00Z</time>
      </trkpt>
      <trkpt lat="43.15229" lon="5.73591">
        <ele>143.3</ele>
        <time>2021-12-01T10:02:06Z</time>
      </trkpt>
      <trkpt lat="43.15226" lon="5.73598">
        <ele>143.9</ele>
        <time>2021-12-01T10:02:12Z</time>
      </trkpt>
      <trkpt lat="43.15223" lon="5.73604">
        <ele>144.2</ele>
        <time>2021-12-01T10:02:18Z</time>
      </trkpt>
      <trkpt lat="43.1522" lon="5.7361">
        <ele>144.5</ele>
        <time>2021-12-01T10:02:24Z</time>
      </trkpt>
      <trkpt lat="43.15217" lon="5.73615">
        <ele>144.9</ele>
        <time>2021-12-01T10:02:30Z</time>
      </trkpt>
      <trkpt lat="43.15214" lon="5.7362">
        <ele>145.3</ele>
        <time>2021-12-01T10:02:36Z</time>
      </trkpt>
      <trkpt lat="43.15211" lon="5.73626">
        <ele>145.8</ele>
        <time>2021-12-01T10:02:42Z</time>
      </trkpt>
      <trkpt lat="43.15207" lon="5.73634">
        <ele>146.5</ele>
        <time>2021-12-01T10:02:48Z</time>
      </trkpt>
      <trkpt lat="43.15205" lon="5.73639">
        <ele>147.1</ele>
        <time>2021-12-01T10:02:52Z</time>
      </trkpt>
      <trkpt lat="43.15201" lon="5.73645">
        <ele>146.9</ele>
        <time>2021-12-01T10:02:58Z</time>
      </trkpt>
      <trkpt lat="43.15198" lon="5.73652">
        <ele>146.8</ele>
        <time>2021-12-01T10:03:04Z</time>
      </trkpt>
      <trkpt lat="43.15194" lon="5.73659">
        <ele>146.7</ele>
        <time>2021-12-01T10:03:10Z</time>
      </trkpt>
      <trkpt lat="43.15191" lon="5.73665">
        <ele>146.8</ele>
        <time>2021-12-01T10:03:14Z</time>
      </trkpt>
      <trkpt lat="43.15189" lon="5.73672">
        <ele>146.7</ele>
        <time>2021-12-01T10:03:20Z</time>
      </trkpt>
      <trkpt lat="43.15193" lon="5.73668">
        <ele>146.9</ele>
        <time>2021-12-01T10:04:46Z</time>
      </trkpt>
      <trkpt lat="43.15197" lon="5.7367">
        <ele>147.1</ele>
        <time>2021-12-01T10:04:50Z</time>
      </trkpt>
      <trkpt lat="43.15202" lon="5.73671">
        <ele>147.4</ele>
        <time>2021-12-01T10:04:56Z</time>
      </trkpt>
      <trkpt lat="43.15202" lon="5.73678">
        <ele>147.1</ele>
        <time>2021-12-01T10:05:44Z</time>
      </trkpt>
      <trkpt lat="43.15198" lon="5.73677">
        <ele>146.8</ele>
        <time>2021-12-01T10:07:20Z</time>
      </trkpt>
      <trkpt lat="43.15193" lon="5.73679">
        <ele>146.6</ele>
        <time>2021-12-01T10:07:28Z</time>
      </trkpt>
      <trkpt lat="43.15189" lon="5.73679">
        <ele>146.5</ele>
        <time>2021-12-01T10:07:38Z</time>
      </trkpt>
      <trkpt lat="43.15188" lon="5.73673">
        <ele>146.7</ele>
        <time>2021-12-01T10:11:24Z</time>
      </trkpt>
      <trkpt lat="43.15185" lon="5.73677">
        <ele>146.5</ele>
        <time>2021-12-01T10:15:28Z</time>
      </trkpt>
      <trkpt lat="43.1518" lon="5.73678">
        <ele>146.5</ele>
        <time>2021-12-01T10:15:34Z</time>
      </trkpt>
      <trkpt lat="43.15175" lon="5.73677">
        <ele>146.4</ele>
        <time>2021-12-01T10:15:38Z</time>
      </trkpt>
      <trkpt lat="43.15169" lon="5.73676">
        <ele>146.4</ele>
        <time>2021-12-01T10:15:44Z</time>
      </trkpt>
      <trkpt lat="43.15163" lon="5.73676">
        <ele>146.5</ele>
        <time>2021-12-01T10:15:50Z</time>
      </trkpt>
      <trkpt lat="43.15157" lon="5.73677">
        <ele>146.7</ele>
        <time>2021-12-01T10:15:56Z</time>
      </trkpt>
      <trkpt lat="43.1515" lon="5.73679">
        <ele>147</ele>
        <time>2021-12-01T10:16:02Z</time>
      </trkpt>
      <trkpt lat="43.15143" lon="5.73678">
        <ele>147.2</ele>
        <time>2021-12-01T10:16:08Z</time>
      </trkpt>
      <trkpt lat="43.15138" lon="5.73676">
        <ele>147.4</ele>
        <time>2021-12-01T10:16:14Z</time>
      </trkpt>
      <trkpt lat="43.15133" lon="5.73674">
        <ele>147.5</ele>
        <time>2021-12-01T10:16:20Z</time>
      </trkpt>
      <trkpt lat="43.15127" lon="5.73673">
        <ele>147.7</ele>
        <time>2021-12-01T10:16:26Z</time>
      </trkpt>
      <trkpt lat="43.15122" lon="5.73671">
        <ele>147.8</ele>
        <time>2021-12-01T10:16:30Z</time>
      </trkpt>
      <trkpt lat="43.15115" lon="5.7367">
        <ele>147.9</ele>
        <time>2021-12-01T10:16:36Z</time>
      </trkpt>
      <trkpt lat="43.1511" lon="5.73668">
        <ele>148.1</ele>
        <time>2021-12-01T10:16:40Z</time>
      </trkpt>
      <trkpt lat="43.15104" lon="5.73667">
        <ele>148.3</ele>
        <time>2021-12-01T10:16:44Z</time>
      </trkpt>
      <trkpt lat="43.15098" lon="5.73666">
        <ele>148.4</ele>
        <time>2021-12-01T10:16:50Z</time>
      </trkpt>
      <trkpt lat="43.15092" lon="5.73664">
        <ele>148.4</ele>
        <time>2021-12-01T10:16:56Z</time>
      </trkpt>
      <trkpt lat="43.15086" lon="5.7366">
        <ele>148.4</ele>
        <time>2021-12-01T10:17:02Z</time>
      </trkpt>
      <trkpt lat="43.15082" lon="5.73657">
        <ele>148.3</ele>
        <time>2021-12-01T10:17:06Z</time>
      </trkpt>
      <trkpt lat="43.15077" lon="5.73655">
        <ele>148.2</ele>
        <time>2021-12-01T10:17:12Z</time>
      </trkpt>
      <trkpt lat="43.15072" lon="5.7365">
        <ele>148</ele>
        <time>2021-12-01T10:17:18Z</time>
      </trkpt>
      <trkpt lat="43.15066" lon="5.73646">
        <ele>148</ele>
        <time>2021-12-01T10:17:24Z</time>
      </trkpt>
      <trkpt lat="43.15061" lon="5.73643">
        <ele>148</ele>
        <time>2021-12-01T10:17:30Z</time>
      </trkpt>
      <trkpt lat="43.15055" lon="5.73639">
        <ele>148</ele>
        <time>2021-12-01T10:17:36Z</time>
      </trkpt>
      <trkpt lat="43.1505" lon="5.73637">
        <ele>147.9</ele>
        <time>2021-12-01T10:17:40Z</time>
      </trkpt>
      <trkpt lat="43.15045" lon="5.73636">
        <ele>147.9</ele>
        <time>2021-12-01T10:17:46Z</time>
      </trkpt>
      <trkpt lat="43.15039" lon="5.73636">
        <ele>147.9</ele>
        <time>2021-12-01T10:17:52Z</time>
      </trkpt>
      <trkpt lat="43.15033" lon="5.73638">
        <ele>147.9</ele>
        <time>2021-12-01T10:17:58Z</time>
      </trkpt>
      <trkpt lat="43.15028" lon="5.7364">
        <ele>148</ele>
        <time>2021-12-01T10:18:02Z</time>
      </trkpt>
      <trkpt lat="43.15023" lon="5.73643">
        <ele>147.8</ele>
        <time>2021-12-01T10:18:06Z</time>
      </trkpt>
      <trkpt lat="43.15018" lon="5.73644">
        <ele>147.6</ele>
        <time>2021-12-01T10:18:10Z</time>
      </trkpt>
      <trkpt lat="43.15014" lon="5.73646">
        <ele>147.4</ele>
        <time>2021-12-01T10:18:14Z</time>
      </trkpt>
      <trkpt lat="43.15009" lon="5.73647">
        <ele>147.1</ele>
        <time>2021-12-01T10:18:18Z</time>
      </trkpt>
      <trkpt lat="43.15004" lon="5.73646">
        <ele>146.9</ele>
        <time>2021-12-01T10:18:22Z</time>
      </trkpt>
      <trkpt lat="43.15" lon="5.73646">
        <ele>146.7</ele>
        <time>2021-12-01T10:18:26Z</time>
      </trkpt>
      <trkpt lat="43.14994" lon="5.73645">
        <ele>146.5</ele>
        <time>2021-12-01T10:18:32Z</time>
      </trkpt>
      <trkpt lat="43.14987" lon="5.73644">
        <ele>146.3</ele>
        <time>2021-12-01T10:18:38Z</time>
      </trkpt>
      <trkpt lat="43.14981" lon="5.73643">
        <ele>146.2</ele>
        <time>2021-12-01T10:18:44Z</time>
      </trkpt>
      <trkpt lat="43.14976" lon="5.73644">
        <ele>145.9</ele>
        <time>2021-12-01T10:18:48Z</time>
      </trkpt>
      <trkpt lat="43.14972" lon="5.73645">
        <ele>145.8</ele>
        <time>2021-12-01T10:18:52Z</time>
      </trkpt>
      <trkpt lat="43.14967" lon="5.73644">
        <ele>146</ele>
        <time>2021-12-01T10:18:56Z</time>
      </trkpt>
      <trkpt lat="43.1496" lon="5.73643">
        <ele>146.3</ele>
        <time>2021-12-01T10:19:02Z</time>
      </trkpt>
      <trkpt lat="43.14956" lon="5.73643">
        <ele>146.4</ele>
        <time>2021-12-01T10:19:06Z</time>
      </trkpt>
      <trkpt lat="43.1495" lon="5.73644">
        <ele>146.6</ele>
        <time>2021-12-01T10:19:12Z</time>
      </trkpt>
      <trkpt lat="43.14945" lon="5.73643">
        <ele>146.8</ele>
        <time>2021-12-01T10:19:16Z</time>
      </trkpt>
      <trkpt lat="43.14939" lon="5.73641">
        <ele>147.8</ele>
        <time>2021-12-01T10:19:22Z</time>
      </trkpt>
      <trkpt lat="43.14932" lon="5.73637">
        <ele>148.8</ele>
        <time>2021-12-01T10:19:28Z</time>
      </trkpt>
      <trkpt lat="43.14928" lon="5.73631">
        <ele>149.3</ele>
        <time>2021-12-01T10:19:34Z</time>
      </trkpt>
      <trkpt lat="43.14923" lon="5.73626">
        <ele>149.9</ele>
        <time>2021-12-01T10:19:40Z</time>
      </trkpt>
      <trkpt lat="43.14918" lon="5.73623">
        <ele>150.3</ele>
        <time>2021-12-01T10:19:44Z</time>
      </trkpt>
      <trkpt lat="43.14913" lon="5.73618">
        <ele>150.8</ele>
        <time>2021-12-01T10:19:50Z</time>
      </trkpt>
      <trkpt lat="43.14909" lon="5.73615">
        <ele>151.3</ele>
        <time>2021-12-01T10:19:54Z</time>
      </trkpt>
      <trkpt lat="43.14905" lon="5.73611">
        <ele>151.7</ele>
        <time>2021-12-01T10:19:58Z</time>
      </trkpt>
      <trkpt lat="43.14901" lon="5.73609">
        <ele>152.1</ele>
        <time>2021-12-01T10:20:02Z</time>
      </trkpt>
      <trkpt lat="43.14897" lon="5.73606">
        <ele>152.4</ele>
        <time>2021-12-01T10:20:06Z</time>
      </trkpt>
      <trkpt lat="43.14892" lon="5.73601">
        <ele>152.5</ele>
        <time>2021-12-01T10:20:12Z</time>
      </trkpt>
      <trkpt lat="43.14886" lon="5.73597">
        <ele>152.8</ele>
        <time>2021-12-01T10:20:18Z</time>
      </trkpt>
      <trkpt lat="43.14881" lon="5.73593">
        <ele>153.2</ele>
        <time>2021-12-01T10:20:24Z</time>
      </trkpt>
      <trkpt lat="43.14875" lon="5.73589">
        <ele>153.5</ele>
        <time>2021-12-01T10:20:30Z</time>
      </trkpt>
      <trkpt lat="43.1487" lon="5.73585">
        <ele>153.9</ele>
        <time>2021-12-01T10:20:36Z</time>
      </trkpt>
      <trkpt lat="43.14864" lon="5.73581">
        <ele>154.3</ele>
        <time>2021-12-01T10:20:42Z</time>
      </trkpt>
      <trkpt lat="43.14859" lon="5.73576">
        <ele>154.5</ele>
        <time>2021-12-01T10:20:48Z</time>
      </trkpt>
      <trkpt lat="43.14854" lon="5.73572">
        <ele>154.7</ele>
        <time>2021-12-01T10:20:54Z</time>
      </trkpt>
      <trkpt lat="43.14849" lon="5.73568">
        <ele>154.9</ele>
        <time>2021-12-01T10:21:00Z</time>
      </trkpt>
      <trkpt lat="43.14844" lon="5.73564">
        <ele>155.1</ele>
        <time>2021-12-01T10:21:06Z</time>
      </trkpt>
      <trkpt lat="43.14839" lon="5.73559">
        <ele>155.4</ele>
        <time>2021-12-01T10:21:12Z</time>
      </trkpt>
      <trkpt lat="43.14834" lon="5.73553">
        <ele>155.6</ele>
        <time>2021-12-01T10:21:18Z</time>
      </trkpt>
      <trkpt lat="43.14829" lon="5.7355">
        <ele>155.5</ele>
        <time>2021-12-01T10:21:24Z</time>
      </trkpt>
      <trkpt lat="43.14824" lon="5.73545">
        <ele>155.2</ele>
        <time>2021-12-01T10:21:30Z</time>
      </trkpt>
      <trkpt lat="43.1482" lon="5.7354">
        <ele>154.8</ele>
        <time>2021-12-01T10:21:36Z</time>
      </trkpt>
      <trkpt lat="43.14816" lon="5.73536">
        <ele>154.6</ele>
        <time>2021-12-01T10:21:44Z</time>
      </trkpt>
      <trkpt lat="43.14811" lon="5.73533">
        <ele>154.4</ele>
        <time>2021-12-01T10:22:48Z</time>
      </trkpt>
      <trkpt lat="43.14807" lon="5.73529">
        <ele>154.1</ele>
        <time>2021-12-01T10:22:54Z</time>
      </trkpt>
      <trkpt lat="43.14803" lon="5.73524">
        <ele>153.4</ele>
        <time>2021-12-01T10:23:00Z</time>
      </trkpt>
      <trkpt lat="43.14798" lon="5.73519">
        <ele>152.5</ele>
        <time>2021-12-01T10:23:06Z</time>
      </trkpt>
      <trkpt lat="43.14794" lon="5.73513">
        <ele>151.7</ele>
        <time>2021-12-01T10:23:12Z</time>
      </trkpt>
      <trkpt lat="43.14789" lon="5.73509">
        <ele>151.1</ele>
        <time>2021-12-01T10:23:18Z</time>
      </trkpt>
      <trkpt lat="43.14785" lon="5.73504">
        <ele>150.4</ele>
        <time>2021-12-01T10:23:24Z</time>
      </trkpt>
      <trkpt lat="43.1478" lon="5.735">
        <ele>149.9</ele>
        <time>2021-12-01T10:23:30Z</time>
      </trkpt>
      <trkpt lat="43.14776" lon="5.73496">
        <ele>149.4</ele>
        <time>2021-12-01T10:23:36Z</time>
      </trkpt>
      <trkpt lat="43.1477" lon="5.73493">
        <ele>148.8</ele>
        <time>2021-12-01T10:23:42Z</time>
      </trkpt>
      <trkpt lat="43.14764" lon="5.7349">
        <ele>148.4</ele>
        <time>2021-12-01T10:23:48Z</time>
      </trkpt>
      <trkpt lat="43.14759" lon="5.73486">
        <ele>148</ele>
        <time>2021-12-01T10:23:54Z</time>
      </trkpt>
      <trkpt lat="43.14753" lon="5.73482">
        <ele>147.7</ele>
        <time>2021-12-01T10:24:00Z</time>
      </trkpt>
      <trkpt lat="43.14748" lon="5.73478">
        <ele>147.4</ele>
        <time>2021-12-01T10:24:06Z</time>
      </trkpt>
      <trkpt lat="43.14743" lon="5.73474">
        <ele>147.1</ele>
        <time>2021-12-01T10:24:12Z</time>
      </trkpt>
      <trkpt lat="43.14739" lon="5.7347">
        <ele>146.8</ele>
        <time>2021-12-01T10:24:18Z</time>
      </trkpt>
      <trkpt lat="43.14734" lon="5.73465">
        <ele>146.5</ele>
        <time>2021-12-01T10:24:24Z</time>
      </trkpt>
      <trkpt lat="43.14729" lon="5.73461">
        <ele>146.4</ele>
        <time>2021-12-01T10:24:30Z</time>
      </trkpt>
      <trkpt lat="43.14725" lon="5.73457">
        <ele>146.4</ele>
        <time>2021-12-01T10:24:36Z</time>
      </trkpt>
      <trkpt lat="43.14721" lon="5.73452">
        <ele>146.2</ele>
        <time>2021-12-01T10:24:42Z</time>
      </trkpt>
      <trkpt lat="43.14717" lon="5.73446">
        <ele>146</ele>
        <time>2021-12-01T10:24:48Z</time>
      </trkpt>
      <trkpt lat="43.14714" lon="5.7344">
        <ele>145.7</ele>
        <time>2021-12-01T10:24:54Z</time>
      </trkpt>
      <trkpt lat="43.1471" lon="5.73434">
        <ele>145.4</ele>
        <time>2021-12-01T10:25:00Z</time>
      </trkpt>
      <trkpt lat="43.14705" lon="5.73428">
        <ele>145.2</ele>
        <time>2021-12-01T10:25:06Z</time>
      </trkpt>
      <trkpt lat="43.14701" lon="5.73422">
        <ele>145</ele>
        <time>2021-12-01T10:25:12Z</time>
      </trkpt>
      <trkpt lat="43.14697" lon="5.73415">
        <ele>144.8</ele>
        <time>2021-12-01T10:25:18Z</time>
      </trkpt>
      <trkpt lat="43.14694" lon="5.7341">
        <ele>144.8</ele>
        <time>2021-12-01T10:25:22Z</time>
      </trkpt>
      <trkpt lat="43.14691" lon="5.73403">
        <ele>144.3</ele>
        <time>2021-12-01T10:25:28Z</time>
      </trkpt>
      <trkpt lat="43.14689" lon="5.73394">
        <ele>144</ele>
        <time>2021-12-01T10:25:34Z</time>
      </trkpt>
      <trkpt lat="43.14687" lon="5.73388">
        <ele>143.7</ele>
        <time>2021-12-01T10:25:38Z</time>
      </trkpt>
      <trkpt lat="43.14686" lon="5.7338">
        <ele>143.5</ele>
        <time>2021-12-01T10:25:44Z</time>
      </trkpt>
      <trkpt lat="43.14685" lon="5.7337">
        <ele>143.2</ele>
        <time>2021-12-01T10:25:50Z</time>
      </trkpt>
      <trkpt lat="43.14683" lon="5.73362">
        <ele>143</ele>
        <time>2021-12-01T10:25:56Z</time>
      </trkpt>
      <trkpt lat="43.14682" lon="5.73352">
        <ele>143.3</ele>
        <time>2021-12-01T10:26:02Z</time>
      </trkpt>
      <trkpt lat="43.14681" lon="5.73346">
        <ele>143.5</ele>
        <time>2021-12-01T10:26:06Z</time>
      </trkpt>
      <trkpt lat="43.1468" lon="5.7334">
        <ele>143.8</ele>
        <time>2021-12-01T10:26:10Z</time>
      </trkpt>
      <trkpt lat="43.14679" lon="5.73333">
        <ele>144</ele>
        <time>2021-12-01T10:26:14Z</time>
      </trkpt>
      <trkpt lat="43.14678" lon="5.73325">
        <ele>144.3</ele>
        <time>2021-12-01T10:26:20Z</time>
      </trkpt>
      <trkpt lat="43.14676" lon="5.73318">
        <ele>144.7</ele>
        <time>2021-12-01T10:26:26Z</time>
      </trkpt>
      <trkpt lat="43.14675" lon="5.73312">
        <ele>145.1</ele>
        <time>2021-12-01T10:26:30Z</time>
      </trkpt>
      <trkpt lat="43.14674" lon="5.73304">
        <ele>145.5</ele>
        <time>2021-12-01T10:26:36Z</time>
      </trkpt>
      <trkpt lat="43.14672" lon="5.73298">
        <ele>145.8</ele>
        <time>2021-12-01T10:26:40Z</time>
      </trkpt>
      <trkpt lat="43.1467" lon="5.73291">
        <ele>146.3</ele>
        <time>2021-12-01T10:26:46Z</time>
      </trkpt>
      <trkpt lat="43.14667" lon="5.73285">
        <ele>146.7</ele>
        <time>2021-12-01T10:26:50Z</time>
      </trkpt>
      <trkpt lat="43.14663" lon="5.73281">
        <ele>147</ele>
        <time>2021-12-01T10:26:54Z</time>
      </trkpt>
      <trkpt lat="43.14657" lon="5.73277">
        <ele>147.2</ele>
        <time>2021-12-01T10:27:00Z</time>
      </trkpt>
      <trkpt lat="43.14652" lon="5.73276">
        <ele>147.3</ele>
        <time>2021-12-01T10:27:04Z</time>
      </trkpt>
      <trkpt lat="43.14647" lon="5.73275">
        <ele>147.3</ele>
        <time>2021-12-01T10:27:08Z</time>
      </trkpt>
      <trkpt lat="43.14643" lon="5.73276">
        <ele>147.6</ele>
        <time>2021-12-01T10:27:12Z</time>
      </trkpt>
      <trkpt lat="43.14638" lon="5.73278">
        <ele>147.9</ele>
        <time>2021-12-01T10:27:16Z</time>
      </trkpt>
      <trkpt lat="43.14633" lon="5.73279">
        <ele>147.5</ele>
        <time>2021-12-01T10:27:20Z</time>
      </trkpt>
      <trkpt lat="43.14627" lon="5.73279">
        <ele>147</ele>
        <time>2021-12-01T10:27:26Z</time>
      </trkpt>
      <trkpt lat="43.14622" lon="5.73279">
        <ele>146.7</ele>
        <time>2021-12-01T10:27:32Z</time>
      </trkpt>
      <trkpt lat="43.14617" lon="5.73283">
        <ele>146</ele>
        <time>2021-12-01T10:27:40Z</time>
      </trkpt>
      <trkpt lat="43.14612" lon="5.73281">
        <ele>145.7</ele>
        <time>2021-12-01T10:30:18Z</time>
      </trkpt>
      <trkpt lat="43.14607" lon="5.73282">
        <ele>144.8</ele>
        <time>2021-12-01T10:30:26Z</time>
      </trkpt>
      <trkpt lat="43.14603" lon="5.73283">
        <ele>143.7</ele>
        <time>2021-12-01T10:30:54Z</time>
      </trkpt>
      <trkpt lat="43.14597" lon="5.73284">
        <ele>142.5</ele>
        <time>2021-12-01T10:31:00Z</time>
      </trkpt>
      <trkpt lat="43.14592" lon="5.73284">
        <ele>141.4</ele>
        <time>2021-12-01T10:31:08Z</time>
      </trkpt>
      <trkpt lat="43.14587" lon="5.73284">
        <ele>140.4</ele>
        <time>2021-12-01T10:31:14Z</time>
      </trkpt>
      <trkpt lat="43.14582" lon="5.73284">
        <ele>139.3</ele>
        <time>2021-12-01T10:31:20Z</time>
      </trkpt>
      <trkpt lat="43.14576" lon="5.73284">
        <ele>138.2</ele>
        <time>2021-12-01T10:31:26Z</time>
      </trkpt>
      <trkpt lat="43.14571" lon="5.73282">
        <ele>137.4</ele>
        <time>2021-12-01T10:31:32Z</time>
      </trkpt>
      <trkpt lat="43.14566" lon="5.7328">
        <ele>136.6</ele>
        <time>2021-12-01T10:31:38Z</time>
      </trkpt>
      <trkpt lat="43.14562" lon="5.73276">
        <ele>136</ele>
        <time>2021-12-01T10:31:44Z</time>
      </trkpt>
      <trkpt lat="43.14556" lon="5.73272">
        <ele>134.7</ele>
        <time>2021-12-01T10:31:52Z</time>
      </trkpt>
      <trkpt lat="43.14551" lon="5.73269">
        <ele>133.6</ele>
        <time>2021-12-01T10:31:58Z</time>
      </trkpt>
      <trkpt lat="43.14546" lon="5.73265">
        <ele>132.5</ele>
        <time>2021-12-01T10:32:06Z</time>
      </trkpt>
      <trkpt lat="43.14541" lon="5.73262">
        <ele>131.5</ele>
        <time>2021-12-01T10:32:12Z</time>
      </trkpt>
      <trkpt lat="43.14536" lon="5.73259">
        <ele>130.6</ele>
        <time>2021-12-01T10:32:18Z</time>
      </trkpt>
      <trkpt lat="43.14532" lon="5.73257">
        <ele>129.9</ele>
        <time>2021-12-01T10:32:24Z</time>
      </trkpt>
      <trkpt lat="43.14527" lon="5.73254">
        <ele>129.1</ele>
        <time>2021-12-01T10:32:32Z</time>
      </trkpt>
      <trkpt lat="43.14523" lon="5.73251">
        <ele>128.4</ele>
        <time>2021-12-01T10:32:38Z</time>
      </trkpt>
      <trkpt lat="43.14518" lon="5.73248">
        <ele>127.3</ele>
        <time>2021-12-01T10:32:44Z</time>
      </trkpt>
      <trkpt lat="43.14513" lon="5.73247">
        <ele>126.4</ele>
        <time>2021-12-01T10:32:50Z</time>
      </trkpt>
      <trkpt lat="43.14509" lon="5.73245">
        <ele>125.4</ele>
        <time>2021-12-01T10:32:56Z</time>
      </trkpt>
      <trkpt lat="43.14504" lon="5.73242">
        <ele>124.4</ele>
        <time>2021-12-01T10:33:02Z</time>
      </trkpt>
      <trkpt lat="43.14499" lon="5.7324">
        <ele>123.3</ele>
        <time>2021-12-01T10:33:08Z</time>
      </trkpt>
      <trkpt lat="43.14494" lon="5.73237">
        <ele>122</ele>
        <time>2021-12-01T10:33:14Z</time>
      </trkpt>
      <trkpt lat="43.14489" lon="5.73235">
        <ele>120.9</ele>
        <time>2021-12-01T10:33:20Z</time>
      </trkpt>
      <trkpt lat="43.14484" lon="5.73233">
        <ele>119.9</ele>
        <time>2021-12-01T10:33:26Z</time>
      </trkpt>
      <trkpt lat="43.14479" lon="5.73229">
        <ele>118.6</ele>
        <time>2021-12-01T10:33:34Z</time>
      </trkpt>
      <trkpt lat="43.14475" lon="5.73226">
        <ele>117.7</ele>
        <time>2021-12-01T10:33:40Z</time>
      </trkpt>
      <trkpt lat="43.1447" lon="5.73224">
        <ele>116.7</ele>
        <time>2021-12-01T10:33:48Z</time>
      </trkpt>
      <trkpt lat="43.14464" lon="5.73222">
        <ele>115.5</ele>
        <time>2021-12-01T10:33:56Z</time>
      </trkpt>
      <trkpt lat="43.1446" lon="5.73221">
        <ele>114.6</ele>
        <time>2021-12-01T10:34:02Z</time>
      </trkpt>
      <trkpt lat="43.14455" lon="5.73218">
        <ele>113.5</ele>
        <time>2021-12-01T10:34:08Z</time>
      </trkpt>
      <trkpt lat="43.1445" lon="5.73218">
        <ele>112.6</ele>
        <time>2021-12-01T10:34:14Z</time>
      </trkpt>
      <trkpt lat="43.14445" lon="5.73218">
        <ele>111.7</ele>
        <time>2021-12-01T10:34:22Z</time>
      </trkpt>
      <trkpt lat="43.14439" lon="5.73219">
        <ele>110.2</ele>
        <time>2021-12-01T10:34:30Z</time>
      </trkpt>
      <trkpt lat="43.14435" lon="5.7322">
        <ele>108.9</ele>
        <time>2021-12-01T10:34:36Z</time>
      </trkpt>
      <trkpt lat="43.14429" lon="5.7322">
        <ele>107.4</ele>
        <time>2021-12-01T10:34:44Z</time>
      </trkpt>
      <trkpt lat="43.14425" lon="5.73222">
        <ele>106.2</ele>
        <time>2021-12-01T10:34:50Z</time>
      </trkpt>
      <trkpt lat="43.1442" lon="5.73221">
        <ele>104.8</ele>
        <time>2021-12-01T10:34:56Z</time>
      </trkpt>
      <trkpt lat="43.14415" lon="5.73216">
        <ele>103.2</ele>
        <time>2021-12-01T10:35:04Z</time>
      </trkpt>
      <trkpt lat="43.14414" lon="5.73209">
        <ele>102.3</ele>
        <time>2021-12-01T10:35:10Z</time>
      </trkpt>
      <trkpt lat="43.14412" lon="5.73203">
        <ele>101.4</ele>
        <time>2021-12-01T10:35:16Z</time>
      </trkpt>
      <trkpt lat="43.14409" lon="5.73197">
        <ele>100.6</ele>
        <time>2021-12-01T10:35:22Z</time>
      </trkpt>
      <trkpt lat="43.14406" lon="5.73191">
        <ele>99.5</ele>
        <time>2021-12-01T10:35:30Z</time>
      </trkpt>
      <trkpt lat="43.14401" lon="5.73189">
        <ele>98.3</ele>
        <time>2021-12-01T10:35:38Z</time>
      </trkpt>
      <trkpt lat="43.14397" lon="5.73185">
        <ele>97.3</ele>
        <time>2021-12-01T10:35:44Z</time>
      </trkpt>
      <trkpt lat="43.14392" lon="5.73182">
        <ele>96.3</ele>
        <time>2021-12-01T10:35:50Z</time>
      </trkpt>
      <trkpt lat="43.14388" lon="5.73179">
        <ele>95.3</ele>
        <time>2021-12-01T10:35:56Z</time>
      </trkpt>
      <trkpt lat="43.14383" lon="5.73176">
        <ele>94.1</ele>
        <time>2021-12-01T10:36:02Z</time>
      </trkpt>
      <trkpt lat="43.14379" lon="5.73172">
        <ele>93</ele>
        <time>2021-12-01T10:36:08Z</time>
      </trkpt>
      <trkpt lat="43.14375" lon="5.73168">
        <ele>92</ele>
        <time>2021-12-01T10:36:14Z</time>
      </trkpt>
      <trkpt lat="43.1437" lon="5.73164">
        <ele>90.7</ele>
        <time>2021-12-01T10:36:20Z</time>
      </trkpt>
      <trkpt lat="43.14366" lon="5.73158">
        <ele>89.4</ele>
        <time>2021-12-01T10:36:26Z</time>
      </trkpt>
      <trkpt lat="43.14362" lon="5.73154">
        <ele>88.3</ele>
        <time>2021-12-01T10:36:32Z</time>
      </trkpt>
      <trkpt lat="43.14359" lon="5.7315">
        <ele>87.5</ele>
        <time>2021-12-01T10:36:38Z</time>
      </trkpt>
      <trkpt lat="43.14356" lon="5.73143">
        <ele>86.7</ele>
        <time>2021-12-01T10:36:44Z</time>
      </trkpt>
      <trkpt lat="43.14353" lon="5.73137">
        <ele>85.9</ele>
        <time>2021-12-01T10:36:50Z</time>
      </trkpt>
      <trkpt lat="43.1435" lon="5.7313">
        <ele>84.9</ele>
        <time>2021-12-01T10:36:56Z</time>
      </trkpt>
      <trkpt lat="43.14347" lon="5.73124">
        <ele>83.9</ele>
        <time>2021-12-01T10:37:02Z</time>
      </trkpt>
      <trkpt lat="43.14344" lon="5.73118">
        <ele>82.9</ele>
        <time>2021-12-01T10:37:08Z</time>
      </trkpt>
      <trkpt lat="43.1434" lon="5.73113">
        <ele>81.9</ele>
        <time>2021-12-01T10:37:14Z</time>
      </trkpt>
      <trkpt lat="43.14335" lon="5.73109">
        <ele>80.9</ele>
        <time>2021-12-01T10:37:20Z</time>
      </trkpt>
      <trkpt lat="43.1433" lon="5.73106">
        <ele>80.1</ele>
        <time>2021-12-01T10:37:26Z</time>
      </trkpt>
      <trkpt lat="43.14326" lon="5.73102">
        <ele>79.4</ele>
        <time>2021-12-01T10:37:32Z</time>
      </trkpt>
      <trkpt lat="43.14321" lon="5.73098">
        <ele>78.5</ele>
        <time>2021-12-01T10:37:40Z</time>
      </trkpt>
      <trkpt lat="43.14317" lon="5.73094">
        <ele>77.7</ele>
        <time>2021-12-01T10:37:46Z</time>
      </trkpt>
      <trkpt lat="43.14313" lon="5.73091">
        <ele>77.2</ele>
        <time>2021-12-01T10:37:52Z</time>
      </trkpt>
      <trkpt lat="43.14309" lon="5.73086">
        <ele>76.5</ele>
        <time>2021-12-01T10:38:00Z</time>
      </trkpt>
      <trkpt lat="43.14306" lon="5.73081">
        <ele>75.7</ele>
        <time>2021-12-01T10:38:10Z</time>
      </trkpt>
      <trkpt lat="43.14307" lon="5.73073">
        <ele>74.5</ele>
        <time>2021-12-01T10:38:40Z</time>
      </trkpt>
      <trkpt lat="43.14307" lon="5.73065">
        <ele>73.4</ele>
        <time>2021-12-01T10:38:52Z</time>
      </trkpt>
      <trkpt lat="43.14302" lon="5.73061">
        <ele>72.6</ele>
        <time>2021-12-01T10:39:10Z</time>
      </trkpt>
      <trkpt lat="43.14301" lon="5.73055">
        <ele>71.6</ele>
        <time>2021-12-01T10:39:20Z</time>
      </trkpt>
      <trkpt lat="43.14301" lon="5.73048">
        <ele>70.3</ele>
        <time>2021-12-01T10:39:36Z</time>
      </trkpt>
      <trkpt lat="43.14298" lon="5.73043">
        <ele>69.3</ele>
        <time>2021-12-01T10:39:44Z</time>
      </trkpt>
      <trkpt lat="43.14294" lon="5.73038">
        <ele>68.6</ele>
        <time>2021-12-01T10:39:50Z</time>
      </trkpt>
      <trkpt lat="43.14289" lon="5.73036">
        <ele>68.4</ele>
        <time>2021-12-01T10:39:56Z</time>
      </trkpt>
      <trkpt lat="43.14285" lon="5.7303">
        <ele>67.9</ele>
        <time>2021-12-01T10:40:04Z</time>
      </trkpt>
      <trkpt lat="43.1428" lon="5.73025">
        <ele>67.4</ele>
        <time>2021-12-01T10:40:10Z</time>
      </trkpt>
      <trkpt lat="43.14277" lon="5.73019">
        <ele>66.8</ele>
        <time>2021-12-01T10:40:14Z</time>
      </trkpt>
      <trkpt lat="43.14274" lon="5.73012">
        <ele>65.7</ele>
        <time>2021-12-01T10:40:20Z</time>
      </trkpt>
      <trkpt lat="43.1427" lon="5.73006">
        <ele>64.8</ele>
        <time>2021-12-01T10:40:26Z</time>
      </trkpt>
      <trkpt lat="43.14267" lon="5.73002">
        <ele>64.2</ele>
        <time>2021-12-01T10:40:32Z</time>
      </trkpt>
      <trkpt lat="43.14263" lon="5.72997">
        <ele>63.6</ele>
        <time>2021-12-01T10:40:38Z</time>
      </trkpt>
      <trkpt lat="43.14259" lon="5.72991">
        <ele>63</ele>
        <time>2021-12-01T10:40:44Z</time>
      </trkpt>
      <trkpt lat="43.14255" lon="5.72986">
        <ele>62.4</ele>
        <time>2021-12-01T10:40:50Z</time>
      </trkpt>
      <trkpt lat="43.14251" lon="5.72981">
        <ele>61.9</ele>
        <time>2021-12-01T10:40:56Z</time>
      </trkpt>
      <trkpt lat="43.14246" lon="5.72977">
        <ele>61.3</ele>
        <time>2021-12-01T10:41:02Z</time>
      </trkpt>
      <trkpt lat="43.14241" lon="5.72973">
        <ele>60.8</ele>
        <time>2021-12-01T10:41:08Z</time>
      </trkpt>
      <trkpt lat="43.14236" lon="5.72969">
        <ele>60.2</ele>
        <time>2021-12-01T10:41:14Z</time>
      </trkpt>
      <trkpt lat="43.1423" lon="5.72965">
        <ele>59.7</ele>
        <time>2021-12-01T10:41:20Z</time>
      </trkpt>
      <trkpt lat="43.14226" lon="5.72962">
        <ele>59.4</ele>
        <time>2021-12-01T10:41:24Z</time>
      </trkpt>
      <trkpt lat="43.1422" lon="5.72959">
        <ele>59</ele>
        <time>2021-12-01T10:41:30Z</time>
      </trkpt>
      <trkpt lat="43.14215" lon="5.72956">
        <ele>58.7</ele>
        <time>2021-12-01T10:41:36Z</time>
      </trkpt>
      <trkpt lat="43.1421" lon="5.72953">
        <ele>58.4</ele>
        <time>2021-12-01T10:41:42Z</time>
      </trkpt>
      <trkpt lat="43.14205" lon="5.7295">
        <ele>57.9</ele>
        <time>2021-12-01T10:41:50Z</time>
      </trkpt>
      <trkpt lat="43.14199" lon="5.72949">
        <ele>57.6</ele>
        <time>2021-12-01T10:41:56Z</time>
      </trkpt>
      <trkpt lat="43.14193" lon="5.72947">
        <ele>57.2</ele>
        <time>2021-12-01T10:42:02Z</time>
      </trkpt>
      <trkpt lat="43.14187" lon="5.72948">
        <ele>57.1</ele>
        <time>2021-12-01T10:42:08Z</time>
      </trkpt>
      <trkpt lat="43.14181" lon="5.72949">
        <ele>56.9</ele>
        <time>2021-12-01T10:42:14Z</time>
      </trkpt>
      <trkpt lat="43.14177" lon="5.72949">
        <ele>56.7</ele>
        <time>2021-12-01T10:42:18Z</time>
      </trkpt>
      <trkpt lat="43.14171" lon="5.72949">
        <ele>56.5</ele>
        <time>2021-12-01T10:42:22Z</time>
      </trkpt>
      <trkpt lat="43.14166" lon="5.72949">
        <ele>56.3</ele>
        <time>2021-12-01T10:42:26Z</time>
      </trkpt>
      <trkpt lat="43.1416" lon="5.72953">
        <ele>56.1</ele>
        <time>2021-12-01T10:42:32Z</time>
      </trkpt>
      <trkpt lat="43.14156" lon="5.72955">
        <ele>55.8</ele>
        <time>2021-12-01T10:42:36Z</time>
      </trkpt>
      <trkpt lat="43.14151" lon="5.72955">
        <ele>55.4</ele>
        <time>2021-12-01T10:42:40Z</time>
      </trkpt>
      <trkpt lat="43.14147" lon="5.72957">
        <ele>55.1</ele>
        <time>2021-12-01T10:42:44Z</time>
      </trkpt>
      <trkpt lat="43.14143" lon="5.72962">
        <ele>55</ele>
        <time>2021-12-01T10:42:50Z</time>
      </trkpt>
      <trkpt lat="43.14138" lon="5.72966">
        <ele>54.7</ele>
        <time>2021-12-01T10:42:56Z</time>
      </trkpt>
      <trkpt lat="43.14134" lon="5.7297">
        <ele>54.1</ele>
        <time>2021-12-01T10:43:00Z</time>
      </trkpt>
      <trkpt lat="43.1413" lon="5.72973">
        <ele>53.5</ele>
        <time>2021-12-01T10:43:04Z</time>
      </trkpt>
      <trkpt lat="43.14125" lon="5.72978">
        <ele>53</ele>
        <time>2021-12-01T10:43:10Z</time>
      </trkpt>
      <trkpt lat="43.14121" lon="5.72983">
        <ele>52.7</ele>
        <time>2021-12-01T10:43:16Z</time>
      </trkpt>
      <trkpt lat="43.14117" lon="5.72989">
        <ele>52.6</ele>
        <time>2021-12-01T10:43:22Z</time>
      </trkpt>
      <trkpt lat="43.14114" lon="5.72996">
        <ele>52.9</ele>
        <time>2021-12-01T10:43:28Z</time>
      </trkpt>
      <trkpt lat="43.14113" lon="5.73002">
        <ele>53.3</ele>
        <time>2021-12-01T10:43:32Z</time>
      </trkpt>
      <trkpt lat="43.14111" lon="5.73011">
        <ele>53.4</ele>
        <time>2021-12-01T10:43:38Z</time>
      </trkpt>
      <trkpt lat="43.14108" lon="5.73019">
        <ele>53.3</ele>
        <time>2021-12-01T10:43:44Z</time>
      </trkpt>
      <trkpt lat="43.14105" lon="5.73026">
        <ele>53.1</ele>
        <time>2021-12-01T10:43:50Z</time>
      </trkpt>
      <trkpt lat="43.14103" lon="5.73033">
        <ele>52.9</ele>
        <time>2021-12-01T10:43:54Z</time>
      </trkpt>
      <trkpt lat="43.14101" lon="5.73039">
        <ele>52.8</ele>
        <time>2021-12-01T10:43:58Z</time>
      </trkpt>
      <trkpt lat="43.14098" lon="5.73045">
        <ele>52.5</ele>
        <time>2021-12-01T10:44:04Z</time>
      </trkpt>
      <trkpt lat="43.14096" lon="5.73053">
        <ele>52.2</ele>
        <time>2021-12-01T10:44:10Z</time>
      </trkpt>
      <trkpt lat="43.14094" lon="5.73059">
        <ele>52.1</ele>
        <time>2021-12-01T10:44:14Z</time>
      </trkpt>
      <trkpt lat="43.14091" lon="5.73067">
        <ele>52.2</ele>
        <time>2021-12-01T10:44:20Z</time>
      </trkpt>
      <trkpt lat="43.1409" lon="5.73074">
        <ele>52.6</ele>
        <time>2021-12-01T10:44:26Z</time>
      </trkpt>
      <trkpt lat="43.14089" lon="5.73082">
        <ele>52.8</ele>
        <time>2021-12-01T10:44:32Z</time>
      </trkpt>
      <trkpt lat="43.14087" lon="5.73088">
        <ele>53</ele>
        <time>2021-12-01T10:44:36Z</time>
      </trkpt>
      <trkpt lat="43.14084" lon="5.73093">
        <ele>52.9</ele>
        <time>2021-12-01T10:44:40Z</time>
      </trkpt>
      <trkpt lat="43.14082" lon="5.731">
        <ele>53.1</ele>
        <time>2021-12-01T10:44:46Z</time>
      </trkpt>
      <trkpt lat="43.14079" lon="5.73107">
        <ele>53.6</ele>
        <time>2021-12-01T10:44:52Z</time>
      </trkpt>
      <trkpt lat="43.14076" lon="5.73114">
        <ele>53.9</ele>
        <time>2021-12-01T10:44:58Z</time>
      </trkpt>
      <trkpt lat="43.1407" lon="5.73115">
        <ele>53.7</ele>
        <time>2021-12-01T10:45:06Z</time>
      </trkpt>
      <trkpt lat="43.14064" lon="5.73113">
        <ele>53.3</ele>
        <time>2021-12-01T10:45:14Z</time>
      </trkpt>
      <trkpt lat="43.1406" lon="5.73111">
        <ele>53.2</ele>
        <time>2021-12-01T10:45:20Z</time>
      </trkpt>
      <trkpt lat="43.14055" lon="5.7311">
        <ele>52.8</ele>
        <time>2021-12-01T10:45:28Z</time>
      </trkpt>
      <trkpt lat="43.1405" lon="5.73108">
        <ele>52</ele>
        <time>2021-12-01T10:45:36Z</time>
      </trkpt>
      <trkpt lat="43.14045" lon="5.73107">
        <ele>51.2</ele>
        <time>2021-12-01T10:45:42Z</time>
      </trkpt>
      <trkpt lat="43.1404" lon="5.73105">
        <ele>50.4</ele>
        <time>2021-12-01T10:45:48Z</time>
      </trkpt>
      <trkpt lat="43.14035" lon="5.73104">
        <ele>49.7</ele>
        <time>2021-12-01T10:45:54Z</time>
      </trkpt>
      <trkpt lat="43.1403" lon="5.73101">
        <ele>49</ele>
        <time>2021-12-01T10:46:00Z</time>
      </trkpt>
      <trkpt lat="43.14026" lon="5.73099">
        <ele>48.3</ele>
        <time>2021-12-01T10:46:06Z</time>
      </trkpt>
      <trkpt lat="43.14021" lon="5.73095">
        <ele>47.5</ele>
        <time>2021-12-01T10:46:12Z</time>
      </trkpt>
      <trkpt lat="43.14018" lon="5.7309">
        <ele>46.8</ele>
        <time>2021-12-01T10:46:18Z</time>
      </trkpt>
      <trkpt lat="43.14014" lon="5.73085">
        <ele>46.1</ele>
        <time>2021-12-01T10:46:24Z</time>
      </trkpt>
      <trkpt lat="43.14011" lon="5.73081">
        <ele>45.5</ele>
        <time>2021-12-01T10:46:30Z</time>
      </trkpt>
      <trkpt lat="43.14008" lon="5.73076">
        <ele>44.8</ele>
        <time>2021-12-01T10:46:36Z</time>
      </trkpt>
      <trkpt lat="43.14006" lon="5.73068">
        <ele>44.3</ele>
        <time>2021-12-01T10:46:42Z</time>
      </trkpt>
      <trkpt lat="43.14007" lon="5.7306">
        <ele>44.2</ele>
        <time>2021-12-01T10:46:48Z</time>
      </trkpt>
      <trkpt lat="43.1401" lon="5.73051">
        <ele>44.3</ele>
        <time>2021-12-01T10:46:54Z</time>
      </trkpt>
      <trkpt lat="43.14013" lon="5.73044">
        <ele>44.5</ele>
        <time>2021-12-01T10:47:00Z</time>
      </trkpt>
      <trkpt lat="43.14017" lon="5.73037">
        <ele>44.7</ele>
        <time>2021-12-01T10:47:06Z</time>
      </trkpt>
      <trkpt lat="43.1402" lon="5.73031">
        <ele>45</ele>
        <time>2021-12-01T10:47:12Z</time>
      </trkpt>
      <trkpt lat="43.14023" lon="5.73023">
        <ele>45.2</ele>
        <time>2021-12-01T10:47:18Z</time>
      </trkpt>
      <trkpt lat="43.14025" lon="5.73016">
        <ele>45.2</ele>
        <time>2021-12-01T10:47:24Z</time>
      </trkpt>
      <trkpt lat="43.14027" lon="5.73009">
        <ele>45.3</ele>
        <time>2021-12-01T10:47:30Z</time>
      </trkpt>
      <trkpt lat="43.14029" lon="5.73002">
        <ele>45.2</ele>
        <time>2021-12-01T10:47:36Z</time>
      </trkpt>
      <trkpt lat="43.14031" lon="5.72995">
        <ele>45.2</ele>
        <time>2021-12-01T10:47:42Z</time>
      </trkpt>
      <trkpt lat="43.14029" lon="5.72987">
        <ele>45.1</ele>
        <time>2021-12-01T10:47:48Z</time>
      </trkpt>
      <trkpt lat="43.14024" lon="5.72984">
        <ele>44.8</ele>
        <time>2021-12-01T10:47:54Z</time>
      </trkpt>
      <trkpt lat="43.14018" lon="5.72984">
        <ele>44.3</ele>
        <time>2021-12-01T10:48:00Z</time>
      </trkpt>
      <trkpt lat="43.14012" lon="5.72986">
        <ele>43.8</ele>
        <time>2021-12-01T10:48:06Z</time>
      </trkpt>
      <trkpt lat="43.14006" lon="5.72989">
        <ele>43.3</ele>
        <time>2021-12-01T10:48:12Z</time>
      </trkpt>
      <trkpt lat="43.13999" lon="5.72991">
        <ele>42.6</ele>
        <time>2021-12-01T10:48:18Z</time>
      </trkpt>
      <trkpt lat="43.13994" lon="5.72993">
        <ele>42.4</ele>
        <time>2021-12-01T10:48:22Z</time>
      </trkpt>
      <trkpt lat="43.1399" lon="5.72995">
        <ele>42.3</ele>
        <time>2021-12-01T10:48:26Z</time>
      </trkpt>
      <trkpt lat="43.13985" lon="5.72997">
        <ele>42.1</ele>
        <time>2021-12-01T10:48:30Z</time>
      </trkpt>
      <trkpt lat="43.13979" lon="5.73001">
        <ele>41.9</ele>
        <time>2021-12-01T10:48:36Z</time>
      </trkpt>
      <trkpt lat="43.13975" lon="5.73004">
        <ele>41.7</ele>
        <time>2021-12-01T10:48:40Z</time>
      </trkpt>
      <trkpt lat="43.13969" lon="5.73008">
        <ele>41.5</ele>
        <time>2021-12-01T10:48:46Z</time>
      </trkpt>
      <trkpt lat="43.13966" lon="5.73012">
        <ele>41.3</ele>
        <time>2021-12-01T10:48:50Z</time>
      </trkpt>
      <trkpt lat="43.1396" lon="5.73015">
        <ele>41.2</ele>
        <time>2021-12-01T10:48:56Z</time>
      </trkpt>
      <trkpt lat="43.13956" lon="5.73018">
        <ele>41.1</ele>
        <time>2021-12-01T10:49:00Z</time>
      </trkpt>
      <trkpt lat="43.13953" lon="5.73022">
        <ele>41</ele>
        <time>2021-12-01T10:49:04Z</time>
      </trkpt>
      <trkpt lat="43.13949" lon="5.73027">
        <ele>40.9</ele>
        <time>2021-12-01T10:49:08Z</time>
      </trkpt>
      <trkpt lat="43.13943" lon="5.73032">
        <ele>40.4</ele>
        <time>2021-12-01T10:49:14Z</time>
      </trkpt>
      <trkpt lat="43.13938" lon="5.73037">
        <ele>40.1</ele>
        <time>2021-12-01T10:49:20Z</time>
      </trkpt>
      <trkpt lat="43.13934" lon="5.7304">
        <ele>40</ele>
        <time>2021-12-01T10:49:24Z</time>
      </trkpt>
      <trkpt lat="43.13928" lon="5.73044">
        <ele>40</ele>
        <time>2021-12-01T10:49:30Z</time>
      </trkpt>
      <trkpt lat="43.13922" lon="5.73048">
        <ele>40</ele>
        <time>2021-12-01T10:49:36Z</time>
      </trkpt>
      <trkpt lat="43.13917" lon="5.73054">
        <ele>40.1</ele>
        <time>2021-12-01T10:49:42Z</time>
      </trkpt>
      <trkpt lat="43.13912" lon="5.73057">
        <ele>39.8</ele>
        <time>2021-12-01T10:49:48Z</time>
      </trkpt>
      <trkpt lat="43.13906" lon="5.7306">
        <ele>39.6</ele>
        <time>2021-12-01T10:49:54Z</time>
      </trkpt>
      <trkpt lat="43.139" lon="5.73063">
        <ele>39.5</ele>
        <time>2021-12-01T10:50:00Z</time>
      </trkpt>
      <trkpt lat="43.13894" lon="5.73067">
        <ele>39.5</ele>
        <time>2021-12-01T10:50:06Z</time>
      </trkpt>
      <trkpt lat="43.13888" lon="5.7307">
        <ele>39.5</ele>
        <time>2021-12-01T10:50:12Z</time>
      </trkpt>
      <trkpt lat="43.13883" lon="5.73073">
        <ele>39.4</ele>
        <time>2021-12-01T10:50:18Z</time>
      </trkpt>
      <trkpt lat="43.13878" lon="5.73077">
        <ele>39.3</ele>
        <time>2021-12-01T10:50:24Z</time>
      </trkpt>
      <trkpt lat="43.13873" lon="5.7308">
        <ele>39.2</ele>
        <time>2021-12-01T10:50:30Z</time>
      </trkpt>
      <trkpt lat="43.13869" lon="5.73083">
        <ele>39</ele>
        <time>2021-12-01T10:50:34Z</time>
      </trkpt>
      <trkpt lat="43.13863" lon="5.73086">
        <ele>38.8</ele>
        <time>2021-12-01T10:50:40Z</time>
      </trkpt>
      <trkpt lat="43.13859" lon="5.7309">
        <ele>38.5</ele>
        <time>2021-12-01T10:50:44Z</time>
      </trkpt>
      <trkpt lat="43.13854" lon="5.73092">
        <ele>38.3</ele>
        <time>2021-12-01T10:50:50Z</time>
      </trkpt>
      <trkpt lat="43.1385" lon="5.73095">
        <ele>38.1</ele>
        <time>2021-12-01T10:50:54Z</time>
      </trkpt>
      <trkpt lat="43.13846" lon="5.73098">
        <ele>38</ele>
        <time>2021-12-01T10:50:58Z</time>
      </trkpt>
      <trkpt lat="43.13841" lon="5.73101">
        <ele>37.9</ele>
        <time>2021-12-01T10:51:04Z</time>
      </trkpt>
      <trkpt lat="43.13836" lon="5.73106">
        <ele>37.9</ele>
        <time>2021-12-01T10:51:08Z</time>
      </trkpt>
      <trkpt lat="43.13831" lon="5.73111">
        <ele>37.8</ele>
        <time>2021-12-01T10:51:12Z</time>
      </trkpt>
      <trkpt lat="43.13827" lon="5.73114">
        <ele>37.4</ele>
        <time>2021-12-01T10:51:16Z</time>
      </trkpt>
      <trkpt lat="43.13821" lon="5.73117">
        <ele>37</ele>
        <time>2021-12-01T10:51:22Z</time>
      </trkpt>
      <trkpt lat="43.13815" lon="5.73116">
        <ele>36.6</ele>
        <time>2021-12-01T10:51:28Z</time>
      </trkpt>
      <trkpt lat="43.1381" lon="5.73115">
        <ele>36.3</ele>
        <time>2021-12-01T10:51:32Z</time>
      </trkpt>
      <trkpt lat="43.13804" lon="5.73114">
        <ele>35.9</ele>
        <time>2021-12-01T10:51:38Z</time>
      </trkpt>
      <trkpt lat="43.13798" lon="5.73112">
        <ele>35.5</ele>
        <time>2021-12-01T10:51:44Z</time>
      </trkpt>
      <trkpt lat="43.13793" lon="5.73111">
        <ele>35.1</ele>
        <time>2021-12-01T10:51:48Z</time>
      </trkpt>
      <trkpt lat="43.13787" lon="5.73112">
        <ele>34.7</ele>
        <time>2021-12-01T10:51:54Z</time>
      </trkpt>
      <trkpt lat="43.13782" lon="5.73109">
        <ele>34.3</ele>
        <time>2021-12-01T10:52:00Z</time>
      </trkpt>
      <trkpt lat="43.13777" lon="5.73107">
        <ele>34</ele>
        <time>2021-12-01T10:52:06Z</time>
      </trkpt>
      <trkpt lat="43.13772" lon="5.7311">
        <ele>33.8</ele>
        <time>2021-12-01T10:52:10Z</time>
      </trkpt>
      <trkpt lat="43.13767" lon="5.73112">
        <ele>33.6</ele>
        <time>2021-12-01T10:52:14Z</time>
      </trkpt>
      <trkpt lat="43.13761" lon="5.73113">
        <ele>33.4</ele>
        <time>2021-12-01T10:52:18Z</time>
      </trkpt>
      <trkpt lat="43.13756" lon="5.73112">
        <ele>33.2</ele>
        <time>2021-12-01T10:52:22Z</time>
      </trkpt>
      <trkpt lat="43.13752" lon="5.73112">
        <ele>33</ele>
        <time>2021-12-01T10:52:26Z</time>
      </trkpt>
      <trkpt lat="43.13748" lon="5.73116">
        <ele>32.8</ele>
        <time>2021-12-01T10:52:32Z</time>
      </trkpt>
      <trkpt lat="43.13744" lon="5.73123">
        <ele>32.5</ele>
        <time>2021-12-01T10:52:38Z</time>
      </trkpt>
      <trkpt lat="43.13741" lon="5.73131">
        <ele>32</ele>
        <time>2021-12-01T10:52:44Z</time>
      </trkpt>
      <trkpt lat="43.13738" lon="5.73138">
        <ele>31.6</ele>
        <time>2021-12-01T10:52:52Z</time>
      </trkpt>
      <trkpt lat="43.13736" lon="5.73144">
        <ele>31.4</ele>
        <time>2021-12-01T10:52:56Z</time>
      </trkpt>
      <trkpt lat="43.13734" lon="5.73152">
        <ele>31.2</ele>
        <time>2021-12-01T10:53:02Z</time>
      </trkpt>
      <trkpt lat="43.13732" lon="5.73158">
        <ele>30.9</ele>
        <time>2021-12-01T10:53:10Z</time>
      </trkpt>
      <trkpt lat="43.13729" lon="5.73165">
        <ele>30.5</ele>
        <time>2021-12-01T10:53:14Z</time>
      </trkpt>
      <trkpt lat="43.13726" lon="5.73171">
        <ele>30.3</ele>
        <time>2021-12-01T10:53:18Z</time>
      </trkpt>
      <trkpt lat="43.13723" lon="5.73176">
        <ele>30</ele>
        <time>2021-12-01T10:53:22Z</time>
      </trkpt>
      <trkpt lat="43.13719" lon="5.7318">
        <ele>29.8</ele>
        <time>2021-12-01T10:53:26Z</time>
      </trkpt>
      <trkpt lat="43.13715" lon="5.73185">
        <ele>29.6</ele>
        <time>2021-12-01T10:53:30Z</time>
      </trkpt>
      <trkpt lat="43.1371" lon="5.73189">
        <ele>29.2</ele>
        <time>2021-12-01T10:53:36Z</time>
      </trkpt>
      <trkpt lat="43.13705" lon="5.73192">
        <ele>28.8</ele>
        <time>2021-12-01T10:53:42Z</time>
      </trkpt>
      <trkpt lat="43.137" lon="5.73198">
        <ele>28.3</ele>
        <time>2021-12-01T10:53:48Z</time>
      </trkpt>
      <trkpt lat="43.13697" lon="5.73202">
        <ele>27.9</ele>
        <time>2021-12-01T10:53:52Z</time>
      </trkpt>
      <trkpt lat="43.13694" lon="5.73207">
        <ele>27.5</ele>
        <time>2021-12-01T10:53:56Z</time>
      </trkpt>
      <trkpt lat="43.1369" lon="5.73212">
        <ele>27.1</ele>
        <time>2021-12-01T10:54:04Z</time>
      </trkpt>
      <trkpt lat="43.13686" lon="5.7322">
        <ele>26.5</ele>
        <time>2021-12-01T10:54:12Z</time>
      </trkpt>
      <trkpt lat="43.13684" lon="5.73225">
        <ele>26.1</ele>
        <time>2021-12-01T10:54:16Z</time>
      </trkpt>
      <trkpt lat="43.13681" lon="5.73232">
        <ele>25.4</ele>
        <time>2021-12-01T10:54:22Z</time>
      </trkpt>
      <trkpt lat="43.13677" lon="5.73239">
        <ele>24.7</ele>
        <time>2021-12-01T10:54:28Z</time>
      </trkpt>
      <trkpt lat="43.13672" lon="5.73245">
        <ele>23.9</ele>
        <time>2021-12-01T10:54:34Z</time>
      </trkpt>
      <trkpt lat="43.13668" lon="5.73251">
        <ele>23.2</ele>
        <time>2021-12-01T10:54:40Z</time>
      </trkpt>
      <trkpt lat="43.13664" lon="5.73255">
        <ele>22.4</ele>
        <time>2021-12-01T10:54:46Z</time>
      </trkpt>
      <trkpt lat="43.13661" lon="5.7326">
        <ele>21.8</ele>
        <time>2021-12-01T10:54:50Z</time>
      </trkpt>
      <trkpt lat="43.13656" lon="5.73264">
        <ele>20.9</ele>
        <time>2021-12-01T10:54:56Z</time>
      </trkpt>
      <trkpt lat="43.13651" lon="5.73264">
        <ele>20.3</ele>
        <time>2021-12-01T10:55:02Z</time>
      </trkpt>
      <trkpt lat="43.1365" lon="5.73256">
        <ele>20.8</ele>
        <time>2021-12-01T10:55:10Z</time>
      </trkpt>
      <trkpt lat="43.1365" lon="5.73247">
        <ele>21.3</ele>
        <time>2021-12-01T10:55:16Z</time>
      </trkpt>
      <trkpt lat="43.13649" lon="5.73239">
        <ele>21.6</ele>
        <time>2021-12-01T10:55:22Z</time>
      </trkpt>
      <trkpt lat="43.13649" lon="5.73232">
        <ele>21.9</ele>
        <time>2021-12-01T10:55:26Z</time>
      </trkpt>
      <trkpt lat="43.13649" lon="5.73224">
        <ele>22.3</ele>
        <time>2021-12-01T10:55:32Z</time>
      </trkpt>
      <trkpt lat="43.1365" lon="5.73217">
        <ele>23.1</ele>
        <time>2021-12-01T10:55:38Z</time>
      </trkpt>
      <trkpt lat="43.13649" lon="5.7321">
        <ele>24</ele>
        <time>2021-12-01T10:55:44Z</time>
      </trkpt>
      <trkpt lat="43.13649" lon="5.73201">
        <ele>25</ele>
        <time>2021-12-01T10:55:50Z</time>
      </trkpt>
      <trkpt lat="43.13648" lon="5.73193">
        <ele>25.8</ele>
        <time>2021-12-01T10:55:56Z</time>
      </trkpt>
      <trkpt lat="43.13645" lon="5.73184">
        <ele>26.2</ele>
        <time>2021-12-01T10:56:02Z</time>
      </trkpt>
      <trkpt lat="43.13643" lon="5.73176">
        <ele>26.6</ele>
        <time>2021-12-01T10:56:08Z</time>
      </trkpt>
      <trkpt lat="43.13641" lon="5.73168">
        <ele>27</ele>
        <time>2021-12-01T10:56:16Z</time>
      </trkpt>
      <trkpt lat="43.13639" lon="5.73161">
        <ele>26.9</ele>
        <time>2021-12-01T10:56:22Z</time>
      </trkpt>
      <trkpt lat="43.13636" lon="5.73154">
        <ele>25.9</ele>
        <time>2021-12-01T10:56:28Z</time>
      </trkpt>
      <trkpt lat="43.13634" lon="5.73147">
        <ele>24.7</ele>
        <time>2021-12-01T10:56:34Z</time>
      </trkpt>
      <trkpt lat="43.13633" lon="5.7314">
        <ele>23.8</ele>
        <time>2021-12-01T10:56:40Z</time>
      </trkpt>
      <trkpt lat="43.13632" lon="5.73133">
        <ele>22.8</ele>
        <time>2021-12-01T10:56:46Z</time>
      </trkpt>
      <trkpt lat="43.13632" lon="5.73126">
        <ele>22.5</ele>
        <time>2021-12-01T10:56:52Z</time>
      </trkpt>
      <trkpt lat="43.13632" lon="5.73119">
        <ele>21.8</ele>
        <time>2021-12-01T10:56:58Z</time>
      </trkpt>
      <trkpt lat="43.13633" lon="5.7311">
        <ele>21.5</ele>
        <time>2021-12-01T10:57:06Z</time>
      </trkpt>
      <trkpt lat="43.13633" lon="5.73101">
        <ele>21.6</ele>
        <time>2021-12-01T10:57:12Z</time>
      </trkpt>
      <trkpt lat="43.13633" lon="5.73091">
        <ele>21.5</ele>
        <time>2021-12-01T10:57:18Z</time>
      </trkpt>
      <trkpt lat="43.13634" lon="5.73083">
        <ele>22</ele>
        <time>2021-12-01T10:57:24Z</time>
      </trkpt>
      <trkpt lat="43.13634" lon="5.73073">
        <ele>21.7</ele>
        <time>2021-12-01T10:57:30Z</time>
      </trkpt>
      <trkpt lat="43.13634" lon="5.73065">
        <ele>21.5</ele>
        <time>2021-12-01T10:57:38Z</time>
      </trkpt>
      <trkpt lat="43.13634" lon="5.73055">
        <ele>21.4</ele>
        <time>2021-12-01T10:57:44Z</time>
      </trkpt>
      <trkpt lat="43.13634" lon="5.73046">
        <ele>21.1</ele>
        <time>2021-12-01T10:57:50Z</time>
      </trkpt>
      <trkpt lat="43.13632" lon="5.73037">
        <ele>20.4</ele>
        <time>2021-12-01T10:57:56Z</time>
      </trkpt>
      <trkpt lat="43.13632" lon="5.7303">
        <ele>20.5</ele>
        <time>2021-12-01T10:58:02Z</time>
      </trkpt>
      <trkpt lat="43.13633" lon="5.73022">
        <ele>20.6</ele>
        <time>2021-12-01T10:58:10Z</time>
      </trkpt>
      <trkpt lat="43.13633" lon="5.73015">
        <ele>20.5</ele>
        <time>2021-12-01T10:58:16Z</time>
      </trkpt>
      <trkpt lat="43.13634" lon="5.73007">
        <ele>20.7</ele>
        <time>2021-12-01T10:58:22Z</time>
      </trkpt>
      <trkpt lat="43.13637" lon="5.73001">
        <ele>21.7</ele>
        <time>2021-12-01T10:58:26Z</time>
      </trkpt>
      <trkpt lat="43.13641" lon="5.72995">
        <ele>22.1</ele>
        <time>2021-12-01T10:58:32Z</time>
      </trkpt>
      <trkpt lat="43.13645" lon="5.7299">
        <ele>21.9</ele>
        <time>2021-12-01T10:58:38Z</time>
      </trkpt>
      <trkpt lat="43.13648" lon="5.72985">
        <ele>21.6</ele>
        <time>2021-12-01T10:58:44Z</time>
      </trkpt>
      <trkpt lat="43.13649" lon="5.72978">
        <ele>20.2</ele>
        <time>2021-12-01T10:58:52Z</time>
      </trkpt>
      <trkpt lat="43.13649" lon="5.72969">
        <ele>19.1</ele>
        <time>2021-12-01T10:58:58Z</time>
      </trkpt>
      <trkpt lat="43.13648" lon="5.72962">
        <ele>19.7</ele>
        <time>2021-12-01T10:59:04Z</time>
      </trkpt>
      <trkpt lat="43.13647" lon="5.72956">
        <ele>20.2</ele>
        <time>2021-12-01T10:59:08Z</time>
      </trkpt>
      <trkpt lat="43.13645" lon="5.7295">
        <ele>20.9</ele>
        <time>2021-12-01T10:59:14Z</time>
      </trkpt>
      <trkpt lat="43.1364" lon="5.72948">
        <ele>21.1</ele>
        <time>2021-12-01T10:59:20Z</time>
      </trkpt>
      <trkpt lat="43.13635" lon="5.72948">
        <ele>21.2</ele>
        <time>2021-12-01T10:59:24Z</time>
      </trkpt>
      <trkpt lat="43.13631" lon="5.72947">
        <ele>21.4</ele>
        <time>2021-12-01T10:59:28Z</time>
      </trkpt>
      <trkpt lat="43.13625" lon="5.72946">
        <ele>21.7</ele>
        <time>2021-12-01T10:59:34Z</time>
      </trkpt>
      <trkpt lat="43.13622" lon="5.7294">
        <ele>22.9</ele>
        <time>2021-12-01T10:59:42Z</time>
      </trkpt>
      <trkpt lat="43.13617" lon="5.72935">
        <ele>23.9</ele>
        <time>2021-12-01T10:59:48Z</time>
      </trkpt>
      <trkpt lat="43.13613" lon="5.72932">
        <ele>24.7</ele>
        <time>2021-12-01T10:59:54Z</time>
      </trkpt>
      <trkpt lat="43.13607" lon="5.7293">
        <ele>24.9</ele>
        <time>2021-12-01T11:00:00Z</time>
      </trkpt>
      <trkpt lat="43.136" lon="5.72931">
        <ele>24.5</ele>
        <time>2021-12-01T11:00:06Z</time>
      </trkpt>
      <trkpt lat="43.13595" lon="5.72932">
        <ele>24</ele>
        <time>2021-12-01T11:00:12Z</time>
      </trkpt>
      <trkpt lat="43.13591" lon="5.72929">
        <ele>24.7</ele>
        <time>2021-12-01T11:00:24Z</time>
      </trkpt>
      <trkpt lat="43.13585" lon="5.72929">
        <ele>24.4</ele>
        <time>2021-12-01T11:01:06Z</time>
      </trkpt>
      <trkpt lat="43.1358" lon="5.72927">
        <ele>24.1</ele>
        <time>2021-12-01T11:01:12Z</time>
      </trkpt>
      <trkpt lat="43.13575" lon="5.72927">
        <ele>23</ele>
        <time>2021-12-01T11:01:18Z</time>
      </trkpt>
      <trkpt lat="43.13569" lon="5.72926">
        <ele>22.2</ele>
        <time>2021-12-01T11:01:24Z</time>
      </trkpt>
      <trkpt lat="43.13565" lon="5.72922">
        <ele>22.2</ele>
        <time>2021-12-01T11:01:32Z</time>
      </trkpt>
      <trkpt lat="43.13564" lon="5.72916">
        <ele>23.5</ele>
        <time>2021-12-01T11:01:40Z</time>
      </trkpt>
      <trkpt lat="43.13564" lon="5.72909">
        <ele>23.7</ele>
        <time>2021-12-01T11:01:44Z</time>
      </trkpt>
      <trkpt lat="43.13564" lon="5.72903">
        <ele>23.9</ele>
        <time>2021-12-01T11:01:48Z</time>
      </trkpt>
      <trkpt lat="43.13565" lon="5.72895">
        <ele>24.2</ele>
        <time>2021-12-01T11:01:54Z</time>
      </trkpt>
      <trkpt lat="43.13564" lon="5.72888">
        <ele>24.2</ele>
        <time>2021-12-01T11:01:58Z</time>
      </trkpt>
      <trkpt lat="43.13564" lon="5.72879">
        <ele>24.5</ele>
        <time>2021-12-01T11:02:04Z</time>
      </trkpt>
      <trkpt lat="43.13563" lon="5.72873">
        <ele>24.7</ele>
        <time>2021-12-01T11:02:08Z</time>
      </trkpt>
      <trkpt lat="43.13563" lon="5.72865">
        <ele>25</ele>
        <time>2021-12-01T11:02:14Z</time>
      </trkpt>
      <trkpt lat="43.13565" lon="5.72857">
        <ele>25.4</ele>
        <time>2021-12-01T11:02:24Z</time>
      </trkpt>
      <trkpt lat="43.13567" lon="5.72851">
        <ele>25.7</ele>
        <time>2021-12-01T11:02:38Z</time>
      </trkpt>
      <trkpt lat="43.13565" lon="5.72846">
        <ele>24.5</ele>
        <time>2021-12-01T11:02:50Z</time>
      </trkpt>
      <trkpt lat="43.13569" lon="5.72841">
        <ele>25.7</ele>
        <time>2021-12-01T11:03:20Z</time>
      </trkpt>
      <trkpt lat="43.1357" lon="5.72835">
        <ele>26</ele>
        <time>2021-12-01T11:03:24Z</time>
      </trkpt>
      <trkpt lat="43.13572" lon="5.7283">
        <ele>26.6</ele>
        <time>2021-12-01T11:03:30Z</time>
      </trkpt>
      <trkpt lat="43.13576" lon="5.72825">
        <ele>28</ele>
        <time>2021-12-01T11:03:36Z</time>
      </trkpt>
      <trkpt lat="43.1358" lon="5.72819">
        <ele>30</ele>
        <time>2021-12-01T11:03:44Z</time>
      </trkpt>
      <trkpt lat="43.13581" lon="5.72813">
        <ele>30.2</ele>
        <time>2021-12-01T11:03:50Z</time>
      </trkpt>
      <trkpt lat="43.13581" lon="5.72806">
        <ele>30.3</ele>
        <time>2021-12-01T11:03:56Z</time>
      </trkpt>
      <trkpt lat="43.13581" lon="5.728">
        <ele>29.3</ele>
        <time>2021-12-01T11:04:04Z</time>
      </trkpt>
      <trkpt lat="43.13579" lon="5.72793">
        <ele>27.4</ele>
        <time>2021-12-01T11:04:10Z</time>
      </trkpt>
      <trkpt lat="43.13584" lon="5.7279">
        <ele>30.3</ele>
        <time>2021-12-01T11:05:06Z</time>
      </trkpt>
      <trkpt lat="43.13588" lon="5.7279">
        <ele>30.6</ele>
        <time>2021-12-01T11:05:24Z</time>
      </trkpt>
      <trkpt lat="43.13593" lon="5.72787">
        <ele>30.6</ele>
        <time>2021-12-01T11:05:32Z</time>
      </trkpt>
      <trkpt lat="43.13596" lon="5.72781">
        <ele>30.3</ele>
        <time>2021-12-01T11:05:38Z</time>
      </trkpt>
      <trkpt lat="43.136" lon="5.72775">
        <ele>28.9</ele>
        <time>2021-12-01T11:05:46Z</time>
      </trkpt>
      <trkpt lat="43.13605" lon="5.72772">
        <ele>28</ele>
        <time>2021-12-01T11:05:54Z</time>
      </trkpt>
      <trkpt lat="43.13609" lon="5.72771">
        <ele>28.4</ele>
        <time>2021-12-01T11:06:02Z</time>
      </trkpt>
      <trkpt lat="43.13614" lon="5.72767">
        <ele>27.4</ele>
        <time>2021-12-01T11:06:12Z</time>
      </trkpt>
      <trkpt lat="43.13618" lon="5.72762">
        <ele>26.2</ele>
        <time>2021-12-01T11:06:18Z</time>
      </trkpt>
      <trkpt lat="43.13621" lon="5.72757">
        <ele>24.9</ele>
        <time>2021-12-01T11:06:28Z</time>
      </trkpt>
      <trkpt lat="43.13625" lon="5.72754">
        <ele>24.6</ele>
        <time>2021-12-01T11:06:38Z</time>
      </trkpt>
      <trkpt lat="43.13626" lon="5.72746">
        <ele>21.8</ele>
        <time>2021-12-01T11:06:48Z</time>
      </trkpt>
      <trkpt lat="43.13626" lon="5.72739">
        <ele>18.9</ele>
        <time>2021-12-01T11:06:56Z</time>
      </trkpt>
      <trkpt lat="43.13629" lon="5.72733">
        <ele>17.2</ele>
        <time>2021-12-01T11:07:02Z</time>
      </trkpt>
      <trkpt lat="43.13634" lon="5.7273">
        <ele>17.7</ele>
        <time>2021-12-01T11:07:08Z</time>
      </trkpt>
      <trkpt lat="43.13639" lon="5.72729">
        <ele>19.3</ele>
        <time>2021-12-01T11:07:12Z</time>
      </trkpt>
      <trkpt lat="43.13645" lon="5.72727">
        <ele>19.5</ele>
        <time>2021-12-01T11:07:18Z</time>
      </trkpt>
      <trkpt lat="43.13649" lon="5.72726">
        <ele>19.9</ele>
        <time>2021-12-01T11:07:22Z</time>
      </trkpt>
      <trkpt lat="43.13654" lon="5.72721">
        <ele>19.2</ele>
        <time>2021-12-01T11:07:28Z</time>
      </trkpt>
      <trkpt lat="43.13659" lon="5.72718">
        <ele>19</ele>
        <time>2021-12-01T11:07:34Z</time>
      </trkpt>
      <trkpt lat="43.13663" lon="5.72714">
        <ele>18.2</ele>
        <time>2021-12-01T11:07:40Z</time>
      </trkpt>
      <trkpt lat="43.13668" lon="5.72711">
        <ele>18.4</ele>
        <time>2021-12-01T11:07:46Z</time>
      </trkpt>
      <trkpt lat="43.13672" lon="5.72707">
        <ele>18.1</ele>
        <time>2021-12-01T11:07:52Z</time>
      </trkpt>
      <trkpt lat="43.13674" lon="5.72701">
        <ele>16.8</ele>
        <time>2021-12-01T11:07:58Z</time>
      </trkpt>
      <trkpt lat="43.13677" lon="5.72694">
        <ele>15.6</ele>
        <time>2021-12-01T11:08:04Z</time>
      </trkpt>
      <trkpt lat="43.1368" lon="5.72689">
        <ele>14.9</ele>
        <time>2021-12-01T11:08:22Z</time>
      </trkpt>
      <trkpt lat="43.13683" lon="5.72682">
        <ele>13.5</ele>
        <time>2021-12-01T11:08:28Z</time>
      </trkpt>
      <trkpt lat="43.13686" lon="5.72676">
        <ele>13</ele>
        <time>2021-12-01T11:08:34Z</time>
      </trkpt>
      <trkpt lat="43.13688" lon="5.72669">
        <ele>11.6</ele>
        <time>2021-12-01T11:08:40Z</time>
      </trkpt>
      <trkpt lat="43.13692" lon="5.72666">
        <ele>12.6</ele>
        <time>2021-12-01T11:08:46Z</time>
      </trkpt>
      <trkpt lat="43.13697" lon="5.72663">
        <ele>12.4</ele>
        <time>2021-12-01T11:08:52Z</time>
      </trkpt>
      <trkpt lat="43.137" lon="5.72658">
        <ele>10.4</ele>
        <time>2021-12-01T11:08:58Z</time>
      </trkpt>
      <trkpt lat="43.13701" lon="5.7265">
        <ele>7.8</ele>
        <time>2021-12-01T11:09:12Z</time>
      </trkpt>
      <trkpt lat="43.13701" lon="5.72644">
        <ele>5.5</ele>
        <time>2021-12-01T11:09:20Z</time>
      </trkpt>
      <trkpt lat="43.137" lon="5.72636">
        <ele>3.7</ele>
        <time>2021-12-01T11:09:38Z</time>
      </trkpt>
      <trkpt lat="43.13705" lon="5.72634">
        <ele>3.4</ele>
        <time>2021-12-01T11:09:58Z</time>
      </trkpt>
      <trkpt lat="43.13709" lon="5.72638">
        <ele>3.5</ele>
        <time>2021-12-01T11:10:02Z</time>
      </trkpt>
      <trkpt lat="43.13712" lon="5.72644">
        <ele>5</ele>
        <time>2021-12-01T11:10:08Z</time>
      </trkpt>
      <trkpt lat="43.13709" lon="5.72638">
        <ele>3.4</ele>
        <time>2021-12-01T11:11:08Z</time>
      </trkpt>
      <trkpt lat="43.13707" lon="5.72632">
        <ele>3.3</ele>
        <time>2021-12-01T11:11:14Z</time>
      </trkpt>
      <trkpt lat="43.13704" lon="5.72625">
        <ele>3</ele>
        <time>2021-12-01T11:11:20Z</time>
      </trkpt>
      <trkpt lat="43.13699" lon="5.72618">
        <ele>2.6</ele>
        <time>2021-12-01T11:11:26Z</time>
      </trkpt>
      <trkpt lat="43.13695" lon="5.72615">
        <ele>2.3</ele>
        <time>2021-12-01T11:11:32Z</time>
      </trkpt>
      <trkpt lat="43.13691" lon="5.72612">
        <ele>2</ele>
        <time>2021-12-01T11:11:42Z</time>
      </trkpt>
      <trkpt lat="43.13692" lon="5.72604">
        <ele>2.4</ele>
        <time>2021-12-01T11:12:00Z</time>
      </trkpt>
      <trkpt lat="43.13688" lon="5.72599">
        <ele>2.6</ele>
        <time>2021-12-01T11:14:28Z</time>
      </trkpt>
      <trkpt lat="43.13685" lon="5.72595">
        <ele>2.6</ele>
        <time>2021-12-01T11:14:40Z</time>
      </trkpt>
      <trkpt lat="43.13681" lon="5.72592">
        <ele>2.4</ele>
        <time>2021-12-01T11:14:46Z</time>
      </trkpt>
      <trkpt lat="43.1368" lon="5.72585">
        <ele>2.4</ele>
        <time>2021-12-01T11:14:54Z</time>
      </trkpt>
      <trkpt lat="43.1368" lon="5.72577">
        <ele>4.2</ele>
        <time>2021-12-01T11:15:08Z</time>
      </trkpt>
      <trkpt lat="43.1368" lon="5.7257">
        <ele>6</ele>
        <time>2021-12-01T11:15:14Z</time>
      </trkpt>
      <trkpt lat="43.13675" lon="5.72568">
        <ele>6.6</ele>
        <time>2021-12-01T11:15:22Z</time>
      </trkpt>
      <trkpt lat="43.1367" lon="5.72568">
        <ele>6.7</ele>
        <time>2021-12-01T11:15:30Z</time>
      </trkpt>
      <trkpt lat="43.13664" lon="5.7257">
        <ele>5.5</ele>
        <time>2021-12-01T11:15:36Z</time>
      </trkpt>
      <trkpt lat="43.13665" lon="5.72564">
        <ele>7.8</ele>
        <time>2021-12-01T11:15:44Z</time>
      </trkpt>
      <trkpt lat="43.13661" lon="5.72565">
        <ele>6.7</ele>
        <time>2021-12-01T11:16:02Z</time>
      </trkpt>
      <trkpt lat="43.13659" lon="5.72558">
        <ele>8.2</ele>
        <time>2021-12-01T11:16:12Z</time>
      </trkpt>
      <trkpt lat="43.13654" lon="5.72558">
        <ele>7.3</ele>
        <time>2021-12-01T11:17:00Z</time>
      </trkpt>
      <trkpt lat="43.13655" lon="5.7255">
        <ele>10.2</ele>
        <time>2021-12-01T11:17:08Z</time>
      </trkpt>
      <trkpt lat="43.13653" lon="5.72544">
        <ele>11.3</ele>
        <time>2021-12-01T11:17:22Z</time>
      </trkpt>
      <trkpt lat="43.13656" lon="5.72539">
        <ele>14.4</ele>
        <time>2021-12-01T11:17:44Z</time>
      </trkpt>
      <trkpt lat="43.13658" lon="5.72533">
        <ele>17.7</ele>
        <time>2021-12-01T11:17:58Z</time>
      </trkpt>
      <trkpt lat="43.13661" lon="5.72527">
        <ele>21.2</ele>
        <time>2021-12-01T11:18:10Z</time>
      </trkpt>
      <trkpt lat="43.13663" lon="5.72521">
        <ele>23.4</ele>
        <time>2021-12-01T11:18:20Z</time>
      </trkpt>
      <trkpt lat="43.13666" lon="5.72517">
        <ele>26.9</ele>
        <time>2021-12-01T11:18:40Z</time>
      </trkpt>
      <trkpt lat="43.1367" lon="5.72513">
        <ele>28.3</ele>
        <time>2021-12-01T11:18:48Z</time>
      </trkpt>
      <trkpt lat="43.13673" lon="5.72509">
        <ele>29.6</ele>
        <time>2021-12-01T11:19:02Z</time>
      </trkpt>
      <trkpt lat="43.13673" lon="5.72502">
        <ele>31.6</ele>
        <time>2021-12-01T11:19:08Z</time>
      </trkpt>
      <trkpt lat="43.1367" lon="5.72496">
        <ele>32.4</ele>
        <time>2021-12-01T11:19:18Z</time>
      </trkpt>
      <trkpt lat="43.13672" lon="5.72489">
        <ele>32.9</ele>
        <time>2021-12-01T11:19:28Z</time>
      </trkpt>
      <trkpt lat="43.13675" lon="5.72484">
        <ele>33.3</ele>
        <time>2021-12-01T11:19:52Z</time>
      </trkpt>
      <trkpt lat="43.13673" lon="5.7249">
        <ele>32.9</ele>
        <time>2021-12-01T11:20:34Z</time>
      </trkpt>
      <trkpt lat="43.13668" lon="5.72494">
        <ele>32.5</ele>
        <time>2021-12-01T11:21:00Z</time>
      </trkpt>
      <trkpt lat="43.13664" lon="5.72499">
        <ele>29.5</ele>
        <time>2021-12-01T11:21:10Z</time>
      </trkpt>
      <trkpt lat="43.13668" lon="5.72495">
        <ele>32.4</ele>
        <time>2021-12-01T11:24:00Z</time>
      </trkpt>
      <trkpt lat="43.13672" lon="5.72491">
        <ele>32.8</ele>
        <time>2021-12-01T11:24:10Z</time>
      </trkpt>
      <trkpt lat="43.13677" lon="5.7249">
        <ele>32.9</ele>
        <time>2021-12-01T11:24:22Z</time>
      </trkpt>
      <trkpt lat="43.13682" lon="5.72488">
        <ele>33.2</ele>
        <time>2021-12-01T11:24:30Z</time>
      </trkpt>
      <trkpt lat="43.13687" lon="5.72485">
        <ele>33.4</ele>
        <time>2021-12-01T11:24:36Z</time>
      </trkpt>
      <trkpt lat="43.13691" lon="5.72483">
        <ele>33.5</ele>
        <time>2021-12-01T11:24:42Z</time>
      </trkpt>
      <trkpt lat="43.13697" lon="5.72481">
        <ele>34</ele>
        <time>2021-12-01T11:24:48Z</time>
      </trkpt>
      <trkpt lat="43.13703" lon="5.72482">
        <ele>34.6</ele>
        <time>2021-12-01T11:24:54Z</time>
      </trkpt>
      <trkpt lat="43.13709" lon="5.72482">
        <ele>35.2</ele>
        <time>2021-12-01T11:25:02Z</time>
      </trkpt>
      <trkpt lat="43.13714" lon="5.72482">
        <ele>35.7</ele>
        <time>2021-12-01T11:25:08Z</time>
      </trkpt>
      <trkpt lat="43.13719" lon="5.72483">
        <ele>36.3</ele>
        <time>2021-12-01T11:25:16Z</time>
      </trkpt>
      <trkpt lat="43.13724" lon="5.72486">
        <ele>36.7</ele>
        <time>2021-12-01T11:25:22Z</time>
      </trkpt>
      <trkpt lat="43.13729" lon="5.72488">
        <ele>36.9</ele>
        <time>2021-12-01T11:25:28Z</time>
      </trkpt>
      <trkpt lat="43.13734" lon="5.72489">
        <ele>37.1</ele>
        <time>2021-12-01T11:25:34Z</time>
      </trkpt>
      <trkpt lat="43.1374" lon="5.72487">
        <ele>37.7</ele>
        <time>2021-12-01T11:25:42Z</time>
      </trkpt>
      <trkpt lat="43.13745" lon="5.72485">
        <ele>38.2</ele>
        <time>2021-12-01T11:25:48Z</time>
      </trkpt>
      <trkpt lat="43.13749" lon="5.72481">
        <ele>39</ele>
        <time>2021-12-01T11:25:54Z</time>
      </trkpt>
      <trkpt lat="43.13754" lon="5.72477">
        <ele>39.5</ele>
        <time>2021-12-01T11:26:00Z</time>
      </trkpt>
      <trkpt lat="43.13758" lon="5.72476">
        <ele>39.7</ele>
        <time>2021-12-01T11:26:06Z</time>
      </trkpt>
      <trkpt lat="43.13762" lon="5.72473">
        <ele>40.3</ele>
        <time>2021-12-01T11:26:12Z</time>
      </trkpt>
      <trkpt lat="43.13768" lon="5.72471">
        <ele>40.6</ele>
        <time>2021-12-01T11:26:18Z</time>
      </trkpt>
      <trkpt lat="43.13773" lon="5.72471">
        <ele>40.8</ele>
        <time>2021-12-01T11:26:24Z</time>
      </trkpt>
      <trkpt lat="43.13779" lon="5.72472">
        <ele>41</ele>
        <time>2021-12-01T11:26:30Z</time>
      </trkpt>
      <trkpt lat="43.13784" lon="5.72473">
        <ele>40.9</ele>
        <time>2021-12-01T11:26:36Z</time>
      </trkpt>
      <trkpt lat="43.13789" lon="5.72475">
        <ele>40.6</ele>
        <time>2021-12-01T11:26:42Z</time>
      </trkpt>
      <trkpt lat="43.13794" lon="5.72475">
        <ele>40.8</ele>
        <time>2021-12-01T11:26:48Z</time>
      </trkpt>
      <trkpt lat="43.13799" lon="5.72476">
        <ele>40.9</ele>
        <time>2021-12-01T11:26:54Z</time>
      </trkpt>
      <trkpt lat="43.13805" lon="5.72477">
        <ele>40.7</ele>
        <time>2021-12-01T11:27:00Z</time>
      </trkpt>
      <trkpt lat="43.13812" lon="5.72479">
        <ele>39.9</ele>
        <time>2021-12-01T11:27:06Z</time>
      </trkpt>
      <trkpt lat="43.13817" lon="5.72479">
        <ele>39.7</ele>
        <time>2021-12-01T11:27:12Z</time>
      </trkpt>
      <trkpt lat="43.13824" lon="5.72476">
        <ele>40.1</ele>
        <time>2021-12-01T11:27:18Z</time>
      </trkpt>
      <trkpt lat="43.13829" lon="5.72476">
        <ele>40.2</ele>
        <time>2021-12-01T11:27:24Z</time>
      </trkpt>
      <trkpt lat="43.13834" lon="5.72475">
        <ele>40.3</ele>
        <time>2021-12-01T11:27:30Z</time>
      </trkpt>
      <trkpt lat="43.1384" lon="5.72474">
        <ele>40.5</ele>
        <time>2021-12-01T11:27:36Z</time>
      </trkpt>
      <trkpt lat="43.13845" lon="5.72475">
        <ele>40.3</ele>
        <time>2021-12-01T11:27:42Z</time>
      </trkpt>
      <trkpt lat="43.13851" lon="5.72478">
        <ele>39.8</ele>
        <time>2021-12-01T11:27:50Z</time>
      </trkpt>
      <trkpt lat="43.13858" lon="5.72482">
        <ele>39.5</ele>
        <time>2021-12-01T11:27:56Z</time>
      </trkpt>
      <trkpt lat="43.13863" lon="5.72483">
        <ele>39.6</ele>
        <time>2021-12-01T11:28:00Z</time>
      </trkpt>
      <trkpt lat="43.13867" lon="5.72483">
        <ele>40.1</ele>
        <time>2021-12-01T11:28:04Z</time>
      </trkpt>
      <trkpt lat="43.13872" lon="5.72479">
        <ele>41</ele>
        <time>2021-12-01T11:28:10Z</time>
      </trkpt>
      <trkpt lat="43.13877" lon="5.72476">
        <ele>41.7</ele>
        <time>2021-12-01T11:28:18Z</time>
      </trkpt>
      <trkpt lat="43.13881" lon="5.72474">
        <ele>42.2</ele>
        <time>2021-12-01T11:28:24Z</time>
      </trkpt>
      <trkpt lat="43.13884" lon="5.72469">
        <ele>42.8</ele>
        <time>2021-12-01T11:28:32Z</time>
      </trkpt>
      <trkpt lat="43.13886" lon="5.72463">
        <ele>43.2</ele>
        <time>2021-12-01T11:28:38Z</time>
      </trkpt>
      <trkpt lat="43.13889" lon="5.72458">
        <ele>43.5</ele>
        <time>2021-12-01T11:28:44Z</time>
      </trkpt>
      <trkpt lat="43.13892" lon="5.72452">
        <ele>43.8</ele>
        <time>2021-12-01T11:28:52Z</time>
      </trkpt>
      <trkpt lat="43.13895" lon="5.72447">
        <ele>44.1</ele>
        <time>2021-12-01T11:34:16Z</time>
      </trkpt>
      <trkpt lat="43.13897" lon="5.72441">
        <ele>44.4</ele>
        <time>2021-12-01T11:34:26Z</time>
      </trkpt>
      <trkpt lat="43.139" lon="5.72435">
        <ele>44.6</ele>
        <time>2021-12-01T11:34:34Z</time>
      </trkpt>
      <trkpt lat="43.13901" lon="5.72428">
        <ele>44.8</ele>
        <time>2021-12-01T11:34:42Z</time>
      </trkpt>
      <trkpt lat="43.13901" lon="5.72421">
        <ele>44.9</ele>
        <time>2021-12-01T11:34:48Z</time>
      </trkpt>
      <trkpt lat="43.13904" lon="5.72415">
        <ele>44.9</ele>
        <time>2021-12-01T11:34:56Z</time>
      </trkpt>
      <trkpt lat="43.13907" lon="5.7241">
        <ele>44.6</ele>
        <time>2021-12-01T11:35:02Z</time>
      </trkpt>
      <trkpt lat="43.13912" lon="5.72406">
        <ele>44.5</ele>
        <time>2021-12-01T11:35:12Z</time>
      </trkpt>
      <trkpt lat="43.13917" lon="5.72403">
        <ele>44.5</ele>
        <time>2021-12-01T11:35:18Z</time>
      </trkpt>
      <trkpt lat="43.13921" lon="5.724">
        <ele>44.4</ele>
        <time>2021-12-01T11:35:24Z</time>
      </trkpt>
      <trkpt lat="43.13925" lon="5.72394">
        <ele>44.2</ele>
        <time>2021-12-01T11:35:34Z</time>
      </trkpt>
      <trkpt lat="43.13929" lon="5.72389">
        <ele>44</ele>
        <time>2021-12-01T11:35:40Z</time>
      </trkpt>
      <trkpt lat="43.13933" lon="5.72386">
        <ele>43.8</ele>
        <time>2021-12-01T11:35:46Z</time>
      </trkpt>
      <trkpt lat="43.13937" lon="5.72382">
        <ele>43.7</ele>
        <time>2021-12-01T11:35:52Z</time>
      </trkpt>
      <trkpt lat="43.13943" lon="5.72378">
        <ele>43.6</ele>
        <time>2021-12-01T11:35:58Z</time>
      </trkpt>
      <trkpt lat="43.13949" lon="5.72376">
        <ele>43.6</ele>
        <time>2021-12-01T11:36:04Z</time>
      </trkpt>
      <trkpt lat="43.13954" lon="5.72374">
        <ele>43.6</ele>
        <time>2021-12-01T11:36:10Z</time>
      </trkpt>
      <trkpt lat="43.1396" lon="5.72376">
        <ele>43.8</ele>
        <time>2021-12-01T11:36:16Z</time>
      </trkpt>
      <trkpt lat="43.13966" lon="5.72378">
        <ele>44.1</ele>
        <time>2021-12-01T11:36:22Z</time>
      </trkpt>
      <trkpt lat="43.13971" lon="5.72379">
        <ele>44.3</ele>
        <time>2021-12-01T11:36:30Z</time>
      </trkpt>
      <trkpt lat="43.13977" lon="5.72379">
        <ele>44.6</ele>
        <time>2021-12-01T11:36:40Z</time>
      </trkpt>
      <trkpt lat="43.13983" lon="5.72378">
        <ele>45</ele>
        <time>2021-12-01T11:36:46Z</time>
      </trkpt>
      <trkpt lat="43.13987" lon="5.72376">
        <ele>45.2</ele>
        <time>2021-12-01T11:36:52Z</time>
      </trkpt>
      <trkpt lat="43.13992" lon="5.72373">
        <ele>45.3</ele>
        <time>2021-12-01T11:36:58Z</time>
      </trkpt>
      <trkpt lat="43.13997" lon="5.72371">
        <ele>45.5</ele>
        <time>2021-12-01T11:37:04Z</time>
      </trkpt>
      <trkpt lat="43.14001" lon="5.72369">
        <ele>45.6</ele>
        <time>2021-12-01T11:37:10Z</time>
      </trkpt>
      <trkpt lat="43.14006" lon="5.72367">
        <ele>45.7</ele>
        <time>2021-12-01T11:37:18Z</time>
      </trkpt>
      <trkpt lat="43.1401" lon="5.72364">
        <ele>45.5</ele>
        <time>2021-12-01T11:37:26Z</time>
      </trkpt>
      <trkpt lat="43.14015" lon="5.72359">
        <ele>45.4</ele>
        <time>2021-12-01T11:37:34Z</time>
      </trkpt>
      <trkpt lat="43.1402" lon="5.72357">
        <ele>45.5</ele>
        <time>2021-12-01T11:37:42Z</time>
      </trkpt>
      <trkpt lat="43.14026" lon="5.72354">
        <ele>45.7</ele>
        <time>2021-12-01T11:37:48Z</time>
      </trkpt>
      <trkpt lat="43.14031" lon="5.72352">
        <ele>46</ele>
        <time>2021-12-01T11:37:54Z</time>
      </trkpt>
      <trkpt lat="43.14036" lon="5.7235">
        <ele>46.5</ele>
        <time>2021-12-01T11:38:00Z</time>
      </trkpt>
      <trkpt lat="43.14041" lon="5.72346">
        <ele>46.9</ele>
        <time>2021-12-01T11:38:06Z</time>
      </trkpt>
      <trkpt lat="43.14045" lon="5.72342">
        <ele>47.2</ele>
        <time>2021-12-01T11:38:12Z</time>
      </trkpt>
      <trkpt lat="43.14051" lon="5.72341">
        <ele>47.7</ele>
        <time>2021-12-01T11:38:18Z</time>
      </trkpt>
      <trkpt lat="43.14055" lon="5.72338">
        <ele>48.1</ele>
        <time>2021-12-01T11:38:26Z</time>
      </trkpt>
      <trkpt lat="43.14059" lon="5.72332">
        <ele>48.5</ele>
        <time>2021-12-01T11:38:34Z</time>
      </trkpt>
      <trkpt lat="43.14064" lon="5.72326">
        <ele>48.6</ele>
        <time>2021-12-01T11:38:40Z</time>
      </trkpt>
      <trkpt lat="43.14067" lon="5.72321">
        <ele>48.8</ele>
        <time>2021-12-01T11:38:46Z</time>
      </trkpt>
      <trkpt lat="43.14071" lon="5.72317">
        <ele>49.1</ele>
        <time>2021-12-01T11:38:52Z</time>
      </trkpt>
      <trkpt lat="43.14075" lon="5.72314">
        <ele>49.5</ele>
        <time>2021-12-01T11:38:58Z</time>
      </trkpt>
      <trkpt lat="43.1408" lon="5.7231">
        <ele>49.8</ele>
        <time>2021-12-01T11:39:06Z</time>
      </trkpt>
      <trkpt lat="43.14085" lon="5.72305">
        <ele>50.2</ele>
        <time>2021-12-01T11:39:12Z</time>
      </trkpt>
      <trkpt lat="43.14089" lon="5.72301">
        <ele>50.4</ele>
        <time>2021-12-01T11:39:18Z</time>
      </trkpt>
      <trkpt lat="43.14093" lon="5.72298">
        <ele>50.7</ele>
        <time>2021-12-01T11:39:24Z</time>
      </trkpt>
      <trkpt lat="43.14097" lon="5.72293">
        <ele>50.9</ele>
        <time>2021-12-01T11:39:30Z</time>
      </trkpt>
      <trkpt lat="43.14101" lon="5.72288">
        <ele>50.9</ele>
        <time>2021-12-01T11:39:36Z</time>
      </trkpt>
      <trkpt lat="43.14103" lon="5.72281">
        <ele>50.4</ele>
        <time>2021-12-01T11:39:42Z</time>
      </trkpt>
      <trkpt lat="43.14107" lon="5.72275">
        <ele>50.1</ele>
        <time>2021-12-01T11:39:48Z</time>
      </trkpt>
      <trkpt lat="43.1411" lon="5.7227">
        <ele>50.1</ele>
        <time>2021-12-01T11:39:54Z</time>
      </trkpt>
      <trkpt lat="43.14114" lon="5.72265">
        <ele>50.1</ele>
        <time>2021-12-01T11:40:00Z</time>
      </trkpt>
      <trkpt lat="43.14116" lon="5.72259">
        <ele>49.7</ele>
        <time>2021-12-01T11:40:06Z</time>
      </trkpt>
      <trkpt lat="43.14119" lon="5.72254">
        <ele>49.6</ele>
        <time>2021-12-01T11:40:14Z</time>
      </trkpt>
      <trkpt lat="43.14123" lon="5.72248">
        <ele>49.2</ele>
        <time>2021-12-01T11:40:22Z</time>
      </trkpt>
      <trkpt lat="43.14126" lon="5.72241">
        <ele>48.3</ele>
        <time>2021-12-01T11:40:28Z</time>
      </trkpt>
      <trkpt lat="43.14127" lon="5.72234">
        <ele>47.2</ele>
        <time>2021-12-01T11:40:34Z</time>
      </trkpt>
      <trkpt lat="43.14131" lon="5.72229">
        <ele>47.3</ele>
        <time>2021-12-01T11:40:40Z</time>
      </trkpt>
      <trkpt lat="43.14136" lon="5.72227">
        <ele>48.1</ele>
        <time>2021-12-01T11:40:46Z</time>
      </trkpt>
      <trkpt lat="43.14141" lon="5.72227">
        <ele>49</ele>
        <time>2021-12-01T11:40:52Z</time>
      </trkpt>
      <trkpt lat="43.14147" lon="5.72228">
        <ele>49.7</ele>
        <time>2021-12-01T11:41:02Z</time>
      </trkpt>
      <trkpt lat="43.14152" lon="5.72226">
        <ele>50</ele>
        <time>2021-12-01T11:41:08Z</time>
      </trkpt>
      <trkpt lat="43.14157" lon="5.72224">
        <ele>50.3</ele>
        <time>2021-12-01T11:41:12Z</time>
      </trkpt>
      <trkpt lat="43.14161" lon="5.72222">
        <ele>50.4</ele>
        <time>2021-12-01T11:41:16Z</time>
      </trkpt>
      <trkpt lat="43.14167" lon="5.72221">
        <ele>50.9</ele>
        <time>2021-12-01T11:41:22Z</time>
      </trkpt>
      <trkpt lat="43.14172" lon="5.72217">
        <ele>51.6</ele>
        <time>2021-12-01T11:41:28Z</time>
      </trkpt>
      <trkpt lat="43.14177" lon="5.72214">
        <ele>52.5</ele>
        <time>2021-12-01T11:41:36Z</time>
      </trkpt>
      <trkpt lat="43.14181" lon="5.72208">
        <ele>52.8</ele>
        <time>2021-12-01T11:41:44Z</time>
      </trkpt>
      <trkpt lat="43.14184" lon="5.72203">
        <ele>53</ele>
        <time>2021-12-01T11:41:50Z</time>
      </trkpt>
      <trkpt lat="43.14187" lon="5.72199">
        <ele>53.5</ele>
        <time>2021-12-01T11:41:56Z</time>
      </trkpt>
      <trkpt lat="43.14191" lon="5.72195">
        <ele>54.2</ele>
        <time>2021-12-01T11:42:02Z</time>
      </trkpt>
      <trkpt lat="43.14196" lon="5.72192">
        <ele>54.5</ele>
        <time>2021-12-01T11:42:08Z</time>
      </trkpt>
      <trkpt lat="43.14201" lon="5.72192">
        <ele>54.4</ele>
        <time>2021-12-01T11:42:14Z</time>
      </trkpt>
      <trkpt lat="43.14205" lon="5.72191">
        <ele>54.2</ele>
        <time>2021-12-01T11:42:20Z</time>
      </trkpt>
      <trkpt lat="43.14211" lon="5.72192">
        <ele>54.8</ele>
        <time>2021-12-01T11:42:26Z</time>
      </trkpt>
      <trkpt lat="43.14215" lon="5.72194">
        <ele>55.7</ele>
        <time>2021-12-01T11:42:34Z</time>
      </trkpt>
      <trkpt lat="43.1422" lon="5.72197">
        <ele>56.7</ele>
        <time>2021-12-01T11:42:40Z</time>
      </trkpt>
      <trkpt lat="43.14225" lon="5.72198">
        <ele>57.9</ele>
        <time>2021-12-01T11:42:44Z</time>
      </trkpt>
      <trkpt lat="43.14229" lon="5.72198">
        <ele>59.1</ele>
        <time>2021-12-01T11:42:48Z</time>
      </trkpt>
      <trkpt lat="43.14235" lon="5.72197">
        <ele>60.3</ele>
        <time>2021-12-01T11:42:54Z</time>
      </trkpt>
      <trkpt lat="43.14239" lon="5.72198">
        <ele>61.7</ele>
        <time>2021-12-01T11:43:00Z</time>
      </trkpt>
      <trkpt lat="43.14244" lon="5.72196">
        <ele>62.6</ele>
        <time>2021-12-01T11:43:08Z</time>
      </trkpt>
      <trkpt lat="43.14248" lon="5.72192">
        <ele>62.9</ele>
        <time>2021-12-01T11:43:18Z</time>
      </trkpt>
      <trkpt lat="43.14253" lon="5.72191">
        <ele>63.3</ele>
        <time>2021-12-01T11:43:28Z</time>
      </trkpt>
      <trkpt lat="43.14257" lon="5.72194">
        <ele>65.2</ele>
        <time>2021-12-01T11:43:34Z</time>
      </trkpt>
      <trkpt lat="43.14261" lon="5.72199">
        <ele>67</ele>
        <time>2021-12-01T11:43:42Z</time>
      </trkpt>
      <trkpt lat="43.14266" lon="5.722">
        <ele>68.3</ele>
        <time>2021-12-01T11:43:48Z</time>
      </trkpt>
      <trkpt lat="43.14272" lon="5.72197">
        <ele>68.6</ele>
        <time>2021-12-01T11:43:54Z</time>
      </trkpt>
      <trkpt lat="43.14276" lon="5.72194">
        <ele>68.6</ele>
        <time>2021-12-01T11:44:00Z</time>
      </trkpt>
      <trkpt lat="43.14281" lon="5.72192">
        <ele>67.9</ele>
        <time>2021-12-01T11:44:08Z</time>
      </trkpt>
      <trkpt lat="43.14288" lon="5.72191">
        <ele>67.8</ele>
        <time>2021-12-01T11:44:20Z</time>
      </trkpt>
      <trkpt lat="43.14292" lon="5.72191">
        <ele>67.9</ele>
        <time>2021-12-01T11:44:26Z</time>
      </trkpt>
      <trkpt lat="43.14298" lon="5.72189">
        <ele>67.6</ele>
        <time>2021-12-01T11:44:34Z</time>
      </trkpt>
      <trkpt lat="43.14303" lon="5.72189">
        <ele>67.9</ele>
        <time>2021-12-01T11:44:42Z</time>
      </trkpt>
      <trkpt lat="43.14308" lon="5.7219">
        <ele>68.8</ele>
        <time>2021-12-01T11:44:52Z</time>
      </trkpt>
      <trkpt lat="43.14313" lon="5.72193">
        <ele>70.6</ele>
        <time>2021-12-01T11:45:00Z</time>
      </trkpt>
      <trkpt lat="43.14318" lon="5.72195">
        <ele>71.5</ele>
        <time>2021-12-01T11:45:06Z</time>
      </trkpt>
      <trkpt lat="43.14324" lon="5.72194">
        <ele>71.5</ele>
        <time>2021-12-01T11:45:12Z</time>
      </trkpt>
      <trkpt lat="43.14328" lon="5.72194">
        <ele>71.7</ele>
        <time>2021-12-01T11:45:16Z</time>
      </trkpt>
      <trkpt lat="43.14333" lon="5.72194">
        <ele>71.7</ele>
        <time>2021-12-01T11:45:20Z</time>
      </trkpt>
      <trkpt lat="43.14338" lon="5.72193">
        <ele>72.2</ele>
        <time>2021-12-01T11:45:24Z</time>
      </trkpt>
      <trkpt lat="43.14344" lon="5.7219">
        <ele>71.5</ele>
        <time>2021-12-01T11:45:30Z</time>
      </trkpt>
      <trkpt lat="43.14348" lon="5.72187">
        <ele>71.1</ele>
        <time>2021-12-01T11:45:34Z</time>
      </trkpt>
      <trkpt lat="43.14354" lon="5.72186">
        <ele>71.6</ele>
        <time>2021-12-01T11:45:38Z</time>
      </trkpt>
      <trkpt lat="43.14359" lon="5.72185">
        <ele>71.6</ele>
        <time>2021-12-01T11:45:44Z</time>
      </trkpt>
      <trkpt lat="43.14364" lon="5.72182">
        <ele>70.5</ele>
        <time>2021-12-01T11:45:52Z</time>
      </trkpt>
      <trkpt lat="43.14369" lon="5.72179">
        <ele>69</ele>
        <time>2021-12-01T11:46:00Z</time>
      </trkpt>
      <trkpt lat="43.14375" lon="5.72176">
        <ele>67.4</ele>
        <time>2021-12-01T11:46:06Z</time>
      </trkpt>
      <trkpt lat="43.1438" lon="5.72177">
        <ele>67.8</ele>
        <time>2021-12-01T11:46:10Z</time>
      </trkpt>
      <trkpt lat="43.14387" lon="5.72177">
        <ele>67.7</ele>
        <time>2021-12-01T11:46:16Z</time>
      </trkpt>
      <trkpt lat="43.14392" lon="5.72177">
        <ele>67.8</ele>
        <time>2021-12-01T11:46:20Z</time>
      </trkpt>
      <trkpt lat="43.14398" lon="5.72178">
        <ele>68</ele>
        <time>2021-12-01T11:46:26Z</time>
      </trkpt>
      <trkpt lat="43.14403" lon="5.72176">
        <ele>67.5</ele>
        <time>2021-12-01T11:46:30Z</time>
      </trkpt>
      <trkpt lat="43.14409" lon="5.72175">
        <ele>67.4</ele>
        <time>2021-12-01T11:46:36Z</time>
      </trkpt>
      <trkpt lat="43.14414" lon="5.72174">
        <ele>67.2</ele>
        <time>2021-12-01T11:46:42Z</time>
      </trkpt>
      <trkpt lat="43.1442" lon="5.72176">
        <ele>68</ele>
        <time>2021-12-01T11:46:48Z</time>
      </trkpt>
      <trkpt lat="43.14426" lon="5.72177">
        <ele>68.5</ele>
        <time>2021-12-01T11:46:54Z</time>
      </trkpt>
      <trkpt lat="43.14431" lon="5.72179">
        <ele>68.9</ele>
        <time>2021-12-01T11:47:00Z</time>
      </trkpt>
      <trkpt lat="43.14435" lon="5.72177">
        <ele>68.7</ele>
        <time>2021-12-01T11:47:08Z</time>
      </trkpt>
      <trkpt lat="43.1444" lon="5.72175">
        <ele>68.4</ele>
        <time>2021-12-01T11:47:16Z</time>
      </trkpt>
      <trkpt lat="43.14446" lon="5.72174">
        <ele>68.5</ele>
        <time>2021-12-01T11:47:24Z</time>
      </trkpt>
      <trkpt lat="43.14451" lon="5.72173">
        <ele>68.4</ele>
        <time>2021-12-01T11:47:30Z</time>
      </trkpt>
      <trkpt lat="43.14457" lon="5.72176">
        <ele>68.4</ele>
        <time>2021-12-01T11:47:38Z</time>
      </trkpt>
      <trkpt lat="43.14462" lon="5.72176">
        <ele>68.2</ele>
        <time>2021-12-01T11:47:46Z</time>
      </trkpt>
      <trkpt lat="43.14466" lon="5.7218">
        <ele>68.2</ele>
        <time>2021-12-01T11:48:12Z</time>
      </trkpt>
      <trkpt lat="43.14472" lon="5.72178">
        <ele>68</ele>
        <time>2021-12-01T11:48:58Z</time>
      </trkpt>
      <trkpt lat="43.14477" lon="5.7218">
        <ele>67.9</ele>
        <time>2021-12-01T11:49:02Z</time>
      </trkpt>
      <trkpt lat="43.14481" lon="5.72179">
        <ele>67.9</ele>
        <time>2021-12-01T11:49:08Z</time>
      </trkpt>
      <trkpt lat="43.14486" lon="5.72181">
        <ele>67.7</ele>
        <time>2021-12-01T11:49:14Z</time>
      </trkpt>
      <trkpt lat="43.14486" lon="5.7219">
        <ele>67.6</ele>
        <time>2021-12-01T11:49:20Z</time>
      </trkpt>
      <trkpt lat="43.14488" lon="5.72198">
        <ele>67.4</ele>
        <time>2021-12-01T11:49:26Z</time>
      </trkpt>
      <trkpt lat="43.14493" lon="5.72194">
        <ele>67.3</ele>
        <time>2021-12-01T11:49:34Z</time>
      </trkpt>
      <trkpt lat="43.14497" lon="5.72187">
        <ele>67.3</ele>
        <time>2021-12-01T11:49:40Z</time>
      </trkpt>
      <trkpt lat="43.14501" lon="5.72181">
        <ele>67.5</ele>
        <time>2021-12-01T11:49:46Z</time>
      </trkpt>
      <trkpt lat="43.14506" lon="5.72178">
        <ele>67.7</ele>
        <time>2021-12-01T11:49:52Z</time>
      </trkpt>
      <trkpt lat="43.1451" lon="5.72175">
        <ele>67.8</ele>
        <time>2021-12-01T11:49:56Z</time>
      </trkpt>
      <trkpt lat="43.14514" lon="5.72173">
        <ele>67.9</ele>
        <time>2021-12-01T11:50:00Z</time>
      </trkpt>
      <trkpt lat="43.14519" lon="5.72171">
        <ele>68</ele>
        <time>2021-12-01T11:50:06Z</time>
      </trkpt>
      <trkpt lat="43.14525" lon="5.7217">
        <ele>68</ele>
        <time>2021-12-01T11:50:12Z</time>
      </trkpt>
      <trkpt lat="43.14531" lon="5.72168">
        <ele>68.1</ele>
        <time>2021-12-01T11:50:18Z</time>
      </trkpt>
      <trkpt lat="43.14536" lon="5.72167">
        <ele>68.2</ele>
        <time>2021-12-01T11:50:22Z</time>
      </trkpt>
      <trkpt lat="43.14541" lon="5.72167">
        <ele>68.4</ele>
        <time>2021-12-01T11:50:28Z</time>
      </trkpt>
      <trkpt lat="43.14547" lon="5.72167">
        <ele>68.6</ele>
        <time>2021-12-01T11:50:34Z</time>
      </trkpt>
      <trkpt lat="43.14553" lon="5.72166">
        <ele>68.9</ele>
        <time>2021-12-01T11:50:40Z</time>
      </trkpt>
      <trkpt lat="43.14558" lon="5.72166">
        <ele>68.6</ele>
        <time>2021-12-01T11:50:46Z</time>
      </trkpt>
      <trkpt lat="43.14563" lon="5.72167">
        <ele>67.4</ele>
        <time>2021-12-01T11:50:52Z</time>
      </trkpt>
      <trkpt lat="43.14568" lon="5.72166">
        <ele>66.3</ele>
        <time>2021-12-01T11:50:58Z</time>
      </trkpt>
      <trkpt lat="43.14573" lon="5.72164">
        <ele>65.7</ele>
        <time>2021-12-01T11:51:04Z</time>
      </trkpt>
      <trkpt lat="43.14578" lon="5.72162">
        <ele>65.4</ele>
        <time>2021-12-01T11:51:10Z</time>
      </trkpt>
      <trkpt lat="43.14582" lon="5.72158">
        <ele>65.9</ele>
        <time>2021-12-01T11:51:16Z</time>
      </trkpt>
      <trkpt lat="43.14586" lon="5.72154">
        <ele>66.8</ele>
        <time>2021-12-01T11:51:22Z</time>
      </trkpt>
      <trkpt lat="43.14591" lon="5.72151">
        <ele>66.7</ele>
        <time>2021-12-01T11:51:28Z</time>
      </trkpt>
      <trkpt lat="43.14596" lon="5.72146">
        <ele>67</ele>
        <time>2021-12-01T11:51:34Z</time>
      </trkpt>
      <trkpt lat="43.146" lon="5.72141">
        <ele>66.9</ele>
        <time>2021-12-01T11:51:40Z</time>
      </trkpt>
      <trkpt lat="43.14604" lon="5.72136">
        <ele>66.7</ele>
        <time>2021-12-01T11:51:46Z</time>
      </trkpt>
      <trkpt lat="43.14608" lon="5.72131">
        <ele>67.3</ele>
        <time>2021-12-01T11:51:52Z</time>
      </trkpt>
      <trkpt lat="43.14612" lon="5.72125">
        <ele>68.8</ele>
        <time>2021-12-01T11:52:00Z</time>
      </trkpt>
      <trkpt lat="43.14616" lon="5.72121">
        <ele>69.8</ele>
        <time>2021-12-01T11:52:10Z</time>
      </trkpt>
      <trkpt lat="43.1462" lon="5.72117">
        <ele>70.6</ele>
        <time>2021-12-01T11:52:16Z</time>
      </trkpt>
      <trkpt lat="43.14624" lon="5.72114">
        <ele>70.8</ele>
        <time>2021-12-01T11:52:22Z</time>
      </trkpt>
      <trkpt lat="43.14628" lon="5.72111">
        <ele>70.9</ele>
        <time>2021-12-01T11:52:28Z</time>
      </trkpt>
      <trkpt lat="43.14634" lon="5.72111">
        <ele>69.8</ele>
        <time>2021-12-01T11:52:34Z</time>
      </trkpt>
      <trkpt lat="43.1464" lon="5.7211">
        <ele>68.6</ele>
        <time>2021-12-01T11:52:40Z</time>
      </trkpt>
      <trkpt lat="43.14644" lon="5.72108">
        <ele>67.1</ele>
        <time>2021-12-01T11:52:46Z</time>
      </trkpt>
      <trkpt lat="43.1465" lon="5.72105">
        <ele>66</ele>
        <time>2021-12-01T11:52:54Z</time>
      </trkpt>
      <trkpt lat="43.14654" lon="5.72102">
        <ele>65.3</ele>
        <time>2021-12-01T11:53:00Z</time>
      </trkpt>
      <trkpt lat="43.14659" lon="5.72098">
        <ele>65.4</ele>
        <time>2021-12-01T11:53:06Z</time>
      </trkpt>
      <trkpt lat="43.14662" lon="5.72095">
        <ele>66.2</ele>
        <time>2021-12-01T11:53:12Z</time>
      </trkpt>
      <trkpt lat="43.14666" lon="5.72091">
        <ele>67.7</ele>
        <time>2021-12-01T11:53:22Z</time>
      </trkpt>
      <trkpt lat="43.14671" lon="5.72088">
        <ele>67.5</ele>
        <time>2021-12-01T11:53:36Z</time>
      </trkpt>
      <trkpt lat="43.14676" lon="5.72086">
        <ele>66.7</ele>
        <time>2021-12-01T11:53:44Z</time>
      </trkpt>
      <trkpt lat="43.14683" lon="5.72085">
        <ele>64.5</ele>
        <time>2021-12-01T11:53:50Z</time>
      </trkpt>
      <trkpt lat="43.14688" lon="5.72086">
        <ele>63.1</ele>
        <time>2021-12-01T11:53:54Z</time>
      </trkpt>
      <trkpt lat="43.14693" lon="5.72087">
        <ele>62</ele>
        <time>2021-12-01T11:54:02Z</time>
      </trkpt>
      <trkpt lat="43.14697" lon="5.72083">
        <ele>59.9</ele>
        <time>2021-12-01T11:54:08Z</time>
      </trkpt>
      <trkpt lat="43.14701" lon="5.7208">
        <ele>59.8</ele>
        <time>2021-12-01T11:54:14Z</time>
      </trkpt>
      <trkpt lat="43.14705" lon="5.72075">
        <ele>60</ele>
        <time>2021-12-01T11:54:20Z</time>
      </trkpt>
      <trkpt lat="43.1471" lon="5.7207">
        <ele>60.2</ele>
        <time>2021-12-01T11:54:28Z</time>
      </trkpt>
      <trkpt lat="43.14714" lon="5.72068">
        <ele>60.5</ele>
        <time>2021-12-01T11:54:40Z</time>
      </trkpt>
      <trkpt lat="43.14719" lon="5.72066">
        <ele>60.8</ele>
        <time>2021-12-01T11:54:50Z</time>
      </trkpt>
      <trkpt lat="43.14725" lon="5.72066">
        <ele>61</ele>
        <time>2021-12-01T11:55:00Z</time>
      </trkpt>
      <trkpt lat="43.1473" lon="5.72065">
        <ele>61.3</ele>
        <time>2021-12-01T11:55:06Z</time>
      </trkpt>
      <trkpt lat="43.14735" lon="5.72063">
        <ele>61.3</ele>
        <time>2021-12-01T11:55:16Z</time>
      </trkpt>
      <trkpt lat="43.1474" lon="5.72062">
        <ele>61.1</ele>
        <time>2021-12-01T11:55:22Z</time>
      </trkpt>
      <trkpt lat="43.14745" lon="5.7206">
        <ele>60.3</ele>
        <time>2021-12-01T11:55:30Z</time>
      </trkpt>
      <trkpt lat="43.14751" lon="5.72058">
        <ele>58.9</ele>
        <time>2021-12-01T11:55:38Z</time>
      </trkpt>
      <trkpt lat="43.14756" lon="5.72055">
        <ele>58.1</ele>
        <time>2021-12-01T11:55:44Z</time>
      </trkpt>
      <trkpt lat="43.1476" lon="5.72053">
        <ele>58.1</ele>
        <time>2021-12-01T11:55:48Z</time>
      </trkpt>
      <trkpt lat="43.14766" lon="5.72051">
        <ele>58.2</ele>
        <time>2021-12-01T11:55:54Z</time>
      </trkpt>
      <trkpt lat="43.14772" lon="5.7205">
        <ele>58.4</ele>
        <time>2021-12-01T11:56:00Z</time>
      </trkpt>
      <trkpt lat="43.14778" lon="5.72046">
        <ele>58.3</ele>
        <time>2021-12-01T11:56:06Z</time>
      </trkpt>
      <trkpt lat="43.14782" lon="5.72043">
        <ele>58.4</ele>
        <time>2021-12-01T11:56:12Z</time>
      </trkpt>
      <trkpt lat="43.14788" lon="5.72042">
        <ele>58.7</ele>
        <time>2021-12-01T11:56:18Z</time>
      </trkpt>
      <trkpt lat="43.14793" lon="5.7204">
        <ele>59</ele>
        <time>2021-12-01T11:56:24Z</time>
      </trkpt>
      <trkpt lat="43.14798" lon="5.72039">
        <ele>59.4</ele>
        <time>2021-12-01T11:56:32Z</time>
      </trkpt>
      <trkpt lat="43.14803" lon="5.72038">
        <ele>59.8</ele>
        <time>2021-12-01T11:56:42Z</time>
      </trkpt>
      <trkpt lat="43.14807" lon="5.72036">
        <ele>59.8</ele>
        <time>2021-12-01T11:56:48Z</time>
      </trkpt>
      <trkpt lat="43.14811" lon="5.72033">
        <ele>59.2</ele>
        <time>2021-12-01T11:56:56Z</time>
      </trkpt>
      <trkpt lat="43.14816" lon="5.72034">
        <ele>58.6</ele>
        <time>2021-12-01T11:57:06Z</time>
      </trkpt>
      <trkpt lat="43.14822" lon="5.72034">
        <ele>57.8</ele>
        <time>2021-12-01T11:57:14Z</time>
      </trkpt>
      <trkpt lat="43.14826" lon="5.72034">
        <ele>57.2</ele>
        <time>2021-12-01T11:58:18Z</time>
      </trkpt>
      <trkpt lat="43.14832" lon="5.72033">
        <ele>56.4</ele>
        <time>2021-12-01T11:58:26Z</time>
      </trkpt>
      <trkpt lat="43.14837" lon="5.72032">
        <ele>56.2</ele>
        <time>2021-12-01T11:58:34Z</time>
      </trkpt>
      <trkpt lat="43.14843" lon="5.72033">
        <ele>56.1</ele>
        <time>2021-12-01T11:58:40Z</time>
      </trkpt>
      <trkpt lat="43.1485" lon="5.72033">
        <ele>56.1</ele>
        <time>2021-12-01T11:58:46Z</time>
      </trkpt>
      <trkpt lat="43.14856" lon="5.72033">
        <ele>56.1</ele>
        <time>2021-12-01T11:58:52Z</time>
      </trkpt>
      <trkpt lat="43.14862" lon="5.72032">
        <ele>56.3</ele>
        <time>2021-12-01T11:59:00Z</time>
      </trkpt>
      <trkpt lat="43.14867" lon="5.72031">
        <ele>56.6</ele>
        <time>2021-12-01T11:59:06Z</time>
      </trkpt>
      <trkpt lat="43.14873" lon="5.7203">
        <ele>56.9</ele>
        <time>2021-12-01T11:59:12Z</time>
      </trkpt>
      <trkpt lat="43.1488" lon="5.7203">
        <ele>57</ele>
        <time>2021-12-01T11:59:18Z</time>
      </trkpt>
      <trkpt lat="43.14885" lon="5.72028">
        <ele>57.7</ele>
        <time>2021-12-01T11:59:26Z</time>
      </trkpt>
      <trkpt lat="43.1489" lon="5.72025">
        <ele>57.3</ele>
        <time>2021-12-01T11:59:34Z</time>
      </trkpt>
      <trkpt lat="43.14895" lon="5.72022">
        <ele>57.1</ele>
        <time>2021-12-01T11:59:42Z</time>
      </trkpt>
      <trkpt lat="43.14899" lon="5.7202">
        <ele>57</ele>
        <time>2021-12-01T11:59:54Z</time>
      </trkpt>
      <trkpt lat="43.14903" lon="5.72016">
        <ele>56.8</ele>
        <time>2021-12-01T11:59:58Z</time>
      </trkpt>
      <trkpt lat="43.14904" lon="5.72007">
        <ele>56</ele>
        <time>2021-12-01T12:00:04Z</time>
      </trkpt>
      <trkpt lat="43.14902" lon="5.72001">
        <ele>55</ele>
        <time>2021-12-01T12:00:08Z</time>
      </trkpt>
      <trkpt lat="43.14901" lon="5.71992">
        <ele>55</ele>
        <time>2021-12-01T12:00:14Z</time>
      </trkpt>
      <trkpt lat="43.149" lon="5.71983">
        <ele>55.3</ele>
        <time>2021-12-01T12:00:20Z</time>
      </trkpt>
      <trkpt lat="43.14901" lon="5.71976">
        <ele>55.8</ele>
        <time>2021-12-01T12:00:26Z</time>
      </trkpt>
      <trkpt lat="43.14902" lon="5.71969">
        <ele>56.5</ele>
        <time>2021-12-01T12:00:34Z</time>
      </trkpt>
      <trkpt lat="43.14906" lon="5.7197">
        <ele>57.6</ele>
        <time>2021-12-01T12:00:48Z</time>
      </trkpt>
      <trkpt lat="43.14905" lon="5.71963">
        <ele>57.9</ele>
        <time>2021-12-01T12:01:06Z</time>
      </trkpt>
      <trkpt lat="43.1491" lon="5.71959">
        <ele>59.1</ele>
        <time>2021-12-01T12:05:14Z</time>
      </trkpt>
      <trkpt lat="43.14906" lon="5.71958">
        <ele>58.3</ele>
        <time>2021-12-01T12:28:34Z</time>
      </trkpt>
      <trkpt lat="43.14901" lon="5.71956">
        <ele>57.7</ele>
        <time>2021-12-01T12:50:26Z</time>
      </trkpt>
      <trkpt lat="43.14896" lon="5.71953">
        <ele>57</ele>
        <time>2021-12-01T12:53:06Z</time>
      </trkpt>
      <trkpt lat="43.149" lon="5.71952">
        <ele>57.9</ele>
        <time>2021-12-01T12:53:44Z</time>
      </trkpt>
      <trkpt lat="43.14905" lon="5.71951">
        <ele>58.8</ele>
        <time>2021-12-01T12:55:00Z</time>
      </trkpt>
      <trkpt lat="43.14908" lon="5.71955">
        <ele>59</ele>
        <time>2021-12-01T12:55:12Z</time>
      </trkpt>
      <trkpt lat="43.14903" lon="5.71955">
        <ele>58.2</ele>
        <time>2021-12-01T13:00:52Z</time>
      </trkpt>
      <trkpt lat="43.14907" lon="5.71951">
        <ele>59.2</ele>
        <time>2021-12-01T13:01:32Z</time>
      </trkpt>
      <trkpt lat="43.14903" lon="5.71952">
        <ele>58.3</ele>
        <time>2021-12-01T13:04:06Z</time>
      </trkpt>
      <trkpt lat="43.14907" lon="5.71954">
        <ele>59</ele>
        <time>2021-12-01T13:13:04Z</time>
      </trkpt>
      <trkpt lat="43.14912" lon="5.71952">
        <ele>59.8</ele>
        <time>2021-12-01T13:16:20Z</time>
      </trkpt>
      <trkpt lat="43.14906" lon="5.71955">
        <ele>58.7</ele>
        <time>2021-12-01T13:16:34Z</time>
      </trkpt>
      <trkpt lat="43.14907" lon="5.71948">
        <ele>59.4</ele>
        <time>2021-12-01T13:17:02Z</time>
      </trkpt>
      <trkpt lat="43.14905" lon="5.71942">
        <ele>59.5</ele>
        <time>2021-12-01T13:17:08Z</time>
      </trkpt>
      <trkpt lat="43.14902" lon="5.71936">
        <ele>59.2</ele>
        <time>2021-12-01T13:17:16Z</time>
      </trkpt>
      <trkpt lat="43.14899" lon="5.7193">
        <ele>58.9</ele>
        <time>2021-12-01T13:17:26Z</time>
      </trkpt>
      <trkpt lat="43.14898" lon="5.71922">
        <ele>58.8</ele>
        <time>2021-12-01T13:17:32Z</time>
      </trkpt>
      <trkpt lat="43.14894" lon="5.71915">
        <ele>58.3</ele>
        <time>2021-12-01T13:17:40Z</time>
      </trkpt>
      <trkpt lat="43.14892" lon="5.71907">
        <ele>58.4</ele>
        <time>2021-12-01T13:17:46Z</time>
      </trkpt>
      <trkpt lat="43.1489" lon="5.719">
        <ele>58.5</ele>
        <time>2021-12-01T13:17:50Z</time>
      </trkpt>
      <trkpt lat="43.14889" lon="5.71894">
        <ele>58.5</ele>
        <time>2021-12-01T13:17:54Z</time>
      </trkpt>
      <trkpt lat="43.14886" lon="5.71885">
        <ele>58.7</ele>
        <time>2021-12-01T13:18:02Z</time>
      </trkpt>
      <trkpt lat="43.14883" lon="5.7188">
        <ele>58.2</ele>
        <time>2021-12-01T13:18:06Z</time>
      </trkpt>
      <trkpt lat="43.14878" lon="5.71876">
        <ele>57.5</ele>
        <time>2021-12-01T13:18:10Z</time>
      </trkpt>
      <trkpt lat="43.14874" lon="5.71873">
        <ele>56.6</ele>
        <time>2021-12-01T13:18:14Z</time>
      </trkpt>
      <trkpt lat="43.14869" lon="5.71869">
        <ele>55.7</ele>
        <time>2021-12-01T13:18:20Z</time>
      </trkpt>
      <trkpt lat="43.14863" lon="5.71866">
        <ele>54.5</ele>
        <time>2021-12-01T13:18:26Z</time>
      </trkpt>
      <trkpt lat="43.14859" lon="5.71863">
        <ele>53.8</ele>
        <time>2021-12-01T13:18:32Z</time>
      </trkpt>
      <trkpt lat="43.14854" lon="5.71861">
        <ele>52.7</ele>
        <time>2021-12-01T13:18:38Z</time>
      </trkpt>
      <trkpt lat="43.14849" lon="5.71857">
        <ele>52</ele>
        <time>2021-12-01T13:18:44Z</time>
      </trkpt>
      <trkpt lat="43.14846" lon="5.71852">
        <ele>51.6</ele>
        <time>2021-12-01T13:18:50Z</time>
      </trkpt>
      <trkpt lat="43.14842" lon="5.71847">
        <ele>51.1</ele>
        <time>2021-12-01T13:18:58Z</time>
      </trkpt>
      <trkpt lat="43.14841" lon="5.7184">
        <ele>52.2</ele>
        <time>2021-12-01T13:19:06Z</time>
      </trkpt>
      <trkpt lat="43.14844" lon="5.71834">
        <ele>54.5</ele>
        <time>2021-12-01T13:19:16Z</time>
      </trkpt>
      <trkpt lat="43.14847" lon="5.71827">
        <ele>55.5</ele>
        <time>2021-12-01T13:19:22Z</time>
      </trkpt>
      <trkpt lat="43.14848" lon="5.71821">
        <ele>55.8</ele>
        <time>2021-12-01T13:19:28Z</time>
      </trkpt>
      <trkpt lat="43.14849" lon="5.71813">
        <ele>55.9</ele>
        <time>2021-12-01T13:19:36Z</time>
      </trkpt>
      <trkpt lat="43.14851" lon="5.71807">
        <ele>56.8</ele>
        <time>2021-12-01T13:19:44Z</time>
      </trkpt>
      <trkpt lat="43.14854" lon="5.71802">
        <ele>57.5</ele>
        <time>2021-12-01T13:19:52Z</time>
      </trkpt>
      <trkpt lat="43.14856" lon="5.71794">
        <ele>57.5</ele>
        <time>2021-12-01T13:19:58Z</time>
      </trkpt>
      <trkpt lat="43.14854" lon="5.71786">
        <ele>55.6</ele>
        <time>2021-12-01T13:20:04Z</time>
      </trkpt>
      <trkpt lat="43.14854" lon="5.71778">
        <ele>54.2</ele>
        <time>2021-12-01T13:20:08Z</time>
      </trkpt>
      <trkpt lat="43.14854" lon="5.71769">
        <ele>53.9</ele>
        <time>2021-12-01T13:20:14Z</time>
      </trkpt>
      <trkpt lat="43.14855" lon="5.71762">
        <ele>54.1</ele>
        <time>2021-12-01T13:20:22Z</time>
      </trkpt>
      <trkpt lat="43.14858" lon="5.71755">
        <ele>55.4</ele>
        <time>2021-12-01T13:20:28Z</time>
      </trkpt>
      <trkpt lat="43.14861" lon="5.71748">
        <ele>56.5</ele>
        <time>2021-12-01T13:20:34Z</time>
      </trkpt>
      <trkpt lat="43.14863" lon="5.7174">
        <ele>56.9</ele>
        <time>2021-12-01T13:20:40Z</time>
      </trkpt>
      <trkpt lat="43.14866" lon="5.71734">
        <ele>57.5</ele>
        <time>2021-12-01T13:20:46Z</time>
      </trkpt>
      <trkpt lat="43.14867" lon="5.71728">
        <ele>57.7</ele>
        <time>2021-12-01T13:20:52Z</time>
      </trkpt>
      <trkpt lat="43.14871" lon="5.7172">
        <ele>58.2</ele>
        <time>2021-12-01T13:21:00Z</time>
      </trkpt>
      <trkpt lat="43.14872" lon="5.71714">
        <ele>57.2</ele>
        <time>2021-12-01T13:21:04Z</time>
      </trkpt>
      <trkpt lat="43.14875" lon="5.71708">
        <ele>56.4</ele>
        <time>2021-12-01T13:21:10Z</time>
      </trkpt>
      <trkpt lat="43.14877" lon="5.71702">
        <ele>55.7</ele>
        <time>2021-12-01T13:21:18Z</time>
      </trkpt>
      <trkpt lat="43.14881" lon="5.71697">
        <ele>56.1</ele>
        <time>2021-12-01T13:21:26Z</time>
      </trkpt>
      <trkpt lat="43.14884" lon="5.71691">
        <ele>55.9</ele>
        <time>2021-12-01T13:21:32Z</time>
      </trkpt>
      <trkpt lat="43.14885" lon="5.71685">
        <ele>54.9</ele>
        <time>2021-12-01T13:21:36Z</time>
      </trkpt>
      <trkpt lat="43.14887" lon="5.71676">
        <ele>53.5</ele>
        <time>2021-12-01T13:21:42Z</time>
      </trkpt>
      <trkpt lat="43.14887" lon="5.71669">
        <ele>51.9</ele>
        <time>2021-12-01T13:21:46Z</time>
      </trkpt>
      <trkpt lat="43.14887" lon="5.71662">
        <ele>50.2</ele>
        <time>2021-12-01T13:21:52Z</time>
      </trkpt>
      <trkpt lat="43.14886" lon="5.71653">
        <ele>48.1</ele>
        <time>2021-12-01T13:21:58Z</time>
      </trkpt>
      <trkpt lat="43.14886" lon="5.71646">
        <ele>47</ele>
        <time>2021-12-01T13:22:02Z</time>
      </trkpt>
      <trkpt lat="43.14886" lon="5.7164">
        <ele>45.8</ele>
        <time>2021-12-01T13:22:06Z</time>
      </trkpt>
      <trkpt lat="43.14886" lon="5.71632">
        <ele>43.9</ele>
        <time>2021-12-01T13:22:12Z</time>
      </trkpt>
      <trkpt lat="43.14885" lon="5.71626">
        <ele>42.2</ele>
        <time>2021-12-01T13:22:16Z</time>
      </trkpt>
      <trkpt lat="43.14884" lon="5.71618">
        <ele>40.1</ele>
        <time>2021-12-01T13:22:22Z</time>
      </trkpt>
      <trkpt lat="43.14885" lon="5.7161">
        <ele>38.7</ele>
        <time>2021-12-01T13:22:32Z</time>
      </trkpt>
      <trkpt lat="43.14882" lon="5.71601">
        <ele>37.1</ele>
        <time>2021-12-01T13:22:38Z</time>
      </trkpt>
      <trkpt lat="43.14879" lon="5.71595">
        <ele>36.1</ele>
        <time>2021-12-01T13:22:42Z</time>
      </trkpt>
      <trkpt lat="43.14877" lon="5.71588">
        <ele>35.4</ele>
        <time>2021-12-01T13:22:50Z</time>
      </trkpt>
      <trkpt lat="43.14874" lon="5.71581">
        <ele>34.9</ele>
        <time>2021-12-01T13:22:56Z</time>
      </trkpt>
      <trkpt lat="43.14871" lon="5.71576">
        <ele>34.6</ele>
        <time>2021-12-01T13:23:04Z</time>
      </trkpt>
      <trkpt lat="43.14868" lon="5.71571">
        <ele>34.5</ele>
        <time>2021-12-01T13:23:16Z</time>
      </trkpt>
      <trkpt lat="43.14865" lon="5.71565">
        <ele>34.6</ele>
        <time>2021-12-01T13:23:22Z</time>
      </trkpt>
      <trkpt lat="43.14861" lon="5.71559">
        <ele>34.9</ele>
        <time>2021-12-01T13:23:28Z</time>
      </trkpt>
      <trkpt lat="43.1486" lon="5.71553">
        <ele>34.7</ele>
        <time>2021-12-01T13:23:34Z</time>
      </trkpt>
      <trkpt lat="43.14857" lon="5.71548">
        <ele>34.1</ele>
        <time>2021-12-01T13:23:42Z</time>
      </trkpt>
      <trkpt lat="43.14854" lon="5.71543">
        <ele>33.9</ele>
        <time>2021-12-01T13:23:52Z</time>
      </trkpt>
      <trkpt lat="43.14852" lon="5.71536">
        <ele>33.9</ele>
        <time>2021-12-01T13:24:04Z</time>
      </trkpt>
      <trkpt lat="43.14848" lon="5.71531">
        <ele>34.2</ele>
        <time>2021-12-01T13:24:14Z</time>
      </trkpt>
      <trkpt lat="43.14846" lon="5.71525">
        <ele>34.5</ele>
        <time>2021-12-01T13:24:26Z</time>
      </trkpt>
      <trkpt lat="43.14842" lon="5.71519">
        <ele>34.7</ele>
        <time>2021-12-01T13:24:34Z</time>
      </trkpt>
      <trkpt lat="43.14837" lon="5.71514">
        <ele>35.4</ele>
        <time>2021-12-01T13:24:40Z</time>
      </trkpt>
      <trkpt lat="43.14833" lon="5.71507">
        <ele>36.1</ele>
        <time>2021-12-01T13:24:46Z</time>
      </trkpt>
      <trkpt lat="43.14828" lon="5.71503">
        <ele>36.8</ele>
        <time>2021-12-01T13:24:50Z</time>
      </trkpt>
      <trkpt lat="43.14824" lon="5.71498">
        <ele>37.1</ele>
        <time>2021-12-01T13:24:56Z</time>
      </trkpt>
      <trkpt lat="43.1482" lon="5.71493">
        <ele>36.9</ele>
        <time>2021-12-01T13:25:02Z</time>
      </trkpt>
      <trkpt lat="43.14816" lon="5.71488">
        <ele>37</ele>
        <time>2021-12-01T13:25:08Z</time>
      </trkpt>
      <trkpt lat="43.14811" lon="5.71484">
        <ele>37.3</ele>
        <time>2021-12-01T13:25:18Z</time>
      </trkpt>
      <trkpt lat="43.14808" lon="5.7148">
        <ele>37.4</ele>
        <time>2021-12-01T13:25:24Z</time>
      </trkpt>
      <trkpt lat="43.14803" lon="5.71473">
        <ele>37.6</ele>
        <time>2021-12-01T13:25:30Z</time>
      </trkpt>
      <trkpt lat="43.14799" lon="5.71467">
        <ele>37.9</ele>
        <time>2021-12-01T13:25:36Z</time>
      </trkpt>
      <trkpt lat="43.14797" lon="5.71461">
        <ele>38</ele>
        <time>2021-12-01T13:25:40Z</time>
      </trkpt>
      <trkpt lat="43.14794" lon="5.71455">
        <ele>38.4</ele>
        <time>2021-12-01T13:25:46Z</time>
      </trkpt>
      <trkpt lat="43.1479" lon="5.71447">
        <ele>39.1</ele>
        <time>2021-12-01T13:25:52Z</time>
      </trkpt>
      <trkpt lat="43.14787" lon="5.71442">
        <ele>39.5</ele>
        <time>2021-12-01T13:25:56Z</time>
      </trkpt>
      <trkpt lat="43.14784" lon="5.71436">
        <ele>40</ele>
        <time>2021-12-01T13:26:02Z</time>
      </trkpt>
      <trkpt lat="43.14781" lon="5.7143">
        <ele>40.6</ele>
        <time>2021-12-01T13:26:08Z</time>
      </trkpt>
      <trkpt lat="43.14777" lon="5.71424">
        <ele>41.4</ele>
        <time>2021-12-01T13:26:14Z</time>
      </trkpt>
      <trkpt lat="43.14773" lon="5.71419">
        <ele>41.6</ele>
        <time>2021-12-01T13:26:18Z</time>
      </trkpt>
      <trkpt lat="43.1477" lon="5.71414">
        <ele>41.9</ele>
        <time>2021-12-01T13:26:24Z</time>
      </trkpt>
      <trkpt lat="43.14764" lon="5.7141">
        <ele>42.6</ele>
        <time>2021-12-01T13:26:32Z</time>
      </trkpt>
      <trkpt lat="43.14761" lon="5.71405">
        <ele>42.9</ele>
        <time>2021-12-01T13:26:40Z</time>
      </trkpt>
      <trkpt lat="43.14758" lon="5.71401">
        <ele>43.3</ele>
        <time>2021-12-01T13:26:46Z</time>
      </trkpt>
      <trkpt lat="43.14754" lon="5.71397">
        <ele>43.7</ele>
        <time>2021-12-01T13:26:52Z</time>
      </trkpt>
      <trkpt lat="43.14749" lon="5.71391">
        <ele>44</ele>
        <time>2021-12-01T13:26:58Z</time>
      </trkpt>
      <trkpt lat="43.14745" lon="5.71387">
        <ele>43.9</ele>
        <time>2021-12-01T13:27:02Z</time>
      </trkpt>
      <trkpt lat="43.14741" lon="5.71384">
        <ele>43.8</ele>
        <time>2021-12-01T13:27:08Z</time>
      </trkpt>
      <trkpt lat="43.14736" lon="5.71381">
        <ele>43.7</ele>
        <time>2021-12-01T13:27:16Z</time>
      </trkpt>
      <trkpt lat="43.14732" lon="5.71386">
        <ele>43.9</ele>
        <time>2021-12-01T13:27:28Z</time>
      </trkpt>
      <trkpt lat="43.14728" lon="5.71392">
        <ele>44</ele>
        <time>2021-12-01T13:27:42Z</time>
      </trkpt>
      <trkpt lat="43.14723" lon="5.71396">
        <ele>44</ele>
        <time>2021-12-01T13:27:50Z</time>
      </trkpt>
      <trkpt lat="43.14719" lon="5.71398">
        <ele>43.5</ele>
        <time>2021-12-01T13:28:00Z</time>
      </trkpt>
      <trkpt lat="43.14714" lon="5.71396">
        <ele>43</ele>
        <time>2021-12-01T13:28:10Z</time>
      </trkpt>
      <trkpt lat="43.14709" lon="5.71394">
        <ele>42.7</ele>
        <time>2021-12-01T13:28:22Z</time>
      </trkpt>
      <trkpt lat="43.14709" lon="5.71387">
        <ele>43.5</ele>
        <time>2021-12-01T13:28:32Z</time>
      </trkpt>
      <trkpt lat="43.14706" lon="5.71381">
        <ele>43.3</ele>
        <time>2021-12-01T13:28:42Z</time>
      </trkpt>
      <trkpt lat="43.14701" lon="5.71377">
        <ele>43.1</ele>
        <time>2021-12-01T13:28:48Z</time>
      </trkpt>
      <trkpt lat="43.14698" lon="5.71372">
        <ele>43</ele>
        <time>2021-12-01T13:28:54Z</time>
      </trkpt>
      <trkpt lat="43.14693" lon="5.71369">
        <ele>42.5</ele>
        <time>2021-12-01T13:29:02Z</time>
      </trkpt>
      <trkpt lat="43.14688" lon="5.7137">
        <ele>40.8</ele>
        <time>2021-12-01T13:29:20Z</time>
      </trkpt>
      <trkpt lat="43.14683" lon="5.71367">
        <ele>39.4</ele>
        <time>2021-12-01T13:29:28Z</time>
      </trkpt>
      <trkpt lat="43.1468" lon="5.71363">
        <ele>39.2</ele>
        <time>2021-12-01T13:29:40Z</time>
      </trkpt>
      <trkpt lat="43.14677" lon="5.71358">
        <ele>39.1</ele>
        <time>2021-12-01T13:30:14Z</time>
      </trkpt>
      <trkpt lat="43.14678" lon="5.71351">
        <ele>40.4</ele>
        <time>2021-12-01T13:30:28Z</time>
      </trkpt>
      <trkpt lat="43.14674" lon="5.71347">
        <ele>40.6</ele>
        <time>2021-12-01T13:30:40Z</time>
      </trkpt>
      <trkpt lat="43.14669" lon="5.71349">
        <ele>39.5</ele>
        <time>2021-12-01T13:30:50Z</time>
      </trkpt>
      <trkpt lat="43.14666" lon="5.71343">
        <ele>39.9</ele>
        <time>2021-12-01T13:31:02Z</time>
      </trkpt>
      <trkpt lat="43.14663" lon="5.71338">
        <ele>39.2</ele>
        <time>2021-12-01T13:31:10Z</time>
      </trkpt>
      <trkpt lat="43.14664" lon="5.71332">
        <ele>41.7</ele>
        <time>2021-12-01T13:31:20Z</time>
      </trkpt>
      <trkpt lat="43.14665" lon="5.71325">
        <ele>42</ele>
        <time>2021-12-01T13:31:28Z</time>
      </trkpt>
      <trkpt lat="43.14665" lon="5.71318">
        <ele>41.6</ele>
        <time>2021-12-01T13:31:38Z</time>
      </trkpt>
      <trkpt lat="43.14663" lon="5.71312">
        <ele>40.8</ele>
        <time>2021-12-01T13:31:44Z</time>
      </trkpt>
      <trkpt lat="43.14661" lon="5.71306">
        <ele>39.8</ele>
        <time>2021-12-01T13:31:52Z</time>
      </trkpt>
      <trkpt lat="43.14659" lon="5.71299">
        <ele>39</ele>
        <time>2021-12-01T13:31:58Z</time>
      </trkpt>
      <trkpt lat="43.14657" lon="5.71292">
        <ele>38.6</ele>
        <time>2021-12-01T13:32:06Z</time>
      </trkpt>
      <trkpt lat="43.14655" lon="5.71285">
        <ele>38.6</ele>
        <time>2021-12-01T13:32:14Z</time>
      </trkpt>
      <trkpt lat="43.14654" lon="5.71278">
        <ele>38.6</ele>
        <time>2021-12-01T13:32:22Z</time>
      </trkpt>
      <trkpt lat="43.1465" lon="5.71272">
        <ele>38.1</ele>
        <time>2021-12-01T13:32:28Z</time>
      </trkpt>
      <trkpt lat="43.14646" lon="5.71266">
        <ele>37.5</ele>
        <time>2021-12-01T13:32:34Z</time>
      </trkpt>
      <trkpt lat="43.14641" lon="5.7126">
        <ele>36.9</ele>
        <time>2021-12-01T13:32:42Z</time>
      </trkpt>
      <trkpt lat="43.14638" lon="5.71256">
        <ele>36.1</ele>
        <time>2021-12-01T13:32:52Z</time>
      </trkpt>
      <trkpt lat="43.14635" lon="5.7125">
        <ele>35.5</ele>
        <time>2021-12-01T13:33:00Z</time>
      </trkpt>
      <trkpt lat="43.14633" lon="5.71243">
        <ele>35</ele>
        <time>2021-12-01T13:33:08Z</time>
      </trkpt>
      <trkpt lat="43.14631" lon="5.71237">
        <ele>34.9</ele>
        <time>2021-12-01T13:33:14Z</time>
      </trkpt>
      <trkpt lat="43.14629" lon="5.7123">
        <ele>35.2</ele>
        <time>2021-12-01T13:33:22Z</time>
      </trkpt>
      <trkpt lat="43.14628" lon="5.71223">
        <ele>35.5</ele>
        <time>2021-12-01T13:33:32Z</time>
      </trkpt>
      <trkpt lat="43.14624" lon="5.71217">
        <ele>35</ele>
        <time>2021-12-01T13:33:42Z</time>
      </trkpt>
      <trkpt lat="43.14619" lon="5.71213">
        <ele>34.6</ele>
        <time>2021-12-01T13:33:50Z</time>
      </trkpt>
      <trkpt lat="43.14615" lon="5.71209">
        <ele>34.1</ele>
        <time>2021-12-01T13:33:56Z</time>
      </trkpt>
      <trkpt lat="43.14611" lon="5.71204">
        <ele>34</ele>
        <time>2021-12-01T13:34:04Z</time>
      </trkpt>
      <trkpt lat="43.14607" lon="5.71201">
        <ele>33</ele>
        <time>2021-12-01T13:34:12Z</time>
      </trkpt>
      <trkpt lat="43.14602" lon="5.71197">
        <ele>32.5</ele>
        <time>2021-12-01T13:34:18Z</time>
      </trkpt>
      <trkpt lat="43.14598" lon="5.71194">
        <ele>32.2</ele>
        <time>2021-12-01T13:34:24Z</time>
      </trkpt>
      <trkpt lat="43.14595" lon="5.71189">
        <ele>31.6</ele>
        <time>2021-12-01T13:34:30Z</time>
      </trkpt>
      <trkpt lat="43.14591" lon="5.71184">
        <ele>30.8</ele>
        <time>2021-12-01T13:34:36Z</time>
      </trkpt>
      <trkpt lat="43.14586" lon="5.71181">
        <ele>30</ele>
        <time>2021-12-01T13:34:44Z</time>
      </trkpt>
      <trkpt lat="43.14581" lon="5.71178">
        <ele>29.1</ele>
        <time>2021-12-01T13:34:52Z</time>
      </trkpt>
      <trkpt lat="43.14576" lon="5.71178">
        <ele>27.7</ele>
        <time>2021-12-01T13:35:02Z</time>
      </trkpt>
      <trkpt lat="43.14571" lon="5.7118">
        <ele>26.3</ele>
        <time>2021-12-01T13:35:10Z</time>
      </trkpt>
      <trkpt lat="43.14566" lon="5.71179">
        <ele>25</ele>
        <time>2021-12-01T13:35:20Z</time>
      </trkpt>
      <trkpt lat="43.14561" lon="5.7118">
        <ele>23.5</ele>
        <time>2021-12-01T13:35:30Z</time>
      </trkpt>
      <trkpt lat="43.14556" lon="5.71179">
        <ele>22.4</ele>
        <time>2021-12-01T13:36:08Z</time>
      </trkpt>
      <trkpt lat="43.14553" lon="5.71174">
        <ele>23.1</ele>
        <time>2021-12-01T13:36:22Z</time>
      </trkpt>
      <trkpt lat="43.14549" lon="5.7117">
        <ele>23.7</ele>
        <time>2021-12-01T13:37:04Z</time>
      </trkpt>
      <trkpt lat="43.14544" lon="5.7117">
        <ele>23.4</ele>
        <time>2021-12-01T13:37:12Z</time>
      </trkpt>
      <trkpt lat="43.14539" lon="5.71172">
        <ele>22.4</ele>
        <time>2021-12-01T13:37:20Z</time>
      </trkpt>
      <trkpt lat="43.14534" lon="5.7117">
        <ele>22.5</ele>
        <time>2021-12-01T13:37:32Z</time>
      </trkpt>
      <trkpt lat="43.1453" lon="5.71169">
        <ele>22.3</ele>
        <time>2021-12-01T13:37:38Z</time>
      </trkpt>
      <trkpt lat="43.14525" lon="5.7117">
        <ele>21.3</ele>
        <time>2021-12-01T13:37:48Z</time>
      </trkpt>
      <trkpt lat="43.14522" lon="5.71166">
        <ele>21.6</ele>
        <time>2021-12-01T13:38:00Z</time>
      </trkpt>
      <trkpt lat="43.14526" lon="5.71163">
        <ele>22.3</ele>
        <time>2021-12-01T13:38:36Z</time>
      </trkpt>
      <trkpt lat="43.14526" lon="5.71154">
        <ele>21.2</ele>
        <time>2021-12-01T13:39:06Z</time>
      </trkpt>
      <trkpt lat="43.14522" lon="5.71148">
        <ele>19.1</ele>
        <time>2021-12-01T13:39:12Z</time>
      </trkpt>
      <trkpt lat="43.14519" lon="5.71143">
        <ele>16.4</ele>
        <time>2021-12-01T13:39:18Z</time>
      </trkpt>
      <trkpt lat="43.1452" lon="5.71135">
        <ele>16.4</ele>
        <time>2021-12-01T13:39:30Z</time>
      </trkpt>
      <trkpt lat="43.14522" lon="5.71128">
        <ele>17.2</ele>
        <time>2021-12-01T13:39:42Z</time>
      </trkpt>
      <trkpt lat="43.14522" lon="5.71121">
        <ele>17.2</ele>
        <time>2021-12-01T13:39:50Z</time>
      </trkpt>
      <trkpt lat="43.14521" lon="5.71115">
        <ele>16.9</ele>
        <time>2021-12-01T13:40:00Z</time>
      </trkpt>
      <trkpt lat="43.14518" lon="5.71108">
        <ele>16.2</ele>
        <time>2021-12-01T13:40:06Z</time>
      </trkpt>
      <trkpt lat="43.14513" lon="5.71103">
        <ele>15.3</ele>
        <time>2021-12-01T13:40:12Z</time>
      </trkpt>
      <trkpt lat="43.14508" lon="5.71102">
        <ele>14.3</ele>
        <time>2021-12-01T13:40:20Z</time>
      </trkpt>
      <trkpt lat="43.14503" lon="5.71099">
        <ele>13.6</ele>
        <time>2021-12-01T13:40:28Z</time>
      </trkpt>
      <trkpt lat="43.14499" lon="5.71095">
        <ele>13.8</ele>
        <time>2021-12-01T13:40:34Z</time>
      </trkpt>
      <trkpt lat="43.14496" lon="5.71088">
        <ele>14.6</ele>
        <time>2021-12-01T13:40:42Z</time>
      </trkpt>
      <trkpt lat="43.14497" lon="5.71094">
        <ele>13.6</ele>
        <time>2021-12-01T13:44:54Z</time>
      </trkpt>
      <trkpt lat="43.14501" lon="5.71099">
        <ele>13.3</ele>
        <time>2021-12-01T13:45:26Z</time>
      </trkpt>
      <trkpt lat="43.14505" lon="5.71101">
        <ele>13.8</ele>
        <time>2021-12-01T13:45:44Z</time>
      </trkpt>
      <trkpt lat="43.1451" lon="5.71103">
        <ele>14.5</ele>
        <time>2021-12-01T13:45:56Z</time>
      </trkpt>
      <trkpt lat="43.14515" lon="5.71102">
        <ele>15.6</ele>
        <time>2021-12-01T13:46:08Z</time>
      </trkpt>
      <trkpt lat="43.14519" lon="5.71099">
        <ele>16.6</ele>
        <time>2021-12-01T13:46:14Z</time>
      </trkpt>
      <trkpt lat="43.14524" lon="5.71095">
        <ele>17.3</ele>
        <time>2021-12-01T13:46:20Z</time>
      </trkpt>
      <trkpt lat="43.14527" lon="5.71089">
        <ele>17.4</ele>
        <time>2021-12-01T13:46:26Z</time>
      </trkpt>
      <trkpt lat="43.14531" lon="5.71083">
        <ele>17.5</ele>
        <time>2021-12-01T13:46:34Z</time>
      </trkpt>
      <trkpt lat="43.14533" lon="5.71077">
        <ele>17.2</ele>
        <time>2021-12-01T13:46:46Z</time>
      </trkpt>
      <trkpt lat="43.14535" lon="5.71071">
        <ele>16.9</ele>
        <time>2021-12-01T13:46:56Z</time>
      </trkpt>
      <trkpt lat="43.14535" lon="5.71063">
        <ele>16.1</ele>
        <time>2021-12-01T13:47:06Z</time>
      </trkpt>
      <trkpt lat="43.14534" lon="5.71056">
        <ele>15.1</ele>
        <time>2021-12-01T13:47:12Z</time>
      </trkpt>
      <trkpt lat="43.14534" lon="5.71049">
        <ele>14.5</ele>
        <time>2021-12-01T13:47:22Z</time>
      </trkpt>
      <trkpt lat="43.14534" lon="5.71042">
        <ele>13.8</ele>
        <time>2021-12-01T13:47:34Z</time>
      </trkpt>
      <trkpt lat="43.14535" lon="5.71035">
        <ele>13.2</ele>
        <time>2021-12-01T13:47:44Z</time>
      </trkpt>
      <trkpt lat="43.14537" lon="5.71028">
        <ele>12.7</ele>
        <time>2021-12-01T13:47:52Z</time>
      </trkpt>
      <trkpt lat="43.14539" lon="5.71022">
        <ele>11.6</ele>
        <time>2021-12-01T13:48:00Z</time>
      </trkpt>
      <trkpt lat="43.14544" lon="5.71018">
        <ele>11</ele>
        <time>2021-12-01T13:48:10Z</time>
      </trkpt>
      <trkpt lat="43.14548" lon="5.71017">
        <ele>11.1</ele>
        <time>2021-12-01T13:48:22Z</time>
      </trkpt>
      <trkpt lat="43.14553" lon="5.71016">
        <ele>11.3</ele>
        <time>2021-12-01T13:48:30Z</time>
      </trkpt>
      <trkpt lat="43.14557" lon="5.71019">
        <ele>11.9</ele>
        <time>2021-12-01T13:48:40Z</time>
      </trkpt>
      <trkpt lat="43.14562" lon="5.71022">
        <ele>11.8</ele>
        <time>2021-12-01T13:48:46Z</time>
      </trkpt>
      <trkpt lat="43.14567" lon="5.71024">
        <ele>11.5</ele>
        <time>2021-12-01T13:48:54Z</time>
      </trkpt>
      <trkpt lat="43.14572" lon="5.71025">
        <ele>10.9</ele>
        <time>2021-12-01T13:49:06Z</time>
      </trkpt>
      <trkpt lat="43.14577" lon="5.71023">
        <ele>9.6</ele>
        <time>2021-12-01T13:49:10Z</time>
      </trkpt>
      <trkpt lat="43.14582" lon="5.71023">
        <ele>8.7</ele>
        <time>2021-12-01T13:49:14Z</time>
      </trkpt>
      <trkpt lat="43.14586" lon="5.7102">
        <ele>7.4</ele>
        <time>2021-12-01T13:49:42Z</time>
      </trkpt>
      <trkpt lat="43.1459" lon="5.71023">
        <ele>7.9</ele>
        <time>2021-12-01T13:49:52Z</time>
      </trkpt>
      <trkpt lat="43.14595" lon="5.71026">
        <ele>8.5</ele>
        <time>2021-12-01T13:49:56Z</time>
      </trkpt>
      <trkpt lat="43.14598" lon="5.71031">
        <ele>9.6</ele>
        <time>2021-12-01T13:50:02Z</time>
      </trkpt>
      <trkpt lat="43.14603" lon="5.71038">
        <ele>11.3</ele>
        <time>2021-12-01T13:50:10Z</time>
      </trkpt>
      <trkpt lat="43.14609" lon="5.7104">
        <ele>11.5</ele>
        <time>2021-12-01T13:50:14Z</time>
      </trkpt>
      <trkpt lat="43.14614" lon="5.7104">
        <ele>11.5</ele>
        <time>2021-12-01T13:50:22Z</time>
      </trkpt>
      <trkpt lat="43.14621" lon="5.71038">
        <ele>10.5</ele>
        <time>2021-12-01T13:50:28Z</time>
      </trkpt>
      <trkpt lat="43.14625" lon="5.71036">
        <ele>9.9</ele>
        <time>2021-12-01T13:50:36Z</time>
      </trkpt>
      <trkpt lat="43.1463" lon="5.71035">
        <ele>9.4</ele>
        <time>2021-12-01T13:50:46Z</time>
      </trkpt>
      <trkpt lat="43.14635" lon="5.71032">
        <ele>8.6</ele>
        <time>2021-12-01T13:50:58Z</time>
      </trkpt>
      <trkpt lat="43.1464" lon="5.71032">
        <ele>8.7</ele>
        <time>2021-12-01T13:51:06Z</time>
      </trkpt>
      <trkpt lat="43.14646" lon="5.71035">
        <ele>9.7</ele>
        <time>2021-12-01T13:51:14Z</time>
      </trkpt>
      <trkpt lat="43.1465" lon="5.71034">
        <ele>9.8</ele>
        <time>2021-12-01T13:51:22Z</time>
      </trkpt>
      <trkpt lat="43.14655" lon="5.71036">
        <ele>10.4</ele>
        <time>2021-12-01T13:51:28Z</time>
      </trkpt>
      <trkpt lat="43.14661" lon="5.71036">
        <ele>10.6</ele>
        <time>2021-12-01T13:51:34Z</time>
      </trkpt>
      <trkpt lat="43.14664" lon="5.71032">
        <ele>9.4</ele>
        <time>2021-12-01T13:51:38Z</time>
      </trkpt>
      <trkpt lat="43.14668" lon="5.71028">
        <ele>8.1</ele>
        <time>2021-12-01T13:51:44Z</time>
      </trkpt>
      <trkpt lat="43.14672" lon="5.71026">
        <ele>8.41</ele>
        <time>2021-12-01T13:51:50Z</time>
      </trkpt>
      <trkpt lat="43.14677" lon="5.71023">
        <ele>8.78</ele>
        <time>2021-12-01T13:51:58Z</time>
      </trkpt>
      <trkpt lat="43.14683" lon="5.7102">
        <ele>9.14</ele>
        <time>2021-12-01T13:52:08Z</time>
      </trkpt>
      <trkpt lat="43.14689" lon="5.71019">
        <ele>9.63</ele>
        <time>2021-12-01T13:52:16Z</time>
      </trkpt>
      <trkpt lat="43.14694" lon="5.7102">
        <ele>9.98</ele>
        <time>2021-12-01T13:52:24Z</time>
      </trkpt>
      <trkpt lat="43.14699" lon="5.7102">
        <ele>9.84</ele>
        <time>2021-12-01T13:52:40Z</time>
      </trkpt>
      <trkpt lat="43.14704" lon="5.71017">
        <ele>9.65</ele>
        <time>2021-12-01T13:52:50Z</time>
      </trkpt>
      <trkpt lat="43.14711" lon="5.71016">
        <ele>9.4</ele>
        <time>2021-12-01T13:53:00Z</time>
      </trkpt>
      <trkpt lat="43.14716" lon="5.71016">
        <ele>9.24</ele>
        <time>2021-12-01T13:53:04Z</time>
      </trkpt>
      <trkpt lat="43.14722" lon="5.71013">
        <ele>9.01</ele>
        <time>2021-12-01T13:53:10Z</time>
      </trkpt>
      <trkpt lat="43.14728" lon="5.71011">
        <ele>4.6</ele>
        <time>2021-12-01T13:53:18Z</time>
      </trkpt>
      <trkpt lat="43.14733" lon="5.71008">
        <ele>3.9</ele>
        <time>2021-12-01T13:53:26Z</time>
      </trkpt>
      <trkpt lat="43.14738" lon="5.71006">
        <ele>3.3</ele>
        <time>2021-12-01T13:53:32Z</time>
      </trkpt>
      <trkpt lat="43.14743" lon="5.71004">
        <ele>2.9</ele>
        <time>2021-12-01T13:53:40Z</time>
      </trkpt>
      <trkpt lat="43.14747" lon="5.71008">
        <ele>3.7</ele>
        <time>2021-12-01T13:53:48Z</time>
      </trkpt>
      <trkpt lat="43.14752" lon="5.71011">
        <ele>4.3</ele>
        <time>2021-12-01T13:53:54Z</time>
      </trkpt>
      <trkpt lat="43.14756" lon="5.71014">
        <ele>4.8</ele>
        <time>2021-12-01T13:53:58Z</time>
      </trkpt>
      <trkpt lat="43.14761" lon="5.71014">
        <ele>4.7</ele>
        <time>2021-12-01T13:54:04Z</time>
      </trkpt>
      <trkpt lat="43.14767" lon="5.71012">
        <ele>4.4</ele>
        <time>2021-12-01T13:54:12Z</time>
      </trkpt>
      <trkpt lat="43.14771" lon="5.71011">
        <ele>4.1</ele>
        <time>2021-12-01T13:54:18Z</time>
      </trkpt>
      <trkpt lat="43.14777" lon="5.7101">
        <ele>3.8</ele>
        <time>2021-12-01T13:54:26Z</time>
      </trkpt>
      <trkpt lat="43.14781" lon="5.71008">
        <ele>3.6</ele>
        <time>2021-12-01T13:54:34Z</time>
      </trkpt>
      <trkpt lat="43.14787" lon="5.71007">
        <ele>3.5</ele>
        <time>2021-12-01T13:54:42Z</time>
      </trkpt>
      <trkpt lat="43.14792" lon="5.71007">
        <ele>3.6</ele>
        <time>2021-12-01T13:54:50Z</time>
      </trkpt>
      <trkpt lat="43.14798" lon="5.71009">
        <ele>4</ele>
        <time>2021-12-01T13:54:58Z</time>
      </trkpt>
      <trkpt lat="43.14803" lon="5.7101">
        <ele>4.4</ele>
        <time>2021-12-01T13:55:04Z</time>
      </trkpt>
      <trkpt lat="43.14808" lon="5.71013">
        <ele>4.9</ele>
        <time>2021-12-01T13:55:14Z</time>
      </trkpt>
      <trkpt lat="43.14814" lon="5.71015">
        <ele>4.9</ele>
        <time>2021-12-01T13:55:22Z</time>
      </trkpt>
      <trkpt lat="43.14819" lon="5.71015">
        <ele>4.9</ele>
        <time>2021-12-01T13:55:26Z</time>
      </trkpt>
      <trkpt lat="43.14824" lon="5.71016">
        <ele>4.9</ele>
        <time>2021-12-01T13:55:30Z</time>
      </trkpt>
      <trkpt lat="43.14828" lon="5.71018">
        <ele>5.1</ele>
        <time>2021-12-01T13:55:36Z</time>
      </trkpt>
      <trkpt lat="43.14833" lon="5.71019">
        <ele>5.1</ele>
        <time>2021-12-01T13:55:44Z</time>
      </trkpt>
      <trkpt lat="43.14838" lon="5.7102">
        <ele>5</ele>
        <time>2021-12-01T13:55:52Z</time>
      </trkpt>
      <trkpt lat="43.14843" lon="5.71021">
        <ele>4.8</ele>
        <time>2021-12-01T13:55:58Z</time>
      </trkpt>
      <trkpt lat="43.1485" lon="5.71023">
        <ele>4.6</ele>
        <time>2021-12-01T13:56:06Z</time>
      </trkpt>
      <trkpt lat="43.14852" lon="5.71028">
        <ele>4.6</ele>
        <time>2021-12-01T13:56:14Z</time>
      </trkpt>
      <trkpt lat="43.14857" lon="5.71032">
        <ele>4.6</ele>
        <time>2021-12-01T13:56:18Z</time>
      </trkpt>
      <trkpt lat="43.14862" lon="5.71038">
        <ele>4.4</ele>
        <time>2021-12-01T13:56:24Z</time>
      </trkpt>
      <trkpt lat="43.14865" lon="5.71042">
        <ele>4.5</ele>
        <time>2021-12-01T13:56:30Z</time>
      </trkpt>
      <trkpt lat="43.1487" lon="5.71048">
        <ele>4.7</ele>
        <time>2021-12-01T13:56:36Z</time>
      </trkpt>
      <trkpt lat="43.14874" lon="5.71052">
        <ele>4.9</ele>
        <time>2021-12-01T13:56:40Z</time>
      </trkpt>
      <trkpt lat="43.14878" lon="5.71056">
        <ele>5</ele>
        <time>2021-12-01T13:56:44Z</time>
      </trkpt>
      <trkpt lat="43.14882" lon="5.71062">
        <ele>5.1</ele>
        <time>2021-12-01T13:56:50Z</time>
      </trkpt>
      <trkpt lat="43.14882" lon="5.71069">
        <ele>5.2</ele>
        <time>2021-12-01T13:56:56Z</time>
      </trkpt>
      <trkpt lat="43.14883" lon="5.71075">
        <ele>5.3</ele>
        <time>2021-12-01T13:57:02Z</time>
      </trkpt>
      <trkpt lat="43.14883" lon="5.71082">
        <ele>5.4</ele>
        <time>2021-12-01T13:57:08Z</time>
      </trkpt>
      <trkpt lat="43.14883" lon="5.71089">
        <ele>5.5</ele>
        <time>2021-12-01T13:57:14Z</time>
      </trkpt>
      <trkpt lat="43.14884" lon="5.71097">
        <ele>5.5</ele>
        <time>2021-12-01T13:57:20Z</time>
      </trkpt>
      <trkpt lat="43.14885" lon="5.71103">
        <ele>5.4</ele>
        <time>2021-12-01T13:57:24Z</time>
      </trkpt>
      <trkpt lat="43.14887" lon="5.71112">
        <ele>5.3</ele>
        <time>2021-12-01T13:57:30Z</time>
      </trkpt>
      <trkpt lat="43.1489" lon="5.71119">
        <ele>5.7</ele>
        <time>2021-12-01T13:57:36Z</time>
      </trkpt>
      <trkpt lat="43.14891" lon="5.71126">
        <ele>6.3</ele>
        <time>2021-12-01T13:57:42Z</time>
      </trkpt>
      <trkpt lat="43.1489" lon="5.71132">
        <ele>6.4</ele>
        <time>2021-12-01T13:57:48Z</time>
      </trkpt>
      <trkpt lat="43.1489" lon="5.71139">
        <ele>6.4</ele>
        <time>2021-12-01T13:57:56Z</time>
      </trkpt>
      <trkpt lat="43.14889" lon="5.71146">
        <ele>6</ele>
        <time>2021-12-01T13:58:04Z</time>
      </trkpt>
      <trkpt lat="43.14887" lon="5.71153">
        <ele>6.3</ele>
        <time>2021-12-01T13:58:12Z</time>
      </trkpt>
      <trkpt lat="43.14886" lon="5.7116">
        <ele>6.5</ele>
        <time>2021-12-01T13:58:18Z</time>
      </trkpt>
      <trkpt lat="43.14885" lon="5.71168">
        <ele>6.7</ele>
        <time>2021-12-01T13:58:26Z</time>
      </trkpt>
      <trkpt lat="43.14888" lon="5.71175">
        <ele>6.3</ele>
        <time>2021-12-01T14:00:18Z</time>
      </trkpt>
      <trkpt lat="43.14887" lon="5.71183">
        <ele>6.3</ele>
        <time>2021-12-01T14:00:28Z</time>
      </trkpt>
      <trkpt lat="43.14887" lon="5.7119">
        <ele>6.4</ele>
        <time>2021-12-01T14:00:36Z</time>
      </trkpt>
      <trkpt lat="43.14886" lon="5.71197">
        <ele>6.8</ele>
        <time>2021-12-01T14:00:44Z</time>
      </trkpt>
      <trkpt lat="43.14884" lon="5.71205">
        <ele>7.4</ele>
        <time>2021-12-01T14:00:52Z</time>
      </trkpt>
      <trkpt lat="43.14884" lon="5.71213">
        <ele>7.8</ele>
        <time>2021-12-01T14:01:00Z</time>
      </trkpt>
      <trkpt lat="43.14884" lon="5.71221">
        <ele>8.1</ele>
        <time>2021-12-01T14:01:08Z</time>
      </trkpt>
      <trkpt lat="43.14881" lon="5.71227">
        <ele>8.6</ele>
        <time>2021-12-01T14:01:16Z</time>
      </trkpt>
      <trkpt lat="43.14879" lon="5.71234">
        <ele>9.2</ele>
        <time>2021-12-01T14:01:26Z</time>
      </trkpt>
      <trkpt lat="43.14876" lon="5.71239">
        <ele>9.8</ele>
        <time>2021-12-01T14:01:32Z</time>
      </trkpt>
      <trkpt lat="43.14874" lon="5.71245">
        <ele>10.3</ele>
        <time>2021-12-01T14:01:38Z</time>
      </trkpt>
      <trkpt lat="43.14871" lon="5.71252">
        <ele>10.7</ele>
        <time>2021-12-01T14:01:46Z</time>
      </trkpt>
      <trkpt lat="43.14869" lon="5.71258">
        <ele>10.5</ele>
        <time>2021-12-01T14:01:52Z</time>
      </trkpt>
      <trkpt lat="43.14869" lon="5.71266">
        <ele>9.8</ele>
        <time>2021-12-01T14:01:58Z</time>
      </trkpt>
      <trkpt lat="43.14868" lon="5.71275">
        <ele>9</ele>
        <time>2021-12-01T14:02:04Z</time>
      </trkpt>
      <trkpt lat="43.14868" lon="5.71282">
        <ele>8.7</ele>
        <time>2021-12-01T14:02:08Z</time>
      </trkpt>
      <trkpt lat="43.1487" lon="5.71288">
        <ele>8.6</ele>
        <time>2021-12-01T14:02:12Z</time>
      </trkpt>
      <trkpt lat="43.14873" lon="5.71294">
        <ele>8.5</ele>
        <time>2021-12-01T14:02:16Z</time>
      </trkpt>
      <trkpt lat="43.14874" lon="5.713">
        <ele>8.5</ele>
        <time>2021-12-01T14:02:20Z</time>
      </trkpt>
      <trkpt lat="43.14877" lon="5.71308">
        <ele>8.8</ele>
        <time>2021-12-01T14:02:28Z</time>
      </trkpt>
      <trkpt lat="43.14879" lon="5.71316">
        <ele>9.4</ele>
        <time>2021-12-01T14:02:34Z</time>
      </trkpt>
      <trkpt lat="43.14882" lon="5.71322">
        <ele>10.1</ele>
        <time>2021-12-01T14:02:38Z</time>
      </trkpt>
      <trkpt lat="43.14886" lon="5.71328">
        <ele>11</ele>
        <time>2021-12-01T14:02:42Z</time>
      </trkpt>
      <trkpt lat="43.14888" lon="5.71335">
        <ele>11.7</ele>
        <time>2021-12-01T14:02:46Z</time>
      </trkpt>
      <trkpt lat="43.14891" lon="5.71345">
        <ele>11.3</ele>
        <time>2021-12-01T14:02:52Z</time>
      </trkpt>
      <trkpt lat="43.14895" lon="5.71352">
        <ele>11.7</ele>
        <time>2021-12-01T14:02:56Z</time>
      </trkpt>
      <trkpt lat="43.149" lon="5.71357">
        <ele>12.4</ele>
        <time>2021-12-01T14:03:02Z</time>
      </trkpt>
      <trkpt lat="43.14903" lon="5.71362">
        <ele>12.5</ele>
        <time>2021-12-01T14:03:06Z</time>
      </trkpt>
      <trkpt lat="43.14908" lon="5.71367">
        <ele>12.9</ele>
        <time>2021-12-01T14:03:10Z</time>
      </trkpt>
      <trkpt lat="43.14916" lon="5.71373">
        <ele>13.3</ele>
        <time>2021-12-01T14:03:14Z</time>
      </trkpt>
      <trkpt lat="43.1492" lon="5.71379">
        <ele>13</ele>
        <time>2021-12-01T14:03:18Z</time>
      </trkpt>
      <trkpt lat="43.14923" lon="5.71385">
        <ele>12.4</ele>
        <time>2021-12-01T14:03:22Z</time>
      </trkpt>
      <trkpt lat="43.14927" lon="5.71391">
        <ele>12.5</ele>
        <time>2021-12-01T14:03:28Z</time>
      </trkpt>
      <trkpt lat="43.14929" lon="5.71399">
        <ele>12.5</ele>
        <time>2021-12-01T14:03:34Z</time>
      </trkpt>
      <trkpt lat="43.14931" lon="5.71406">
        <ele>12.3</ele>
        <time>2021-12-01T14:03:38Z</time>
      </trkpt>
      <trkpt lat="43.14933" lon="5.71413">
        <ele>12</ele>
        <time>2021-12-01T14:03:42Z</time>
      </trkpt>
      <trkpt lat="43.14935" lon="5.71418">
        <ele>12</ele>
        <time>2021-12-01T14:03:46Z</time>
      </trkpt>
      <trkpt lat="43.1494" lon="5.71424">
        <ele>12.1</ele>
        <time>2021-12-01T14:03:52Z</time>
      </trkpt>
      <trkpt lat="43.14944" lon="5.71432">
        <ele>11.9</ele>
        <time>2021-12-01T14:03:58Z</time>
      </trkpt>
      <trkpt lat="43.14947" lon="5.71436">
        <ele>12</ele>
        <time>2021-12-01T14:04:02Z</time>
      </trkpt>
      <trkpt lat="43.1495" lon="5.71444">
        <ele>11.8</ele>
        <time>2021-12-01T14:04:08Z</time>
      </trkpt>
      <trkpt lat="43.14954" lon="5.7145">
        <ele>12.3</ele>
        <time>2021-12-01T14:04:14Z</time>
      </trkpt>
      <trkpt lat="43.14959" lon="5.71455">
        <ele>12.9</ele>
        <time>2021-12-01T14:04:20Z</time>
      </trkpt>
      <trkpt lat="43.14965" lon="5.71459">
        <ele>13.4</ele>
        <time>2021-12-01T14:04:26Z</time>
      </trkpt>
      <trkpt lat="43.14971" lon="5.71463">
        <ele>13.6</ele>
        <time>2021-12-01T14:04:32Z</time>
      </trkpt>
      <trkpt lat="43.14976" lon="5.71467">
        <ele>13.6</ele>
        <time>2021-12-01T14:04:38Z</time>
      </trkpt>
      <trkpt lat="43.1498" lon="5.71471">
        <ele>13.4</ele>
        <time>2021-12-01T14:04:46Z</time>
      </trkpt>
      <trkpt lat="43.14986" lon="5.71473">
        <ele>13.5</ele>
        <time>2021-12-01T14:04:52Z</time>
      </trkpt>
      <trkpt lat="43.14991" lon="5.71471">
        <ele>13.8</ele>
        <time>2021-12-01T14:05:02Z</time>
      </trkpt>
      <trkpt lat="43.14995" lon="5.71469">
        <ele>14.2</ele>
        <time>2021-12-01T14:05:12Z</time>
      </trkpt>
      <trkpt lat="43.15001" lon="5.71471">
        <ele>14.1</ele>
        <time>2021-12-01T14:05:20Z</time>
      </trkpt>
      <trkpt lat="43.15006" lon="5.71471">
        <ele>14.1</ele>
        <time>2021-12-01T14:05:28Z</time>
      </trkpt>
      <trkpt lat="43.15011" lon="5.7147">
        <ele>14.2</ele>
        <time>2021-12-01T14:05:34Z</time>
      </trkpt>
      <trkpt lat="43.15016" lon="5.71469">
        <ele>14.3</ele>
        <time>2021-12-01T14:05:42Z</time>
      </trkpt>
      <trkpt lat="43.15022" lon="5.71468">
        <ele>14.4</ele>
        <time>2021-12-01T14:05:48Z</time>
      </trkpt>
      <trkpt lat="43.15027" lon="5.71468">
        <ele>14.5</ele>
        <time>2021-12-01T14:05:52Z</time>
      </trkpt>
      <trkpt lat="43.15034" lon="5.71467">
        <ele>14.6</ele>
        <time>2021-12-01T14:05:56Z</time>
      </trkpt>
      <trkpt lat="43.15039" lon="5.71466">
        <ele>14.8</ele>
        <time>2021-12-01T14:06:00Z</time>
      </trkpt>
      <trkpt lat="43.15045" lon="5.71465">
        <ele>15</ele>
        <time>2021-12-01T14:06:06Z</time>
      </trkpt>
      <trkpt lat="43.1505" lon="5.71465">
        <ele>15</ele>
        <time>2021-12-01T14:06:12Z</time>
      </trkpt>
      <trkpt lat="43.15057" lon="5.71466">
        <ele>15</ele>
        <time>2021-12-01T14:06:18Z</time>
      </trkpt>
      <trkpt lat="43.15062" lon="5.71466">
        <ele>15.1</ele>
        <time>2021-12-01T14:06:22Z</time>
      </trkpt>
      <trkpt lat="43.15066" lon="5.71467">
        <ele>15.2</ele>
        <time>2021-12-01T14:06:26Z</time>
      </trkpt>
      <trkpt lat="43.15072" lon="5.71468">
        <ele>15.2</ele>
        <time>2021-12-01T14:06:32Z</time>
      </trkpt>
      <trkpt lat="43.15078" lon="5.71469">
        <ele>15.3</ele>
        <time>2021-12-01T14:06:38Z</time>
      </trkpt>
      <trkpt lat="43.15085" lon="5.71471">
        <ele>15.2</ele>
        <time>2021-12-01T14:06:44Z</time>
      </trkpt>
      <trkpt lat="43.15092" lon="5.71473">
        <ele>15.3</ele>
        <time>2021-12-01T14:06:50Z</time>
      </trkpt>
      <trkpt lat="43.151" lon="5.71474">
        <ele>15.6</ele>
        <time>2021-12-01T14:06:54Z</time>
      </trkpt>
      <trkpt lat="43.15105" lon="5.71476">
        <ele>15.8</ele>
        <time>2021-12-01T14:07:02Z</time>
      </trkpt>
      <trkpt lat="43.1511" lon="5.71477">
        <ele>16</ele>
        <time>2021-12-01T14:07:08Z</time>
      </trkpt>
      <trkpt lat="43.15114" lon="5.71478">
        <ele>16.1</ele>
        <time>2021-12-01T14:07:14Z</time>
      </trkpt>
      <trkpt lat="43.15119" lon="5.71477">
        <ele>16.2</ele>
        <time>2021-12-01T14:07:22Z</time>
      </trkpt>
      <trkpt lat="43.15125" lon="5.71479">
        <ele>16.4</ele>
        <time>2021-12-01T14:07:26Z</time>
      </trkpt>
      <trkpt lat="43.1513" lon="5.71482">
        <ele>16.5</ele>
        <time>2021-12-01T14:07:30Z</time>
      </trkpt>
      <trkpt lat="43.15136" lon="5.71485">
        <ele>16.5</ele>
        <time>2021-12-01T14:07:34Z</time>
      </trkpt>
      <trkpt lat="43.15141" lon="5.71488">
        <ele>16.5</ele>
        <time>2021-12-01T14:07:38Z</time>
      </trkpt>
      <trkpt lat="43.15145" lon="5.71491">
        <ele>16.6</ele>
        <time>2021-12-01T14:07:42Z</time>
      </trkpt>
      <trkpt lat="43.1515" lon="5.71495">
        <ele>16.7</ele>
        <time>2021-12-01T14:07:48Z</time>
      </trkpt>
      <trkpt lat="43.15155" lon="5.715">
        <ele>16.6</ele>
        <time>2021-12-01T14:07:56Z</time>
      </trkpt>
      <trkpt lat="43.15159" lon="5.71504">
        <ele>16.9</ele>
        <time>2021-12-01T14:08:02Z</time>
      </trkpt>
      <trkpt lat="43.15164" lon="5.71505">
        <ele>16.9</ele>
        <time>2021-12-01T14:08:08Z</time>
      </trkpt>
      <trkpt lat="43.15169" lon="5.71506">
        <ele>17.1</ele>
        <time>2021-12-01T14:08:16Z</time>
      </trkpt>
      <trkpt lat="43.15174" lon="5.71508">
        <ele>17.4</ele>
        <time>2021-12-01T14:08:22Z</time>
      </trkpt>
      <trkpt lat="43.15181" lon="5.71509">
        <ele>17.9</ele>
        <time>2021-12-01T14:08:28Z</time>
      </trkpt>
      <trkpt lat="43.15188" lon="5.71509">
        <ele>18.3</ele>
        <time>2021-12-01T14:08:34Z</time>
      </trkpt>
      <trkpt lat="43.15192" lon="5.71506">
        <ele>18.7</ele>
        <time>2021-12-01T14:08:38Z</time>
      </trkpt>
      <trkpt lat="43.15197" lon="5.71505">
        <ele>18.9</ele>
        <time>2021-12-01T14:08:44Z</time>
      </trkpt>
      <trkpt lat="43.15203" lon="5.71503">
        <ele>19.1</ele>
        <time>2021-12-01T14:08:50Z</time>
      </trkpt>
      <trkpt lat="43.15209" lon="5.71503">
        <ele>19.4</ele>
        <time>2021-12-01T14:08:56Z</time>
      </trkpt>
      <trkpt lat="43.15214" lon="5.71503">
        <ele>19.5</ele>
        <time>2021-12-01T14:09:00Z</time>
      </trkpt>
      <trkpt lat="43.1522" lon="5.71502">
        <ele>19.8</ele>
        <time>2021-12-01T14:09:06Z</time>
      </trkpt>
      <trkpt lat="43.15225" lon="5.71501">
        <ele>20.1</ele>
        <time>2021-12-01T14:09:12Z</time>
      </trkpt>
      <trkpt lat="43.1523" lon="5.71499">
        <ele>20.6</ele>
        <time>2021-12-01T14:09:18Z</time>
      </trkpt>
      <trkpt lat="43.15234" lon="5.71498">
        <ele>21</ele>
        <time>2021-12-01T14:09:26Z</time>
      </trkpt>
      <trkpt lat="43.15239" lon="5.71498">
        <ele>21.3</ele>
        <time>2021-12-01T14:09:34Z</time>
      </trkpt>
      <trkpt lat="43.15244" lon="5.71497">
        <ele>21.6</ele>
        <time>2021-12-01T14:09:38Z</time>
      </trkpt>
      <trkpt lat="43.1525" lon="5.71496">
        <ele>22</ele>
        <time>2021-12-01T14:09:44Z</time>
      </trkpt>
      <trkpt lat="43.15254" lon="5.71493">
        <ele>22</ele>
        <time>2021-12-01T14:09:50Z</time>
      </trkpt>
      <trkpt lat="43.15258" lon="5.71489">
        <ele>22.1</ele>
        <time>2021-12-01T14:09:56Z</time>
      </trkpt>
      <trkpt lat="43.15264" lon="5.71485">
        <ele>22.3</ele>
        <time>2021-12-01T14:10:00Z</time>
      </trkpt>
      <trkpt lat="43.1527" lon="5.7148">
        <ele>22.8</ele>
        <time>2021-12-01T14:10:04Z</time>
      </trkpt>
      <trkpt lat="43.15279" lon="5.71473">
        <ele>23.8</ele>
        <time>2021-12-01T14:10:08Z</time>
      </trkpt>
      <trkpt lat="43.15283" lon="5.7147">
        <ele>23.6</ele>
        <time>2021-12-01T14:10:10Z</time>
      </trkpt>
      <trkpt lat="43.1529" lon="5.71465">
        <ele>23.3</ele>
        <time>2021-12-01T14:10:14Z</time>
      </trkpt>
      <trkpt lat="43.15294" lon="5.71459">
        <ele>23.5</ele>
        <time>2021-12-01T14:10:20Z</time>
      </trkpt>
      <trkpt lat="43.153" lon="5.71455">
        <ele>23.7</ele>
        <time>2021-12-01T14:10:26Z</time>
      </trkpt>
      <trkpt lat="43.15305" lon="5.71454">
        <ele>23.6</ele>
        <time>2021-12-01T14:10:30Z</time>
      </trkpt>
      <trkpt lat="43.15311" lon="5.71454">
        <ele>23.7</ele>
        <time>2021-12-01T14:10:36Z</time>
      </trkpt>
      <trkpt lat="43.15316" lon="5.71455">
        <ele>23.6</ele>
        <time>2021-12-01T14:10:42Z</time>
      </trkpt>
      <trkpt lat="43.15322" lon="5.71455">
        <ele>23.7</ele>
        <time>2021-12-01T14:10:48Z</time>
      </trkpt>
      <trkpt lat="43.15328" lon="5.71453">
        <ele>24</ele>
        <time>2021-12-01T14:10:54Z</time>
      </trkpt>
      <trkpt lat="43.15332" lon="5.71451">
        <ele>24.3</ele>
        <time>2021-12-01T14:11:00Z</time>
      </trkpt>
      <trkpt lat="43.15338" lon="5.71448">
        <ele>24.5</ele>
        <time>2021-12-01T14:11:08Z</time>
      </trkpt>
      <trkpt lat="43.15343" lon="5.71445">
        <ele>24.6</ele>
        <time>2021-12-01T14:11:16Z</time>
      </trkpt>
      <trkpt lat="43.15349" lon="5.71443">
        <ele>24.6</ele>
        <time>2021-12-01T14:11:24Z</time>
      </trkpt>
      <trkpt lat="43.15355" lon="5.71443">
        <ele>24.4</ele>
        <time>2021-12-01T14:11:32Z</time>
      </trkpt>
      <trkpt lat="43.15363" lon="5.71443">
        <ele>24.2</ele>
        <time>2021-12-01T14:11:38Z</time>
      </trkpt>
      <trkpt lat="43.15368" lon="5.71443">
        <ele>24.2</ele>
        <time>2021-12-01T14:11:42Z</time>
      </trkpt>
      <trkpt lat="43.15372" lon="5.71438">
        <ele>24.8</ele>
        <time>2021-12-01T14:12:24Z</time>
      </trkpt>
      <trkpt lat="43.15373" lon="5.71432">
        <ele>25.6</ele>
        <time>2021-12-01T14:12:36Z</time>
      </trkpt>
      <trkpt lat="43.15368" lon="5.71434">
        <ele>25.5</ele>
        <time>2021-12-01T14:12:48Z</time>
      </trkpt>
      <trkpt lat="43.15365" lon="5.71429">
        <ele>26.2</ele>
        <time>2021-12-01T14:13:12Z</time>
      </trkpt>
      <trkpt lat="43.15366" lon="5.7142">
        <ele>27.3</ele>
        <time>2021-12-01T14:13:24Z</time>
      </trkpt>
      <trkpt lat="43.15366" lon="5.71413">
        <ele>28.1</ele>
        <time>2021-12-01T14:13:30Z</time>
      </trkpt>
      <trkpt lat="43.15368" lon="5.71407">
        <ele>28.4</ele>
        <time>2021-12-01T14:13:38Z</time>
      </trkpt>
      <trkpt lat="43.1537" lon="5.71401">
        <ele>28.8</ele>
        <time>2021-12-01T14:13:44Z</time>
      </trkpt>
      <trkpt lat="43.15372" lon="5.71395">
        <ele>29.2</ele>
        <time>2021-12-01T14:13:48Z</time>
      </trkpt>
      <trkpt lat="43.15374" lon="5.71388">
        <ele>29.6</ele>
        <time>2021-12-01T14:13:54Z</time>
      </trkpt>
      <trkpt lat="43.15375" lon="5.7138">
        <ele>29.6</ele>
        <time>2021-12-01T14:14:00Z</time>
      </trkpt>
      <trkpt lat="43.15377" lon="5.71372">
        <ele>29.8</ele>
        <time>2021-12-01T14:14:06Z</time>
      </trkpt>
      <trkpt lat="43.15378" lon="5.71364">
        <ele>29.9</ele>
        <time>2021-12-01T14:14:12Z</time>
      </trkpt>
      <trkpt lat="43.1538" lon="5.71357">
        <ele>30.1</ele>
        <time>2021-12-01T14:14:18Z</time>
      </trkpt>
      <trkpt lat="43.15382" lon="5.71349">
        <ele>30.1</ele>
        <time>2021-12-01T14:14:24Z</time>
      </trkpt>
      <trkpt lat="43.15384" lon="5.71344">
        <ele>30.1</ele>
        <time>2021-12-01T14:14:28Z</time>
      </trkpt>
      <trkpt lat="43.15385" lon="5.71338">
        <ele>30.1</ele>
        <time>2021-12-01T14:14:32Z</time>
      </trkpt>
      <trkpt lat="43.15387" lon="5.71332">
        <ele>30.2</ele>
        <time>2021-12-01T14:14:36Z</time>
      </trkpt>
      <trkpt lat="43.15389" lon="5.71324">
        <ele>30.6</ele>
        <time>2021-12-01T14:14:42Z</time>
      </trkpt>
      <trkpt lat="43.15391" lon="5.71318">
        <ele>30.9</ele>
        <time>2021-12-01T14:14:48Z</time>
      </trkpt>
      <trkpt lat="43.15393" lon="5.71311">
        <ele>31.3</ele>
        <time>2021-12-01T14:14:54Z</time>
      </trkpt>
      <trkpt lat="43.15396" lon="5.71305">
        <ele>31.6</ele>
        <time>2021-12-01T14:15:00Z</time>
      </trkpt>
      <trkpt lat="43.15399" lon="5.71299">
        <ele>31.8</ele>
        <time>2021-12-01T14:15:12Z</time>
      </trkpt>
      <trkpt lat="43.15401" lon="5.71292">
        <ele>32.2</ele>
        <time>2021-12-01T14:15:18Z</time>
      </trkpt>
      <trkpt lat="43.15403" lon="5.71285">
        <ele>32.4</ele>
        <time>2021-12-01T14:15:24Z</time>
      </trkpt>
      <trkpt lat="43.15407" lon="5.71278">
        <ele>32.7</ele>
        <time>2021-12-01T14:15:32Z</time>
      </trkpt>
      <trkpt lat="43.15408" lon="5.71271">
        <ele>33.4</ele>
        <time>2021-12-01T14:15:38Z</time>
      </trkpt>
      <trkpt lat="43.1541" lon="5.71264">
        <ele>33.9</ele>
        <time>2021-12-01T14:15:44Z</time>
      </trkpt>
      <trkpt lat="43.15412" lon="5.71258">
        <ele>34.4</ele>
        <time>2021-12-01T14:15:50Z</time>
      </trkpt>
      <trkpt lat="43.15414" lon="5.71251">
        <ele>35.2</ele>
        <time>2021-12-01T14:15:58Z</time>
      </trkpt>
      <trkpt lat="43.15415" lon="5.71242">
        <ele>36</ele>
        <time>2021-12-01T14:16:04Z</time>
      </trkpt>
      <trkpt lat="43.15417" lon="5.71235">
        <ele>36.6</ele>
        <time>2021-12-01T14:16:10Z</time>
      </trkpt>
      <trkpt lat="43.1542" lon="5.7123">
        <ele>36.9</ele>
        <time>2021-12-01T14:16:16Z</time>
      </trkpt>
      <trkpt lat="43.15423" lon="5.71226">
        <ele>37.2</ele>
        <time>2021-12-01T14:16:24Z</time>
      </trkpt>
      <trkpt lat="43.15425" lon="5.71219">
        <ele>37.7</ele>
        <time>2021-12-01T14:16:38Z</time>
      </trkpt>
      <trkpt lat="43.15428" lon="5.71213">
        <ele>38</ele>
        <time>2021-12-01T14:16:46Z</time>
      </trkpt>
      <trkpt lat="43.15428" lon="5.71206">
        <ele>38.6</ele>
        <time>2021-12-01T14:16:56Z</time>
      </trkpt>
      <trkpt lat="43.1543" lon="5.71198">
        <ele>39.2</ele>
        <time>2021-12-01T14:17:02Z</time>
      </trkpt>
      <trkpt lat="43.15432" lon="5.7119">
        <ele>39.8</ele>
        <time>2021-12-01T14:17:08Z</time>
      </trkpt>
      <trkpt lat="43.15435" lon="5.71182">
        <ele>40.4</ele>
        <time>2021-12-01T14:17:14Z</time>
      </trkpt>
      <trkpt lat="43.15435" lon="5.71176">
        <ele>40.9</ele>
        <time>2021-12-01T14:17:20Z</time>
      </trkpt>
      <trkpt lat="43.15436" lon="5.71169">
        <ele>41.5</ele>
        <time>2021-12-01T14:17:28Z</time>
      </trkpt>
      <trkpt lat="43.15437" lon="5.71162">
        <ele>42.2</ele>
        <time>2021-12-01T14:17:36Z</time>
      </trkpt>
      <trkpt lat="43.1544" lon="5.71156">
        <ele>42.8</ele>
        <time>2021-12-01T14:17:44Z</time>
      </trkpt>
      <trkpt lat="43.15443" lon="5.71151">
        <ele>43.4</ele>
        <time>2021-12-01T14:17:50Z</time>
      </trkpt>
      <trkpt lat="43.15446" lon="5.71143">
        <ele>44.3</ele>
        <time>2021-12-01T14:17:56Z</time>
      </trkpt>
      <trkpt lat="43.15447" lon="5.71136">
        <ele>45.1</ele>
        <time>2021-12-01T14:18:02Z</time>
      </trkpt>
      <trkpt lat="43.15449" lon="5.71129">
        <ele>45.7</ele>
        <time>2021-12-01T14:18:10Z</time>
      </trkpt>
      <trkpt lat="43.15451" lon="5.71122">
        <ele>46.3</ele>
        <time>2021-12-01T14:18:20Z</time>
      </trkpt>
      <trkpt lat="43.15452" lon="5.71115">
        <ele>47.1</ele>
        <time>2021-12-01T14:18:30Z</time>
      </trkpt>
      <trkpt lat="43.15453" lon="5.71109">
        <ele>47.7</ele>
        <time>2021-12-01T14:18:40Z</time>
      </trkpt>
      <trkpt lat="43.15454" lon="5.71102">
        <ele>48.4</ele>
        <time>2021-12-01T14:18:52Z</time>
      </trkpt>
      <trkpt lat="43.15458" lon="5.71097">
        <ele>48.8</ele>
        <time>2021-12-01T14:19:00Z</time>
      </trkpt>
      <trkpt lat="43.15463" lon="5.71094">
        <ele>49</ele>
        <time>2021-12-01T14:19:06Z</time>
      </trkpt>
      <trkpt lat="43.15467" lon="5.7109">
        <ele>49.3</ele>
        <time>2021-12-01T14:19:14Z</time>
      </trkpt>
      <trkpt lat="43.15471" lon="5.71086">
        <ele>49.7</ele>
        <time>2021-12-01T14:19:24Z</time>
      </trkpt>
      <trkpt lat="43.15473" lon="5.7108">
        <ele>50.2</ele>
        <time>2021-12-01T14:19:32Z</time>
      </trkpt>
      <trkpt lat="43.15477" lon="5.71074">
        <ele>50.1</ele>
        <time>2021-12-01T14:19:42Z</time>
      </trkpt>
      <trkpt lat="43.15481" lon="5.7107">
        <ele>49.9</ele>
        <time>2021-12-01T14:19:48Z</time>
      </trkpt>
      <trkpt lat="43.15485" lon="5.71066">
        <ele>50</ele>
        <time>2021-12-01T14:19:54Z</time>
      </trkpt>
      <trkpt lat="43.15488" lon="5.71061">
        <ele>50.3</ele>
        <time>2021-12-01T14:20:00Z</time>
      </trkpt>
      <trkpt lat="43.15491" lon="5.71054">
        <ele>50.7</ele>
        <time>2021-12-01T14:20:06Z</time>
      </trkpt>
      <trkpt lat="43.15492" lon="5.71046">
        <ele>51.6</ele>
        <time>2021-12-01T14:20:12Z</time>
      </trkpt>
      <trkpt lat="43.15491" lon="5.7104">
        <ele>52.3</ele>
        <time>2021-12-01T14:20:20Z</time>
      </trkpt>
      <trkpt lat="43.1549" lon="5.71034">
        <ele>53.1</ele>
        <time>2021-12-01T14:20:36Z</time>
      </trkpt>
      <trkpt lat="43.15493" lon="5.71028">
        <ele>53.5</ele>
        <time>2021-12-01T14:22:32Z</time>
      </trkpt>
      <trkpt lat="43.15494" lon="5.71025">
        <ele>53.8</ele>
        <time>2021-12-01T14:23:00Z</time>
      </trkpt>
      <trkpt lat="43.15493" lon="5.71017">
        <ele>55</ele>
        <time>2021-12-01T14:23:09Z</time>
      </trkpt>
      <trkpt lat="43.15495" lon="5.7101">
        <ele>55.8</ele>
        <time>2021-12-01T14:23:15Z</time>
      </trkpt>
      <trkpt lat="43.15498" lon="5.71004">
        <ele>56.5</ele>
        <time>2021-12-01T14:23:25Z</time>
      </trkpt>
      <trkpt lat="43.15501" lon="5.70998">
        <ele>57.1</ele>
        <time>2021-12-01T14:23:31Z</time>
      </trkpt>
      <trkpt lat="43.15503" lon="5.70992">
        <ele>57.5</ele>
        <time>2021-12-01T14:23:41Z</time>
      </trkpt>
      <trkpt lat="43.15506" lon="5.70987">
        <ele>57.9</ele>
        <time>2021-12-01T14:23:47Z</time>
      </trkpt>
      <trkpt lat="43.1551" lon="5.7098">
        <ele>58.3</ele>
        <time>2021-12-01T14:23:53Z</time>
      </trkpt>
      <trkpt lat="43.15514" lon="5.70975">
        <ele>58.6</ele>
        <time>2021-12-01T14:23:59Z</time>
      </trkpt>
      <trkpt lat="43.15519" lon="5.70972">
        <ele>58.7</ele>
        <time>2021-12-01T14:24:05Z</time>
      </trkpt>
      <trkpt lat="43.15522" lon="5.70967">
        <ele>59.1</ele>
        <time>2021-12-01T14:24:15Z</time>
      </trkpt>
      <trkpt lat="43.15524" lon="5.70961">
        <ele>59.8</ele>
        <time>2021-12-01T14:24:23Z</time>
      </trkpt>
      <trkpt lat="43.15526" lon="5.70956">
        <ele>60.5</ele>
        <time>2021-12-01T14:24:29Z</time>
      </trkpt>
      <trkpt lat="43.15528" lon="5.70951">
        <ele>61.1</ele>
        <time>2021-12-01T14:24:35Z</time>
      </trkpt>
      <trkpt lat="43.1553" lon="5.70943">
        <ele>61.8</ele>
        <time>2021-12-01T14:24:45Z</time>
      </trkpt>
      <trkpt lat="43.15531" lon="5.70936">
        <ele>62.6</ele>
        <time>2021-12-01T14:24:51Z</time>
      </trkpt>
      <trkpt lat="43.1553" lon="5.70929">
        <ele>63.5</ele>
        <time>2021-12-01T14:24:59Z</time>
      </trkpt>
      <trkpt lat="43.15534" lon="5.70925">
        <ele>63.4</ele>
        <time>2021-12-01T14:27:57Z</time>
      </trkpt>
      <trkpt lat="43.15538" lon="5.70922">
        <ele>63.3</ele>
        <time>2021-12-01T14:28:07Z</time>
      </trkpt>
      <trkpt lat="43.15543" lon="5.70918">
        <ele>63.2</ele>
        <time>2021-12-01T14:28:15Z</time>
      </trkpt>
      <trkpt lat="43.15547" lon="5.70911">
        <ele>63.8</ele>
        <time>2021-12-01T14:28:25Z</time>
      </trkpt>
      <trkpt lat="43.15547" lon="5.70902">
        <ele>65</ele>
        <time>2021-12-01T14:28:31Z</time>
      </trkpt>
      <trkpt lat="43.15547" lon="5.70894">
        <ele>66.2</ele>
        <time>2021-12-01T14:28:37Z</time>
      </trkpt>
      <trkpt lat="43.15548" lon="5.70887">
        <ele>67</ele>
        <time>2021-12-01T14:28:43Z</time>
      </trkpt>
      <trkpt lat="43.15552" lon="5.70884">
        <ele>66.9</ele>
        <time>2021-12-01T14:28:49Z</time>
      </trkpt>
      <trkpt lat="43.15557" lon="5.70881">
        <ele>66.7</ele>
        <time>2021-12-01T14:29:11Z</time>
      </trkpt>
      <trkpt lat="43.15561" lon="5.70877">
        <ele>66.6</ele>
        <time>2021-12-01T14:29:17Z</time>
      </trkpt>
      <trkpt lat="43.15564" lon="5.70872">
        <ele>66.8</ele>
        <time>2021-12-01T14:31:59Z</time>
      </trkpt>
      <trkpt lat="43.15567" lon="5.70867">
        <ele>67.1</ele>
        <time>2021-12-01T14:32:07Z</time>
      </trkpt>
      <trkpt lat="43.15571" lon="5.70861">
        <ele>67.3</ele>
        <time>2021-12-01T14:40:51Z</time>
      </trkpt>
      <trkpt lat="43.15574" lon="5.70856">
        <ele>67.6</ele>
        <time>2021-12-01T14:40:57Z</time>
      </trkpt>
      <trkpt lat="43.15577" lon="5.70851">
        <ele>67.9</ele>
        <time>2021-12-01T14:41:03Z</time>
      </trkpt>
      <trkpt lat="43.15579" lon="5.70846">
        <ele>68.1</ele>
        <time>2021-12-01T14:41:11Z</time>
      </trkpt>
      <trkpt lat="43.15583" lon="5.70841">
        <ele>68.2</ele>
        <time>2021-12-01T14:41:17Z</time>
      </trkpt>
      <trkpt lat="43.15587" lon="5.70836">
        <ele>68.3</ele>
        <time>2021-12-01T14:41:23Z</time>
      </trkpt>
      <trkpt lat="43.15591" lon="5.70831">
        <ele>68.3</ele>
        <time>2021-12-01T14:41:29Z</time>
      </trkpt>
      <trkpt lat="43.15593" lon="5.70825">
        <ele>68.8</ele>
        <time>2021-12-01T14:41:33Z</time>
      </trkpt>
      <trkpt lat="43.15599" lon="5.70821">
        <ele>68.7</ele>
        <time>2021-12-01T14:41:39Z</time>
      </trkpt>
      <trkpt lat="43.15603" lon="5.70817">
        <ele>68.6</ele>
        <time>2021-12-01T14:41:55Z</time>
      </trkpt>
      <trkpt lat="43.15609" lon="5.70816">
        <ele>68.2</ele>
        <time>2021-12-01T14:42:01Z</time>
      </trkpt>
      <trkpt lat="43.15615" lon="5.70815">
        <ele>67.7</ele>
        <time>2021-12-01T14:42:07Z</time>
      </trkpt>
      <trkpt lat="43.15621" lon="5.70812">
        <ele>67.3</ele>
        <time>2021-12-01T14:42:13Z</time>
      </trkpt>
      <trkpt lat="43.15625" lon="5.70808">
        <ele>67.2</ele>
        <time>2021-12-01T14:42:19Z</time>
      </trkpt>
      <trkpt lat="43.1563" lon="5.70806">
        <ele>67</ele>
        <time>2021-12-01T14:42:25Z</time>
      </trkpt>
      <trkpt lat="43.15635" lon="5.70801">
        <ele>67</ele>
        <time>2021-12-01T14:42:31Z</time>
      </trkpt>
      <trkpt lat="43.15639" lon="5.70795">
        <ele>67.5</ele>
        <time>2021-12-01T14:42:35Z</time>
      </trkpt>
      <trkpt lat="43.15642" lon="5.7079">
        <ele>67.9</ele>
        <time>2021-12-01T14:42:41Z</time>
      </trkpt>
      <trkpt lat="43.15647" lon="5.70785">
        <ele>67.9</ele>
        <time>2021-12-01T14:42:49Z</time>
      </trkpt>
      <trkpt lat="43.15652" lon="5.70786">
        <ele>67.3</ele>
        <time>2021-12-01T14:43:01Z</time>
      </trkpt>
      <trkpt lat="43.15658" lon="5.70784">
        <ele>66.7</ele>
        <time>2021-12-01T14:43:09Z</time>
      </trkpt>
      <trkpt lat="43.15663" lon="5.70784">
        <ele>66</ele>
        <time>2021-12-01T14:43:15Z</time>
      </trkpt>
      <trkpt lat="43.15669" lon="5.70784">
        <ele>65.4</ele>
        <time>2021-12-01T14:43:21Z</time>
      </trkpt>
      <trkpt lat="43.15674" lon="5.70786">
        <ele>65.1</ele>
        <time>2021-12-01T14:43:27Z</time>
      </trkpt>
      <trkpt lat="43.15677" lon="5.70791">
        <ele>64.4</ele>
        <time>2021-12-01T14:43:33Z</time>
      </trkpt>
      <trkpt lat="43.15683" lon="5.70795">
        <ele>63.8</ele>
        <time>2021-12-01T14:43:39Z</time>
      </trkpt>
      <trkpt lat="43.15687" lon="5.70798">
        <ele>63.3</ele>
        <time>2021-12-01T14:43:45Z</time>
      </trkpt>
      <trkpt lat="43.15692" lon="5.708">
        <ele>62.8</ele>
        <time>2021-12-01T14:43:53Z</time>
      </trkpt>
      <trkpt lat="43.15697" lon="5.70801">
        <ele>62.2</ele>
        <time>2021-12-01T14:43:59Z</time>
      </trkpt>
      <trkpt lat="43.15703" lon="5.70806">
        <ele>61</ele>
        <time>2021-12-01T14:44:05Z</time>
      </trkpt>
      <trkpt lat="43.15704" lon="5.70812">
        <ele>60.2</ele>
        <time>2021-12-01T14:44:11Z</time>
      </trkpt>
      <trkpt lat="43.15704" lon="5.70819">
        <ele>59.4</ele>
        <time>2021-12-01T14:44:19Z</time>
      </trkpt>
      <trkpt lat="43.15705" lon="5.70825">
        <ele>58.7</ele>
        <time>2021-12-01T14:44:33Z</time>
      </trkpt>
      <trkpt lat="43.15706" lon="5.70832">
        <ele>57.9</ele>
        <time>2021-12-01T14:44:39Z</time>
      </trkpt>
      <trkpt lat="43.15706" lon="5.70838">
        <ele>57.5</ele>
        <time>2021-12-01T14:44:43Z</time>
      </trkpt>
      <trkpt lat="43.15706" lon="5.70845">
        <ele>57.1</ele>
        <time>2021-12-01T14:44:47Z</time>
      </trkpt>
      <trkpt lat="43.15705" lon="5.70852">
        <ele>56.9</ele>
        <time>2021-12-01T14:44:53Z</time>
      </trkpt>
      <trkpt lat="43.15703" lon="5.7086">
        <ele>56.8</ele>
        <time>2021-12-01T14:44:59Z</time>
      </trkpt>
      <trkpt lat="43.15704" lon="5.70868">
        <ele>56</ele>
        <time>2021-12-01T14:45:05Z</time>
      </trkpt>
      <trkpt lat="43.15703" lon="5.70875">
        <ele>55.4</ele>
        <time>2021-12-01T14:45:09Z</time>
      </trkpt>
      <trkpt lat="43.15705" lon="5.70883">
        <ele>54.4</ele>
        <time>2021-12-01T14:45:15Z</time>
      </trkpt>
      <trkpt lat="43.15706" lon="5.70891">
        <ele>53.5</ele>
        <time>2021-12-01T14:45:21Z</time>
      </trkpt>
      <trkpt lat="43.15709" lon="5.70898">
        <ele>52.3</ele>
        <time>2021-12-01T14:45:27Z</time>
      </trkpt>
      <trkpt lat="43.15711" lon="5.70906">
        <ele>51.1</ele>
        <time>2021-12-01T14:45:33Z</time>
      </trkpt>
      <trkpt lat="43.15713" lon="5.70913">
        <ele>50.1</ele>
        <time>2021-12-01T14:45:39Z</time>
      </trkpt>
      <trkpt lat="43.15716" lon="5.7092">
        <ele>49</ele>
        <time>2021-12-01T14:45:45Z</time>
      </trkpt>
      <trkpt lat="43.15718" lon="5.70927">
        <ele>47.9</ele>
        <time>2021-12-01T14:45:51Z</time>
      </trkpt>
      <trkpt lat="43.1572" lon="5.70934">
        <ele>46.9</ele>
        <time>2021-12-01T14:46:01Z</time>
      </trkpt>
      <trkpt lat="43.1572" lon="5.7094">
        <ele>46</ele>
        <time>2021-12-01T14:46:11Z</time>
      </trkpt>
      <trkpt lat="43.1572" lon="5.70948">
        <ele>45.1</ele>
        <time>2021-12-01T14:46:19Z</time>
      </trkpt>
      <trkpt lat="43.15721" lon="5.70955">
        <ele>44.5</ele>
        <time>2021-12-01T14:46:25Z</time>
      </trkpt>
      <trkpt lat="43.15722" lon="5.70961">
        <ele>43.9</ele>
        <time>2021-12-01T14:46:33Z</time>
      </trkpt>
      <trkpt lat="43.15725" lon="5.70967">
        <ele>43.2</ele>
        <time>2021-12-01T14:46:41Z</time>
      </trkpt>
      <trkpt lat="43.15729" lon="5.70972">
        <ele>42.5</ele>
        <time>2021-12-01T14:46:45Z</time>
      </trkpt>
      <trkpt lat="43.15732" lon="5.70977">
        <ele>42</ele>
        <time>2021-12-01T14:46:49Z</time>
      </trkpt>
      <trkpt lat="43.15735" lon="5.70982">
        <ele>41.6</ele>
        <time>2021-12-01T14:46:53Z</time>
      </trkpt>
      <trkpt lat="43.15735" lon="5.70989">
        <ele>41.1</ele>
        <time>2021-12-01T14:46:59Z</time>
      </trkpt>
      <trkpt lat="43.15735" lon="5.70996">
        <ele>40.8</ele>
        <time>2021-12-01T14:47:07Z</time>
      </trkpt>
      <trkpt lat="43.15742" lon="5.70994">
        <ele>40.6</ele>
        <time>2021-12-01T14:47:15Z</time>
      </trkpt>
      <trkpt lat="43.15747" lon="5.70991">
        <ele>40.5</ele>
        <time>2021-12-01T14:47:21Z</time>
      </trkpt>
      <trkpt lat="43.15752" lon="5.70988">
        <ele>40.5</ele>
        <time>2021-12-01T14:47:27Z</time>
      </trkpt>
      <trkpt lat="43.15756" lon="5.70983">
        <ele>40.9</ele>
        <time>2021-12-01T14:47:33Z</time>
      </trkpt>
      <trkpt lat="43.15761" lon="5.70979">
        <ele>41.3</ele>
        <time>2021-12-01T14:47:41Z</time>
      </trkpt>
      <trkpt lat="43.15765" lon="5.70972">
        <ele>41.6</ele>
        <time>2021-12-01T14:47:47Z</time>
      </trkpt>
      <trkpt lat="43.15769" lon="5.70966">
        <ele>41.9</ele>
        <time>2021-12-01T14:47:53Z</time>
      </trkpt>
      <trkpt lat="43.15773" lon="5.70961">
        <ele>42</ele>
        <time>2021-12-01T14:47:57Z</time>
      </trkpt>
      <trkpt lat="43.15776" lon="5.70955">
        <ele>42.1</ele>
        <time>2021-12-01T14:48:01Z</time>
      </trkpt>
      <trkpt lat="43.15779" lon="5.7095">
        <ele>42.1</ele>
        <time>2021-12-01T14:48:07Z</time>
      </trkpt>
      <trkpt lat="43.15781" lon="5.70944">
        <ele>42.3</ele>
        <time>2021-12-01T14:48:15Z</time>
      </trkpt>
      <trkpt lat="43.15784" lon="5.70939">
        <ele>42.7</ele>
        <time>2021-12-01T14:48:23Z</time>
      </trkpt>
      <trkpt lat="43.15787" lon="5.70933">
        <ele>43.1</ele>
        <time>2021-12-01T14:48:33Z</time>
      </trkpt>
      <trkpt lat="43.15791" lon="5.70929">
        <ele>43.3</ele>
        <time>2021-12-01T14:48:41Z</time>
      </trkpt>
      <trkpt lat="43.15794" lon="5.70924">
        <ele>43.4</ele>
        <time>2021-12-01T14:48:47Z</time>
      </trkpt>
      <trkpt lat="43.15797" lon="5.70917">
        <ele>43.3</ele>
        <time>2021-12-01T14:48:53Z</time>
      </trkpt>
      <trkpt lat="43.158" lon="5.70911">
        <ele>43.6</ele>
        <time>2021-12-01T14:48:59Z</time>
      </trkpt>
      <trkpt lat="43.15804" lon="5.70906">
        <ele>43.8</ele>
        <time>2021-12-01T14:49:05Z</time>
      </trkpt>
      <trkpt lat="43.15807" lon="5.70899">
        <ele>44.4</ele>
        <time>2021-12-01T14:49:13Z</time>
      </trkpt>
      <trkpt lat="43.15812" lon="5.70894">
        <ele>45</ele>
        <time>2021-12-01T14:49:19Z</time>
      </trkpt>
      <trkpt lat="43.15815" lon="5.70888">
        <ele>45.4</ele>
        <time>2021-12-01T14:49:25Z</time>
      </trkpt>
      <trkpt lat="43.15819" lon="5.7088">
        <ele>45.8</ele>
        <time>2021-12-01T14:49:31Z</time>
      </trkpt>
      <trkpt lat="43.15821" lon="5.70873">
        <ele>46.1</ele>
        <time>2021-12-01T14:49:37Z</time>
      </trkpt>
      <trkpt lat="43.15823" lon="5.70867">
        <ele>46.2</ele>
        <time>2021-12-01T14:49:43Z</time>
      </trkpt>
      <trkpt lat="43.15825" lon="5.7086">
        <ele>46.3</ele>
        <time>2021-12-01T14:49:53Z</time>
      </trkpt>
      <trkpt lat="43.15828" lon="5.70855">
        <ele>46.5</ele>
        <time>2021-12-01T14:49:59Z</time>
      </trkpt>
      <trkpt lat="43.1583" lon="5.70848">
        <ele>46.6</ele>
        <time>2021-12-01T14:50:05Z</time>
      </trkpt>
      <trkpt lat="43.15832" lon="5.70843">
        <ele>46.8</ele>
        <time>2021-12-01T14:50:09Z</time>
      </trkpt>
      <trkpt lat="43.15835" lon="5.70838">
        <ele>47</ele>
        <time>2021-12-01T14:50:17Z</time>
      </trkpt>
      <trkpt lat="43.15839" lon="5.70831">
        <ele>47.5</ele>
        <time>2021-12-01T14:50:25Z</time>
      </trkpt>
      <trkpt lat="43.15842" lon="5.70825">
        <ele>48.1</ele>
        <time>2021-12-01T14:50:29Z</time>
      </trkpt>
      <trkpt lat="43.15844" lon="5.70817">
        <ele>48.6</ele>
        <time>2021-12-01T14:50:35Z</time>
      </trkpt>
      <trkpt lat="43.15846" lon="5.7081">
        <ele>48.9</ele>
        <time>2021-12-01T14:50:43Z</time>
      </trkpt>
      <trkpt lat="43.15848" lon="5.70805">
        <ele>49</ele>
        <time>2021-12-01T14:50:47Z</time>
      </trkpt>
      <trkpt lat="43.15853" lon="5.708">
        <ele>48.8</ele>
        <time>2021-12-01T14:50:53Z</time>
      </trkpt>
      <trkpt lat="43.15857" lon="5.70796">
        <ele>48.7</ele>
        <time>2021-12-01T14:50:59Z</time>
      </trkpt>
      <trkpt lat="43.15861" lon="5.70792">
        <ele>48.5</ele>
        <time>2021-12-01T14:51:05Z</time>
      </trkpt>
      <trkpt lat="43.15865" lon="5.70787">
        <ele>49.5</ele>
        <time>2021-12-01T14:51:13Z</time>
      </trkpt>
      <trkpt lat="43.15868" lon="5.7078">
        <ele>50.4</ele>
        <time>2021-12-01T14:51:21Z</time>
      </trkpt>
      <trkpt lat="43.15872" lon="5.70784">
        <ele>51.1</ele>
        <time>2021-12-01T14:51:29Z</time>
      </trkpt>
      <trkpt lat="43.15874" lon="5.70791">
        <ele>51.3</ele>
        <time>2021-12-01T14:51:35Z</time>
      </trkpt>
      <trkpt lat="43.15879" lon="5.7079">
        <ele>52.5</ele>
        <time>2021-12-01T14:51:43Z</time>
      </trkpt>
      <trkpt lat="43.15884" lon="5.70792">
        <ele>53.3</ele>
        <time>2021-12-01T14:51:53Z</time>
      </trkpt>
      <trkpt lat="43.15888" lon="5.70794">
        <ele>54.3</ele>
        <time>2021-12-01T14:52:03Z</time>
      </trkpt>
      <trkpt lat="43.15893" lon="5.70794">
        <ele>55.9</ele>
        <time>2021-12-01T14:52:09Z</time>
      </trkpt>
      <trkpt lat="43.15898" lon="5.7079">
        <ele>57.8</ele>
        <time>2021-12-01T14:52:17Z</time>
      </trkpt>
      <trkpt lat="43.15901" lon="5.70785">
        <ele>58.9</ele>
        <time>2021-12-01T14:52:23Z</time>
      </trkpt>
      <trkpt lat="43.15902" lon="5.70777">
        <ele>59.3</ele>
        <time>2021-12-01T14:52:33Z</time>
      </trkpt>
      <trkpt lat="43.15904" lon="5.70771">
        <ele>59.3</ele>
        <time>2021-12-01T14:52:39Z</time>
      </trkpt>
      <trkpt lat="43.15907" lon="5.70765">
        <ele>59.4</ele>
        <time>2021-12-01T14:52:45Z</time>
      </trkpt>
      <trkpt lat="43.1591" lon="5.7076">
        <ele>59.9</ele>
        <time>2021-12-01T14:52:51Z</time>
      </trkpt>
      <trkpt lat="43.15913" lon="5.70753">
        <ele>60.2</ele>
        <time>2021-12-01T14:52:57Z</time>
      </trkpt>
      <trkpt lat="43.15917" lon="5.70747">
        <ele>60.7</ele>
        <time>2021-12-01T14:53:03Z</time>
      </trkpt>
      <trkpt lat="43.15922" lon="5.70742">
        <ele>61.5</ele>
        <time>2021-12-01T14:53:09Z</time>
      </trkpt>
      <trkpt lat="43.15926" lon="5.70735">
        <ele>62.1</ele>
        <time>2021-12-01T14:53:15Z</time>
      </trkpt>
      <trkpt lat="43.15929" lon="5.70728">
        <ele>62.3</ele>
        <time>2021-12-01T14:53:21Z</time>
      </trkpt>
      <trkpt lat="43.15931" lon="5.7072">
        <ele>61.9</ele>
        <time>2021-12-01T14:53:27Z</time>
      </trkpt>
      <trkpt lat="43.15935" lon="5.70713">
        <ele>62.1</ele>
        <time>2021-12-01T14:53:33Z</time>
      </trkpt>
      <trkpt lat="43.15938" lon="5.70708">
        <ele>62</ele>
        <time>2021-12-01T14:53:39Z</time>
      </trkpt>
      <trkpt lat="43.15942" lon="5.70704">
        <ele>62.2</ele>
        <time>2021-12-01T14:53:43Z</time>
      </trkpt>
      <trkpt lat="43.15946" lon="5.70699">
        <ele>62</ele>
        <time>2021-12-01T14:53:47Z</time>
      </trkpt>
      <trkpt lat="43.15949" lon="5.70694">
        <ele>62</ele>
        <time>2021-12-01T14:53:51Z</time>
      </trkpt>
      <trkpt lat="43.15953" lon="5.7069">
        <ele>62.6</ele>
        <time>2021-12-01T14:54:07Z</time>
      </trkpt>
      <trkpt lat="43.15958" lon="5.70687">
        <ele>63.4</ele>
        <time>2021-12-01T14:54:11Z</time>
      </trkpt>
      <trkpt lat="43.15964" lon="5.70683">
        <ele>64.3</ele>
        <time>2021-12-01T14:54:15Z</time>
      </trkpt>
      <trkpt lat="43.15971" lon="5.70683">
        <ele>65.4</ele>
        <time>2021-12-01T14:54:21Z</time>
      </trkpt>
      <trkpt lat="43.15975" lon="5.70684">
        <ele>66</ele>
        <time>2021-12-01T14:54:29Z</time>
      </trkpt>
      <trkpt lat="43.15982" lon="5.70684">
        <ele>66.4</ele>
        <time>2021-12-01T14:54:37Z</time>
      </trkpt>
      <trkpt lat="43.15987" lon="5.7068">
        <ele>66.5</ele>
        <time>2021-12-01T14:54:49Z</time>
      </trkpt>
      <trkpt lat="43.15992" lon="5.70676">
        <ele>66.9</ele>
        <time>2021-12-01T14:54:53Z</time>
      </trkpt>
      <trkpt lat="43.15998" lon="5.70673">
        <ele>67.6</ele>
        <time>2021-12-01T14:54:57Z</time>
      </trkpt>
      <trkpt lat="43.16003" lon="5.70671">
        <ele>68.1</ele>
        <time>2021-12-01T14:55:01Z</time>
      </trkpt>
      <trkpt lat="43.16006" lon="5.70664">
        <ele>68.4</ele>
        <time>2021-12-01T14:55:11Z</time>
      </trkpt>
      <trkpt lat="43.16006" lon="5.70657">
        <ele>68.5</ele>
        <time>2021-12-01T14:55:17Z</time>
      </trkpt>
      <trkpt lat="43.16009" lon="5.70651">
        <ele>68.8</ele>
        <time>2021-12-01T14:55:23Z</time>
      </trkpt>
      <trkpt lat="43.16011" lon="5.70643">
        <ele>69.1</ele>
        <time>2021-12-01T14:55:29Z</time>
      </trkpt>
      <trkpt lat="43.16012" lon="5.70635">
        <ele>69.3</ele>
        <time>2021-12-01T14:55:35Z</time>
      </trkpt>
      <trkpt lat="43.16012" lon="5.70626">
        <ele>69.3</ele>
        <time>2021-12-01T14:55:41Z</time>
      </trkpt>
      <trkpt lat="43.16012" lon="5.70618">
        <ele>69.3</ele>
        <time>2021-12-01T14:55:45Z</time>
      </trkpt>
      <trkpt lat="43.16013" lon="5.70612">
        <ele>69.4</ele>
        <time>2021-12-01T14:55:49Z</time>
      </trkpt>
      <trkpt lat="43.16013" lon="5.70605">
        <ele>69.4</ele>
        <time>2021-12-01T14:55:53Z</time>
      </trkpt>
      <trkpt lat="43.16012" lon="5.70597">
        <ele>69.3</ele>
        <time>2021-12-01T14:55:59Z</time>
      </trkpt>
      <trkpt lat="43.16011" lon="5.70589">
        <ele>69.2</ele>
        <time>2021-12-01T14:56:07Z</time>
      </trkpt>
      <trkpt lat="43.16011" lon="5.70583">
        <ele>69.2</ele>
        <time>2021-12-01T14:56:13Z</time>
      </trkpt>
      <trkpt lat="43.1601" lon="5.70575">
        <ele>69.1</ele>
        <time>2021-12-01T14:56:19Z</time>
      </trkpt>
      <trkpt lat="43.1601" lon="5.70568">
        <ele>69.1</ele>
        <time>2021-12-01T14:56:25Z</time>
      </trkpt>
      <trkpt lat="43.16011" lon="5.7056">
        <ele>69.2</ele>
        <time>2021-12-01T14:56:31Z</time>
      </trkpt>
      <trkpt lat="43.16012" lon="5.70552">
        <ele>69.2</ele>
        <time>2021-12-01T14:56:37Z</time>
      </trkpt>
      <trkpt lat="43.16012" lon="5.70543">
        <ele>69.3</ele>
        <time>2021-12-01T14:56:43Z</time>
      </trkpt>
      <trkpt lat="43.16013" lon="5.70536">
        <ele>69.4</ele>
        <time>2021-12-01T14:56:49Z</time>
      </trkpt>
      <trkpt lat="43.16013" lon="5.70528">
        <ele>69.4</ele>
        <time>2021-12-01T14:56:55Z</time>
      </trkpt>
      <trkpt lat="43.16013" lon="5.7052">
        <ele>69.5</ele>
        <time>2021-12-01T14:57:03Z</time>
      </trkpt>
      <trkpt lat="43.16014" lon="5.70512">
        <ele>69.5</ele>
        <time>2021-12-01T14:57:09Z</time>
      </trkpt>
      <trkpt lat="43.16014" lon="5.70503">
        <ele>69.5</ele>
        <time>2021-12-01T14:57:15Z</time>
      </trkpt>
      <trkpt lat="43.16013" lon="5.70496">
        <ele>69.4</ele>
        <time>2021-12-01T14:57:21Z</time>
      </trkpt>
      <trkpt lat="43.16014" lon="5.70487">
        <ele>69.2</ele>
        <time>2021-12-01T14:57:27Z</time>
      </trkpt>
      <trkpt lat="43.16015" lon="5.70481">
        <ele>69.2</ele>
        <time>2021-12-01T14:57:31Z</time>
      </trkpt>
      <trkpt lat="43.16016" lon="5.70473">
        <ele>69.2</ele>
        <time>2021-12-01T14:57:37Z</time>
      </trkpt>
      <trkpt lat="43.16016" lon="5.70465">
        <ele>69</ele>
        <time>2021-12-01T14:57:45Z</time>
      </trkpt>
      <trkpt lat="43.16016" lon="5.70458">
        <ele>68.9</ele>
        <time>2021-12-01T14:57:51Z</time>
      </trkpt>
    </trkseg>
  </trk>
</gpx>